GFSSW_925_temp_000.txt.gz
Temp
10 10 10 10 10 10 10 10 11 12 12 13 14 13 13 13 13 12 12 16 17 16 16 17 18 18 18 17 19 19 16 16 18 19 21 22 24 25 25 24 25 26 23 25 26
11 10 10 10 10 10 10 10 11 11 12 12 13 13 13 13 13 13 16 16 16 16 16 16 15 16 15 17 18 16 16 17 19 20 20 22 22 23 24 24 24 24 25 24 23
11 10 10 10 10 10 10 10 11 11 11 12 12 12 12 13 13 14 16 15 15 16 16 15 15 16 16 17 16 17 17 18 20 21 20 21 21 23 23 23 23 24 24 24 21
11 10 10 10 10 10 10 11 11 11 11 11 12 12 12 12 14 15 16 16 15 15 15 15 15 15 15 16 17 16 18 19 20 21 20 20 23 22 22 22 24 23 23 23 22
11 11 10 10 10 10 10 10 11 10 11 11 11 12 12 11 12 16 15 16 16 16 15 14 14 14 15 16 16 16 17 19 19 20 20 21 20 21 21 22 21 21 22 22 21
11 11 10 10 10 10 10 10 10 10 11 11 11 11 11 10 14 15 15 15 16 15 15 14 14 15 15 15 15 17 18 18 19 20 20 21 21 20 21 21 21 22 21 21 21
12 11 11 10 10 10 10 10 10 10 10 10 11 11 10 11 14 15 15 14 15 15 14 15 15 14 15 15 16 17 17 18 18 19 20 21 20 20 21 21 21 21 20 20 20
12 12 11 11 10 10 10 10 10 10 10 10 11 10 10 13 13 14 15 14 15 16 16 16 16 15 15 16 15 15 16 16 18 19 19 20 19 21 21 20 20 20 19 19 20
13 12 11 11 10 10 10 10 10 10 10 10 10 10 9 13 13 13 13 13 15 15 16 16 16 15 15 14 14 14 14 15 17 19 19 19 20 21 21 19 20 19 18 19 17
13 12 11 11 10 10 10 10 10 10 10 10 10 10 11 12 13 13 13 14 14 14 14 14 13 12 11 13 14 16 15 15 16 18 18 19 19 20 20 19 19 20 18 17 17
12 12 11 11 10 10 9 10 9 9 9 9 10 11 13 13 13 13 13 14 13 12 11 12 11 12 12 12 13 13 14 14 15 17 17 18 18 20 20 18 19 18 17 16 16
12 12 11 11 10 10 10 8 10 11 9 10 10 11 12 13 13 13 13 12 12 10 11 11 11 12 12 12 13 13 13 13 15 17 16 16 17 18 20 21 20 20 16 15 16
12 12 11 10 10 9 9 10 11 11 9 10 10 10 12 12 12 12 12 11 12 12 12 10 12 13 13 12 12 12 13 13 13 15 17 18 17 17 19 19 21 19 18 17 16
12 12 11 10 9 9 9 10 10 11 9 11 10 11 12 13 12 14 13 13 12 11 11 11 12 12 12 12 12 12 14 14 15 14 14 17 16 17 19 19 20 19 16 16 15
12 11 10 10 10 9 10 10 10 10 7 11 10 12 13 12 13 12 14 13 11 10 10 11 11 11 11 12 13 13 14 14 14 14 13 15 15 17 18 18 19 19 16 16 16
10 11 10 9 10 10 11 10 9 8 7 10 11 10 11 12 13 13 13 13 13 11 11 11 12 12 12 13 14 14 13 13 14 13 13 15 15 16 17 19 19 18 16 16 16
9 10 10 10 9 10 10 9 8 8 12 11 11 10 11 11 12 12 10 11 10 10 10 10 10 11 12 12 13 13 12 12 12 12 14 15 15 16 17 18 21 19 15 15 15
8 10 9 10 11 10 10 9 8 11 11 11 11 10 10 12 11 12 11 10 11 9 10 10 10 10 11 12 12 12 13 12 11 11 13 16 16 16 18 19 20 19 17 16 15
8 9 8 9 10 10 9 9 9 12 12 11 11 10 11 11 11 11 10 10 11 9 10 10 10 12 12 12 13 12 11 14 13 14 13 14 15 16 17 17 17 16 15 15 15
7 9 8 9 10 9 9 10 10 13 11 12 11 11 11 11 10 10 11 11 11 11 11 10 8 11 11 12 12 12 13 12 12 12 14 15 15 18 18 17 16 16 16 15 14
8 8 8 9 9 9 9 8 11 12 12 12 11 11 11 10 10 10 10 11 11 12 10 10 10 10 10 11 12 11 12 13 13 13 14 16 17 17 19 18 17 16 16 15 14
9 9 8 8 9 9 10 11 13 12 12 12 11 11 11 11 10 9 10 11 12 12 10 11 11 10 11 12 12 13 13 14 14 14 15 13 15 17 19 19 18 17 16 15 14
10 10 8 9 10 9 11 12 12 12 12 13 11 11 12 12 11 11 12 14 13 12 11 12 11 11 11 11 11 12 14 15 15 15 13 14 16 17 16 16 17 16 15 15 14
9 10 9 9 10 11 11 12 12 13 13 13 12 12 12 13 12 13 12 14 14 14 14 13 11 11 12 12 13 13 13 14 14 14 15 15 15 16 16 16 15 14 15 14 13
10 11 11 10 10 11 11 12 12 12 12 12 11 11 12 12 12 12 13 14 14 13 12 11 10 10 11 11 10 13 15 14 13 15 14 16 15 16 17 17 15 15 14 14 14
10 11 11 11 12 11 11 12 13 13 13 12 11 13 12 12 13 14 14 14 14 13 11 10 10 10 11 13 13 14 14 15 15 13 13 13 13 18 16 15 14 14 15 15 14
9 9 12 11 11 11 11 12 12 12 12 13 12 12 13 12 14 13 14 14 14 13 11 10 10 11 13 15 15 15 15 15 12 11 12 12 15 16 16 16 14 13 15 15 14

GFSSW_925_temp_003.txt.gz
Temp
11 11 10 10 10 10 10 10 11 11 12 13 14 14 13 13 13 12 12 16 16 16 16 17 17 16 17 17 18 16 16 16 18 18 20 21 23 23 24 24 24 24 22 24 25
12 11 10 10 10 10 10 10 10 11 12 12 13 13 13 13 13 13 14 16 15 15 15 16 15 15 15 16 17 16 15 17 18 19 19 21 22 21 23 23 23 23 24 22 22
12 12 11 10 10 10 10 10 10 11 11 12 12 13 13 13 13 14 16 15 15 15 15 15 15 15 15 16 15 16 17 18 19 19 20 20 21 22 22 21 22 23 24 21 20
12 12 11 10 10 10 10 10 10 11 11 12 12 13 12 12 14 15 15 15 15 15 15 15 14 14 14 15 16 15 17 18 19 20 20 19 20 21 21 21 22 21 23 22 20
12 12 11 10 10 10 10 10 10 11 11 11 12 12 12 12 12 15 15 15 15 15 14 14 13 14 14 15 16 15 16 17 18 18 19 19 19 18 20 20 21 20 20 20 20
13 12 12 11 10 10 10 10 10 10 11 11 11 11 11 10 14 15 15 15 15 15 14 14 14 14 14 14 15 15 16 17 17 18 18 19 19 19 20 20 19 19 20 20 19
12 12 12 11 10 10 10 10 10 10 10 11 11 11 10 11 14 14 14 14 15 15 14 14 14 14 14 15 15 15 15 16 16 18 17 20 19 19 20 19 19 19 18 20 19
12 13 12 11 11 10 10 10 11 11 11 11 10 10 10 12 13 14 14 14 14 15 15 16 15 14 14 16 15 15 14 14 17 17 18 19 18 20 20 19 19 18 17 18 18
12 13 13 12 11 10 10 11 10 10 10 10 10 10 9 12 12 14 13 14 14 15 15 15 16 15 15 14 14 14 13 14 16 17 18 17 18 19 20 20 18 18 17 18 18
11 12 12 13 11 10 10 10 10 9 10 10 10 10 10 12 13 13 13 13 13 13 14 14 13 13 12 13 13 14 13 14 14 18 17 17 18 18 18 18 19 18 18 16 17
10 12 12 12 11 11 10 9 8 8 9 9 10 11 12 13 13 12 13 13 13 12 11 12 11 12 13 12 13 12 13 14 15 16 14 16 16 17 17 17 18 16 18 16 16
9 11 12 12 11 10 10 8 9 10 9 9 10 11 12 12 12 12 13 12 11 10 10 11 10 11 12 11 12 12 13 13 15 16 16 15 15 16 16 17 18 18 19 17 16
9 10 11 11 10 9 9 10 11 11 9 10 9 10 11 12 12 12 12 11 10 9 9 10 12 13 12 11 11 11 11 13 14 14 15 14 15 16 17 18 18 19 18 18 16
8 8 11 10 9 9 9 10 10 11 6 9 9 10 11 12 11 13 13 11 10 10 10 11 12 12 11 11 11 11 12 13 13 12 12 15 14 16 16 17 18 19 16 16 14
8 8 10 10 9 8 10 9 10 10 6 11 9 12 12 11 13 11 13 12 11 9 10 11 10 10 11 11 12 12 13 13 13 12 12 13 13 14 17 17 17 17 15 15 15
7 8 10 9 10 10 10 10 10 8 7 10 10 10 11 12 13 12 12 13 12 11 11 10 11 11 11 12 12 13 12 12 12 12 11 13 13 15 16 16 17 17 16 15 15
7 8 8 9 9 10 10 9 8 8 11 10 11 11 12 11 12 12 11 11 11 10 10 10 10 10 11 11 11 12 11 11 11 11 12 14 13 15 16 16 17 18 16 13 14
7 8 8 9 10 9 10 9 7 11 10 11 11 10 11 11 11 11 11 10 11 8 10 9 9 10 10 11 11 11 11 11 12 11 11 14 14 15 16 18 19 18 16 13 13
7 7 7 9 10 10 10 7 9 10 11 10 11 10 10 11 12 11 11 12 11 11 9 8 9 10 11 12 12 10 10 12 12 13 12 12 14 15 15 16 16 16 15 13 13
7 6 8 8 9 10 9 9 9 12 10 11 11 12 12 11 10 10 11 11 11 11 11 10 10 10 11 11 12 11 12 10 10 11 12 12 13 15 16 18 18 15 16 14 14
6 7 8 8 10 9 9 8 10 12 11 11 11 12 11 10 10 11 11 10 11 10 10 10 8 9 10 11 11 11 10 11 12 11 10 12 14 14 16 17 15 14 14 14 13
6 7 8 9 9 9 9 10 11 11 11 11 12 12 12 10 9 9 9 11 11 10 10 10 10 9 11 11 12 13 12 11 11 9 12 12 14 16 15 15 15 15 15 14 13
7 9 8 10 9 9 10 11 12 11 11 12 11 12 12 11 10 9 11 13 11 11 11 11 10 10 11 11 10 10 11 12 12 13 11 12 15 15 17 15 15 15 14 13 12
8 8 8 8 10 10 10 10 11 13 13 13 13 12 11 11 11 12 11 13 12 13 13 11 10 11 12 12 11 10 11 12 12 12 13 14 15 16 16 16 15 14 13 12 12
8 9 8 9 9 10 11 12 11 11 13 13 12 12 11 11 12 11 12 13 13 13 11 10 10 10 11 11 11 11 12 12 12 13 13 15 14 14 16 17 16 14 13 12 12
9 10 9 9 11 11 11 11 12 12 12 12 11 12 12 11 12 12 13 13 14 12 11 11 10 9 10 10 10 11 11 13 14 14 15 14 14 16 17 15 13 13 13 13 12
6 9 11 10 11 11 11 11 12 13 12 12 12 12 12 13 12 13 12 13 14 12 11 9 9 11 12 13 12 11 12 13 14 15 15 13 15 16 15 15 14 13 14 14 13

GFSSW_925_temp_006.txt.gz
Temp
12 12 13 11 10 10 10 10 10 11 11 12 13 14 14 14 13 12 12 15 16 16 16 16 17 17 17 16 16 15 15 15 16 17 19 21 21 22 22 22 23 23 23 23 23
12 12 12 12 11 11 10 10 10 10 11 12 12 13 13 13 13 13 15 15 14 15 15 15 15 15 14 16 16 15 14 16 16 17 19 20 20 20 22 21 22 22 23 22 21
12 12 11 12 11 11 10 10 10 11 11 12 12 12 13 13 13 14 16 15 15 15 15 15 15 15 15 15 15 15 16 17 18 19 19 19 19 21 21 20 20 22 22 21 20
12 12 12 11 11 11 10 10 10 11 11 11 12 12 13 12 14 15 14 15 15 15 15 14 14 14 14 14 15 15 15 16 18 19 18 18 18 18 19 20 21 20 20 21 19
12 12 12 11 11 11 10 10 10 11 11 11 12 12 12 12 13 15 14 15 15 15 15 15 13 14 14 14 15 14 15 16 17 17 17 17 18 17 18 18 19 19 19 19 19
11 12 12 12 11 11 10 10 10 10 11 11 11 11 11 10 14 15 15 14 15 15 14 14 13 13 13 13 14 15 15 15 16 16 16 17 17 18 19 18 18 18 18 18 18
11 12 12 12 12 11 10 10 10 11 11 11 11 11 10 11 13 13 14 14 14 15 13 14 14 14 13 14 14 15 14 14 15 16 16 17 17 17 19 18 17 17 17 17 18
9 11 11 12 12 11 11 11 10 10 11 11 11 10 9 12 12 13 13 14 15 15 15 15 14 13 13 14 14 15 14 13 15 15 16 17 16 18 19 19 19 19 16 16 17
9 9 11 11 12 11 11 11 10 10 11 10 10 10 9 12 12 13 13 14 14 14 15 15 15 13 14 13 13 13 12 13 15 16 16 16 17 18 18 18 18 16 16 16 16
8 8 9 11 11 11 10 10 10 10 10 10 9 9 10 12 12 12 12 14 13 13 14 14 12 11 12 11 10 12 13 14 15 16 15 15 15 17 16 16 16 16 15 16 16
8 8 9 10 11 11 10 9 9 9 9 9 10 10 12 12 13 12 12 13 12 11 11 12 10 12 13 12 12 12 12 12 13 15 14 13 14 15 15 15 15 17 15 16 15
7 7 8 9 11 10 10 9 9 10 9 9 9 10 11 12 12 12 12 11 11 10 10 11 10 11 12 11 12 12 12 12 12 14 14 14 14 15 15 16 15 15 16 16 16
7 7 8 9 10 9 10 10 11 11 9 9 9 10 10 11 11 11 11 10 10 9 10 10 12 12 11 11 11 10 10 11 11 13 14 13 13 15 16 17 17 17 17 17 18
7 7 7 8 10 9 9 10 11 12 4 9 8 9 10 11 11 12 12 11 10 10 10 9 11 11 10 10 10 10 11 12 12 11 10 12 12 14 14 15 16 17 17 16 16
6 6 7 7 9 9 10 10 11 10 6 10 9 11 11 11 12 10 12 12 9 9 10 10 10 10 10 11 11 12 12 11 12 11 11 11 11 12 14 15 16 15 14 15 16
5 6 7 7 8 9 9 10 11 6 6 9 10 10 10 11 12 11 12 13 12 11 11 10 10 10 10 11 11 12 11 11 11 12 11 11 11 13 14 15 15 15 15 15 14
6 6 7 7 8 9 9 9 8 7 11 10 11 11 12 11 12 12 11 10 11 10 10 10 10 11 11 10 10 11 10 10 11 11 11 12 11 14 14 15 15 15 15 15 13
6 7 7 7 7 8 9 8 7 10 9 11 11 11 11 12 12 11 11 11 11 10 10 9 8 10 10 11 10 10 11 10 10 12 10 12 12 12 14 16 17 17 16 15 12
7 7 7 8 7 9 9 10 9 10 11 10 11 10 10 11 11 11 11 11 12 10 10 10 8 10 10 11 12 10 10 11 11 12 11 10 11 14 15 14 15 14 15 13 12
6 6 7 8 8 9 10 9 10 11 10 11 10 11 10 10 10 10 11 11 12 11 11 10 10 10 10 11 11 10 11 10 10 10 9 10 11 12 15 15 14 15 17 13 12
6 7 7 9 8 8 9 9 10 11 11 11 11 10 13 12 11 11 10 10 10 11 10 9 9 9 10 10 11 10 10 9 11 10 8 10 12 13 15 14 14 15 15 13 12
6 7 8 8 8 8 8 9 11 10 11 12 12 13 12 10 9 8 9 10 10 10 10 10 10 9 10 11 12 12 11 11 10 8 9 7 12 15 13 13 14 14 12 12 11
6 8 8 9 8 9 9 10 11 10 10 11 11 12 13 11 10 9 9 11 10 10 10 10 10 10 10 10 10 10 11 11 11 11 9 9 13 16 16 15 14 12 12 10 10
7 8 8 8 9 10 10 10 11 12 11 12 12 12 11 11 10 10 10 12 11 11 12 12 10 10 11 11 10 10 10 11 11 10 11 12 13 15 14 15 14 12 11 10 10
8 8 7 7 9 10 11 11 11 11 12 12 12 12 11 11 12 10 11 12 11 12 12 10 10 10 10 11 9 10 10 10 10 11 11 13 14 14 14 13 14 13 11 11 11
8 8 8 8 10 9 9 10 10 12 12 12 11 12 11 11 12 12 12 12 11 11 11 10 10 9 10 10 10 10 11 11 11 12 12 13 13 14 13 14 14 13 11 11 11
5 6 10 10 10 9 9 10 11 12 12 12 12 12 11 12 13 13 13 12 12 12 10 9 9 10 12 12 12 11 11 12 12 12 13 12 13 15 13 14 13 12 12 12 11

GFSSW_925_temp_009.txt.gz
Temp
12 12 12 11 12 11 11 11 11 10 11 12 12 13 14 14 13 12 12 15 15 15 15 16 17 16 16 16 16 15 17 17 18 18 20 20 21 22 21 22 22 23 23 23 22
12 12 12 12 11 11 11 11 11 10 10 12 12 12 13 13 13 12 15 15 14 15 15 15 15 15 15 16 16 17 16 17 17 18 19 20 20 20 22 22 22 23 23 22 21
11 12 12 12 12 11 11 10 10 11 11 11 12 12 13 13 13 14 15 14 14 15 15 15 15 15 15 15 15 15 17 17 18 19 19 19 19 20 21 20 21 23 22 22 21
11 11 12 12 11 11 11 11 10 11 11 11 12 12 12 12 14 14 14 15 15 14 15 14 14 14 14 14 15 15 15 16 18 19 18 18 18 19 19 20 21 21 20 20 22
10 10 11 12 12 12 11 10 10 11 10 11 12 12 12 12 14 14 14 15 15 14 15 15 14 14 14 14 14 14 15 16 17 16 17 17 18 18 18 19 20 20 20 20 21
9 10 10 11 12 12 11 11 10 10 10 11 11 11 11 12 14 14 15 14 14 14 15 15 14 13 13 14 14 14 14 15 16 16 16 17 18 17 19 19 19 19 20 20 20
9 9 9 11 11 11 11 11 11 10 10 11 11 11 10 11 13 13 14 14 14 14 13 14 14 14 13 13 14 14 14 15 15 16 16 17 16 16 19 19 19 19 19 20 20
8 8 8 9 11 11 11 11 11 10 10 10 10 11 9 12 12 13 13 14 14 14 14 14 14 13 13 14 14 14 14 14 15 15 16 17 17 18 18 18 19 19 18 19 20
8 8 8 9 9 11 11 10 11 10 10 10 10 10 9 11 11 12 13 14 14 14 14 14 14 13 13 12 12 13 13 13 15 16 16 16 16 18 18 17 18 18 18 18 18
7 7 8 8 9 10 10 10 10 10 10 10 10 10 10 11 12 12 13 14 13 13 13 13 12 12 12 12 12 12 12 13 14 15 15 15 15 16 17 17 18 18 18 17 18
6 7 7 7 8 9 10 9 9 9 9 9 10 10 11 12 12 11 12 12 12 12 11 11 11 12 12 12 12 12 12 12 13 14 14 14 15 16 16 16 16 17 18 18 17
6 6 7 7 8 9 9 9 10 11 9 9 9 10 11 11 11 11 12 11 11 10 10 11 11 12 12 11 12 12 12 13 14 14 14 14 14 15 15 16 17 17 17 17 17
6 6 6 7 7 8 9 10 12 13 9 10 9 9 10 11 11 11 11 10 10 9 10 10 11 12 11 11 12 13 12 13 13 13 13 13 14 16 17 17 17 17 17 18 18
5 6 6 7 7 9 9 9 12 14 5 9 8 9 10 11 11 12 12 11 10 10 12 11 12 11 10 10 11 11 12 12 12 11 11 12 13 15 16 16 16 16 17 17 17
5 5 6 6 7 9 9 10 12 11 7 9 8 11 10 11 11 10 12 12 9 9 9 11 10 9 10 11 11 11 11 11 11 11 10 12 11 14 14 15 16 16 16 16 17
6 5 6 6 7 7 8 9 12 7 6 9 9 10 10 10 12 11 11 13 12 11 11 10 10 10 10 11 11 12 11 11 11 11 11 12 12 14 15 16 15 16 16 16 17
4 5 6 7 8 8 8 8 8 7 11 9 10 11 12 10 11 11 11 10 11 10 10 11 11 10 11 10 10 11 10 11 11 11 12 12 12 14 15 16 16 17 16 16 16
4 6 6 7 8 7 8 8 8 10 10 11 12 11 11 12 12 11 11 11 11 10 10 7 9 11 10 11 11 10 10 11 11 11 12 11 12 14 14 16 16 16 16 16 15
6 6 6 7 7 6 8 9 10 10 10 11 11 11 10 11 12 12 11 11 12 11 10 8 10 9 9 10 12 9 10 12 10 11 10 12 12 13 14 15 14 15 15 15 15
5 7 6 7 7 6 7 9 10 10 11 11 10 11 11 11 10 11 11 10 12 11 12 10 9 9 10 10 10 10 11 10 10 10 11 11 12 13 14 15 14 14 15 16 14
6 7 7 7 7 7 8 9 10 10 11 11 10 10 11 10 10 10 10 10 10 9 11 10 9 9 10 10 11 10 10 10 10 10 11 11 14 13 14 14 14 14 15 14 13
5 7 7 8 7 5 8 9 11 10 11 11 12 12 11 11 11 11 9 10 10 9 9 10 10 9 9 10 11 12 11 11 10 10 10 9 12 15 14 13 13 14 14 12 11
6 7 6 8 8 8 8 10 10 10 11 11 11 12 12 11 10 9 9 11 9 10 9 10 10 9 9 10 11 10 11 11 11 11 10 10 12 14 14 13 14 14 13 11 10
6 8 7 8 8 8 9 10 10 11 11 11 11 11 11 11 11 10 9 11 10 10 12 11 10 9 12 12 9 10 10 10 9 10 11 11 12 14 15 14 13 14 13 11 10
7 7 7 8 8 10 10 11 10 10 12 11 11 12 11 11 11 10 10 11 10 11 11 10 10 9 10 11 10 10 10 10 10 11 10 13 12 14 15 14 13 13 14 12 10
6 8 7 7 10 10 9 10 10 11 12 11 11 12 12 12 12 11 11 10 11 10 11 10 10 10 10 11 10 10 10 10 10 11 11 12 12 14 14 14 12 11 13 13 10
5 6 7 10 10 9 8 10 10 11 12 12 11 12 12 12 13 13 12 13 12 11 10 10 9 10 11 13 11 12 11 10 11 11 11 11 13 14 13 11 11 12 12 12 11

GFSSW_925_temp_012.txt.gz
Temp
11 12 12 12 12 11 11 11 11 11 11 11 11 12 13 13 13 13 15 16 15 15 15 17 17 18 19 20 20 21 22 23 23 23 25 25 24 26 26 26 27 27 27 26 23
11 11 12 12 12 12 11 11 11 11 11 11 11 12 13 13 14 14 15 15 15 15 16 18 19 19 20 20 20 21 22 23 25 24 24 25 24 25 25 26 26 27 27 25 24
10 10 11 12 12 12 11 11 11 11 11 11 11 12 13 13 14 15 14 14 15 15 16 17 18 19 19 19 20 20 21 23 22 22 23 23 23 24 24 24 26 27 27 26 25
9 9 10 10 11 12 11 11 11 10 11 11 11 12 12 12 15 15 14 15 15 15 16 17 18 18 18 18 19 18 20 21 21 21 21 21 23 22 24 25 27 26 25 25 26
8 9 9 9 10 11 12 11 11 10 11 11 11 12 13 14 15 14 14 15 15 15 16 17 18 18 18 18 18 18 20 20 20 20 20 21 21 22 22 24 24 24 24 25 25
8 8 9 9 9 11 11 12 11 10 11 11 11 11 13 14 14 14 15 14 15 15 16 16 16 17 17 18 18 18 18 19 19 19 20 19 21 21 22 23 23 24 24 25 26
8 8 8 8 8 10 11 11 10 10 11 11 11 11 13 15 13 13 14 14 14 15 16 15 15 17 17 17 17 17 17 19 20 20 19 20 19 20 22 23 23 23 24 25 25
8 8 8 8 8 9 10 10 11 10 10 10 11 11 14 12 12 13 13 14 14 14 15 15 15 16 16 17 17 17 17 18 20 19 20 19 20 22 22 22 22 23 24 24 25
8 8 7 7 8 8 9 10 10 10 10 10 11 12 13 11 12 13 14 15 15 15 15 15 16 16 16 16 16 17 18 17 18 19 19 19 20 21 22 22 22 23 24 24 24
7 7 7 7 7 7 8 11 10 10 10 10 10 12 12 13 12 12 13 14 15 15 15 15 15 15 15 16 18 18 16 17 18 19 18 18 19 20 21 21 21 22 23 23 23
6 6 6 6 7 7 8 10 9 9 11 13 13 13 13 12 12 12 13 14 15 15 14 14 13 14 16 16 17 16 16 17 18 17 17 18 18 20 20 20 20 21 22 22 23
5 6 6 6 6 7 7 9 12 13 11 11 12 12 12 12 13 13 13 14 14 14 14 13 12 15 15 15 15 15 15 16 17 17 16 17 18 19 19 19 20 21 22 22 22
6 6 6 6 6 7 7 8 12 12 13 10 12 12 12 13 13 13 14 14 14 13 14 15 14 14 14 14 14 15 15 16 15 16 16 16 17 21 22 21 21 21 21 22 22
6 5 6 6 7 8 8 9 10 10 10 11 10 11 12 13 13 14 14 14 13 14 14 14 15 13 13 13 14 14 16 15 14 14 14 16 17 20 21 21 21 21 21 21 21
6 5 6 5 7 8 7 9 9 8 12 11 9 11 12 13 13 12 13 13 13 13 13 13 12 12 11 13 14 14 14 14 14 14 13 15 12 18 19 19 20 21 22 23 22
6 5 5 5 6 7 7 7 7 8 11 10 10 10 10 12 12 12 12 14 14 13 12 14 13 13 14 14 14 14 13 13 13 13 12 15 15 17 19 21 20 20 22 22 22
5 4 5 5 7 7 7 6 8 12 12 10 10 10 11 11 12 12 12 11 12 11 11 13 13 13 13 12 13 13 12 13 12 11 14 18 16 17 19 19 20 21 22 21 21
5 6 7 6 7 7 6 7 11 13 13 12 12 12 12 12 12 12 12 11 13 12 12 12 13 13 13 13 14 12 13 14 14 16 16 17 15 18 20 20 20 21 20 20 20
6 6 6 6 6 6 6 10 11 13 13 12 12 12 12 13 13 12 12 12 13 12 11 11 11 12 13 13 14 12 11 14 13 14 12 15 17 18 19 18 19 20 19 19 19
5 5 7 6 7 6 7 10 11 12 13 13 12 13 12 12 13 12 12 14 14 14 15 13 11 13 13 12 12 13 14 11 11 12 13 16 16 17 19 19 19 19 19 19 19
5 7 6 6 6 6 9 9 11 13 13 13 12 13 14 13 13 13 14 13 14 13 14 13 12 12 11 11 13 11 10 10 12 13 13 13 17 20 19 19 19 18 18 18 18
5 6 6 7 6 7 9 10 12 12 13 13 14 14 14 13 12 13 13 13 13 13 12 13 12 11 12 15 14 15 14 13 11 12 11 12 15 19 19 18 17 18 18 18 16
5 7 6 8 9 9 9 11 12 12 12 13 13 14 14 13 12 13 13 13 13 13 13 13 10 11 13 13 13 12 14 14 11 11 11 12 15 18 18 17 17 17 18 18 16
6 7 7 8 10 10 11 12 12 12 12 13 13 14 14 13 13 12 12 13 13 13 12 13 13 11 14 14 14 11 12 11 10 11 13 13 14 16 17 17 18 18 19 17 17
7 8 8 9 9 12 13 12 12 12 13 14 13 14 14 13 13 13 13 12 12 12 13 12 10 10 11 12 12 11 11 11 10 12 12 15 15 16 17 17 17 17 16 14 16
7 8 10 10 11 12 11 12 12 12 13 13 13 14 13 13 14 13 13 13 14 13 12 12 11 10 10 12 12 11 12 11 11 11 13 14 14 16 16 15 14 14 12 13 15
5 6 8 10 11 12 12 12 13 13 13 13 13 13 12 13 14 14 14 13 13 13 12 11 10 10 12 14 14 13 12 11 11 11 12 12 14 15 11 10 10 10 12 14 14

GFSSW_925_temp_015.txt.gz
Temp
10 10 11 11 12 12 12 11 11 11 11 11 11 11 12 13 14 13 15 17 17 16 16 18 19 20 21 22 23 23 23 24 25 26 27 29 28 28 29 29 29 30 30 28 26
9 9 10 10 11 12 12 12 11 11 11 11 11 12 12 13 15 15 16 16 16 16 17 19 20 21 22 22 22 22 22 24 27 28 27 27 26 28 27 27 28 29 29 28 27
9 9 9 10 10 11 11 11 11 11 11 11 11 12 13 13 15 17 17 15 15 15 17 19 21 21 21 22 22 22 22 25 26 25 25 25 26 27 26 26 28 28 29 29 28
9 9 9 9 9 10 11 12 11 11 11 11 11 12 13 13 15 17 15 15 15 16 18 19 20 20 20 20 22 21 23 24 25 24 23 23 25 25 26 26 28 29 29 29 28
9 9 9 9 9 9 10 11 11 11 11 10 11 12 12 13 15 15 15 15 15 16 18 19 20 21 20 21 22 21 22 24 23 22 23 23 23 24 24 26 27 27 27 26 27
9 9 9 8 8 9 9 10 11 11 10 11 11 12 14 15 15 15 16 16 17 16 17 18 19 21 20 21 20 22 21 22 22 22 22 21 22 23 24 25 25 25 26 26 27
8 9 8 8 8 8 8 9 10 11 10 11 11 12 15 17 16 15 15 17 17 17 18 17 17 17 18 18 20 19 19 21 21 22 21 22 21 21 24 24 25 25 26 26 26
8 8 8 8 8 8 8 8 9 10 10 10 11 13 15 14 15 15 16 16 16 17 16 15 16 17 19 19 19 18 20 20 23 22 22 21 20 25 25 25 24 25 26 26 27
8 7 7 7 7 7 8 8 9 10 10 10 12 14 15 12 14 15 16 17 17 17 17 16 16 17 17 17 19 19 20 21 22 23 22 21 21 24 24 24 24 25 25 26 26
7 6 6 6 7 7 7 7 9 10 10 10 12 13 15 15 14 15 15 17 17 18 17 17 17 17 17 18 19 20 19 20 21 22 20 20 21 23 24 23 23 24 24 25 26
6 6 6 6 7 7 7 8 10 10 10 13 14 15 15 14 14 14 15 16 17 17 15 16 14 15 18 19 19 19 19 20 21 22 20 20 20 22 23 23 23 23 24 24 25
6 6 6 6 6 6 7 7 8 10 11 14 14 14 15 15 14 15 15 16 15 14 15 13 13 17 19 18 18 18 17 18 20 20 19 19 19 21 22 22 23 23 23 23 24
6 6 6 6 6 7 8 6 7 7 12 12 14 14 13 14 15 14 16 16 15 15 15 15 17 16 17 16 16 17 17 18 18 19 18 18 19 22 24 23 24 24 23 23 23
6 6 6 5 7 8 9 7 7 7 10 10 11 13 13 15 14 15 16 16 15 15 15 15 17 15 16 15 17 16 19 18 17 16 17 18 18 21 24 24 24 24 24 24 23
6 6 6 5 5 7 8 8 8 7 13 11 12 14 14 15 14 14 16 15 15 16 15 15 14 15 14 15 16 16 16 16 16 15 15 17 15 19 23 23 23 24 24 24 24
6 5 5 5 6 7 8 7 7 9 12 10 10 11 12 14 14 14 13 15 16 15 15 16 15 15 16 16 16 15 15 14 14 13 12 16 18 19 22 23 22 24 23 23 24
6 5 6 6 6 8 7 8 9 12 13 10 11 11 12 12 13 12 12 12 13 11 12 14 14 15 15 14 15 14 13 14 14 12 15 20 19 20 22 23 22 22 23 23 23
6 6 6 6 7 7 6 9 10 14 14 13 12 12 12 13 13 13 13 12 14 15 14 12 15 15 14 14 15 13 13 15 16 18 19 20 18 20 22 23 22 22 22 22 22
6 6 6 7 7 7 8 9 11 15 14 12 12 11 12 13 13 14 13 13 15 15 13 14 13 15 15 15 15 14 12 15 13 15 14 17 19 21 21 21 22 21 21 22 21
6 6 7 6 7 7 9 10 11 15 14 14 13 14 12 13 13 14 14 15 14 16 16 15 13 15 15 14 15 14 15 12 11 12 15 18 19 19 21 21 21 21 21 21 21
6 6 6 7 7 8 9 9 13 15 15 15 15 14 15 14 15 14 14 16 16 16 16 15 14 13 13 12 15 13 12 11 14 13 14 15 17 21 20 20 20 21 21 20 20
5 6 6 7 8 9 9 9 13 13 13 15 16 16 16 15 15 16 16 16 16 16 14 15 13 12 13 16 16 16 14 14 12 14 12 13 15 19 20 20 20 20 19 20 20
6 6 6 6 10 10 8 11 13 12 14 15 15 16 16 16 15 16 16 15 15 15 15 15 12 12 13 15 16 15 15 15 14 12 12 12 15 20 20 19 19 19 19 19 19
6 7 7 9 11 12 10 13 13 13 14 15 15 16 15 15 16 15 14 14 15 15 13 15 14 12 15 15 15 11 13 14 12 12 14 15 15 17 18 18 17 19 19 20 19
8 8 9 9 12 11 12 13 13 14 14 15 15 15 16 15 15 15 15 14 14 14 14 14 11 12 13 14 13 13 13 13 11 11 11 14 15 16 17 17 15 16 17 18 17
7 8 10 12 13 13 13 14 14 14 15 14 15 15 15 16 16 15 15 15 15 14 14 13 11 11 10 13 13 13 15 14 12 12 11 11 11 14 16 14 15 14 14 13 13
6 7 8 12 14 15 15 15 14 15 14 15 15 15 14 15 15 15 16 16 15 14 13 12 10 10 13 15 15 14 13 12 12 12 11 12 13 15 14 12 11 11 12 11 12

GFSSW_925_temp_018.txt.gz
Temp
10 10 10 10 10 11 11 12 12 11 11 11 11 11 11 12 13 13 14 15 16 17 17 18 19 20 21 21 22 23 20 21 22 24 25 27 27 28 28 27 27 29 28 26 27
9 9 9 9 10 10 10 11 12 11 11 11 11 11 11 12 14 15 15 16 17 16 17 19 19 20 19 20 21 20 19 21 24 25 25 25 27 27 27 25 26 26 28 27 27
9 9 9 9 9 9 10 10 11 11 11 11 11 11 12 12 14 17 17 16 16 16 16 18 20 21 19 20 21 20 19 22 24 25 25 23 24 26 25 24 25 26 27 26 27
9 9 9 9 9 9 9 10 10 11 11 11 11 11 12 12 15 16 17 16 16 15 16 18 19 19 19 19 21 20 22 22 23 24 23 23 23 23 23 24 25 25 26 27 25
9 9 9 9 9 9 9 9 10 11 11 11 11 11 12 13 15 15 16 16 15 15 17 19 19 19 19 20 21 20 21 23 23 23 22 22 21 21 22 23 24 25 25 24 26
9 9 9 9 9 8 8 8 9 10 11 11 11 11 12 14 16 16 16 16 16 16 16 19 20 20 20 21 21 22 21 21 22 22 22 21 21 21 22 22 23 23 23 23 24
8 8 8 8 8 8 8 8 8 9 11 11 11 11 14 15 17 16 16 17 18 17 17 18 18 18 19 18 20 20 18 19 20 20 21 21 20 20 21 22 22 22 23 23 23
8 7 7 8 7 8 8 8 8 8 10 11 11 12 14 16 16 15 16 17 17 17 17 16 17 17 18 18 19 18 18 17 21 21 21 20 18 21 23 22 21 22 22 23 23
7 7 7 7 7 7 7 7 8 8 10 10 11 12 14 14 15 15 17 17 17 18 15 15 16 17 18 17 17 17 17 18 20 21 22 20 19 21 23 23 22 21 22 23 23
7 7 6 6 6 7 7 7 9 9 10 10 12 12 14 15 15 16 16 17 17 16 16 16 16 16 16 16 15 18 17 19 19 21 20 19 19 20 21 21 21 21 21 21 22
6 6 6 6 6 6 7 8 8 10 10 11 13 15 15 15 14 15 16 17 17 16 15 16 15 14 17 17 18 18 18 17 19 21 19 18 19 20 20 20 20 21 21 21 22
6 6 6 6 6 6 6 7 7 6 10 11 14 15 15 15 14 15 16 16 15 14 16 14 13 16 18 19 18 18 17 16 18 20 19 17 17 18 19 20 20 20 21 21 21
6 6 7 6 6 6 7 8 7 6 10 11 13 14 14 15 15 14 16 16 15 14 14 15 16 17 17 17 16 16 16 16 17 18 17 17 16 18 21 20 20 20 21 21 21
6 7 6 5 6 7 7 7 7 6 9 10 11 14 14 15 15 16 16 16 15 14 15 15 17 16 16 16 17 15 17 17 17 15 14 17 13 17 19 21 21 20 19 19 20
6 6 6 5 5 6 8 7 5 6 12 10 11 15 15 15 14 14 16 16 15 15 15 15 15 15 15 16 17 16 16 15 15 14 11 14 12 15 18 18 21 21 20 19 19
6 6 6 6 5 6 7 7 5 7 12 10 10 12 12 14 14 14 14 15 16 16 16 16 16 16 16 16 16 15 16 15 14 12 8 12 14 16 18 19 21 21 20 21 21
6 6 6 6 6 6 7 7 8 10 11 10 11 12 13 13 13 13 12 12 12 11 12 14 14 15 15 14 15 15 13 11 11 11 10 17 15 16 19 20 20 20 20 20 19
6 6 7 6 7 7 7 7 9 11 12 13 12 12 13 13 12 12 12 12 13 13 12 11 13 14 15 14 14 13 13 11 13 12 13 16 13 16 20 21 21 21 19 19 19
7 7 7 6 7 8 8 8 9 11 13 12 12 12 12 13 13 12 12 12 14 15 12 12 13 15 15 15 14 13 11 14 12 13 10 13 17 18 19 19 19 19 19 18 18
6 7 7 7 8 8 9 10 9 14 14 14 12 14 12 12 13 13 13 14 14 15 15 15 13 15 14 15 14 14 15 11 11 8 11 15 16 16 18 18 18 17 18 18 18
7 7 6 8 8 9 9 8 10 14 15 15 14 14 14 13 14 13 14 16 15 15 16 15 14 13 12 12 13 12 12 12 12 11 10 12 14 19 17 17 17 18 17 17 17
7 7 6 7 8 8 9 8 12 13 14 15 17 16 14 14 14 14 15 16 16 16 14 15 13 10 11 14 14 14 13 13 11 10 11 10 13 17 17 17 17 16 17 17 18
7 7 7 6 9 9 9 11 13 13 14 15 15 17 16 15 15 16 16 15 16 15 14 14 11 9 11 14 14 13 14 14 13 12 11 11 13 18 18 17 17 17 14 15 17
7 7 8 8 10 10 10 11 11 13 15 16 15 16 16 15 16 15 14 14 15 15 14 15 14 10 10 12 12 10 12 13 13 11 12 12 13 15 16 17 15 14 15 15 15
9 9 10 10 12 11 12 12 13 14 15 16 15 16 16 15 15 15 15 14 14 13 14 14 10 10 12 13 13 12 12 13 11 11 11 12 13 14 14 13 13 14 14 14 12
8 8 8 12 13 13 13 13 14 14 15 15 15 16 16 16 15 15 15 15 14 13 13 13 10 10 10 11 12 11 12 13 13 12 12 12 12 14 14 13 13 12 12 11 11
6 7 7 13 13 13 15 15 14 15 14 15 16 15 15 14 15 15 15 15 15 14 13 11 10 10 11 13 13 12 13 13 13 13 13 12 13 13 14 13 12 11 11 12 12

GFSSW_925_temp_021.txt.gz
Temp
9 10 10 10 9 10 10 10 11 12 12 11 11 11 11 11 12 12 13 13 15 15 16 17 17 18 19 18 20 21 17 16 19 20 21 23 22 26 26 26 26 26 26 24 26
10 10 10 9 9 10 9 10 10 11 12 11 11 11 11 12 12 13 15 15 15 16 16 17 17 18 16 18 18 17 16 18 20 20 21 23 22 21 25 25 25 25 24 25 26
9 9 9 9 9 9 10 9 9 10 11 11 11 11 11 12 13 14 16 15 15 16 16 17 17 18 16 17 17 18 16 19 20 21 22 22 22 22 22 23 23 24 24 22 24
9 9 9 9 9 9 9 9 9 9 11 11 11 11 11 12 14 16 16 16 16 16 16 16 16 16 16 16 18 17 19 20 20 21 21 21 21 20 22 22 21 22 24 24 23
8 9 9 9 9 8 9 9 9 9 10 11 11 11 11 12 13 16 16 16 16 15 15 15 15 17 17 17 17 18 19 20 20 20 20 21 20 20 19 20 20 21 21 22 23
8 9 8 8 8 8 8 9 8 9 9 11 11 11 11 12 16 16 16 16 15 15 15 15 16 17 17 17 18 19 19 19 19 19 19 20 19 20 20 20 20 20 20 20 21
8 8 8 8 7 8 8 8 8 8 8 9 11 10 12 14 16 16 16 16 16 16 15 16 18 18 18 18 18 19 17 17 18 18 18 20 18 18 19 19 19 18 18 20 20
7 7 7 7 7 7 7 7 7 8 8 9 10 11 11 14 15 16 16 16 17 17 17 16 17 17 17 17 18 17 17 15 17 19 18 19 17 19 19 18 19 19 20 19 20
7 7 7 7 7 6 7 7 7 8 8 9 10 11 12 14 15 16 16 17 17 16 15 14 14 16 17 16 16 16 14 15 16 19 19 18 18 19 19 19 18 18 19 19 20
7 6 6 7 6 6 6 6 8 8 9 10 10 11 12 13 15 16 16 16 16 15 15 14 13 14 14 15 13 15 14 16 17 19 20 18 17 18 18 18 17 17 17 17 18
6 6 7 7 6 6 6 6 7 8 9 11 11 13 14 15 15 15 16 16 16 15 14 14 13 13 14 14 15 16 16 15 16 18 17 17 16 17 18 17 18 18 17 18 18
6 6 7 7 6 6 6 6 6 5 6 11 12 14 14 15 14 15 16 15 15 14 15 13 13 14 15 16 16 15 15 14 15 17 17 15 16 17 17 18 18 18 17 16 17
7 7 7 6 6 6 6 7 6 6 6 10 11 14 14 15 14 14 15 15 14 14 14 13 15 15 16 15 16 15 15 14 15 15 15 14 14 15 16 17 18 18 19 17 17
7 6 6 6 5 6 7 6 6 6 7 10 11 14 14 14 13 15 16 15 15 14 14 14 16 16 15 15 15 14 15 15 15 13 12 13 11 12 16 17 19 17 17 18 18
6 6 6 6 5 5 6 5 5 5 11 9 10 14 13 13 13 14 15 16 14 14 13 13 15 15 14 15 16 14 14 14 13 12 10 11 11 11 14 16 17 18 16 15 15
6 6 6 6 5 6 6 6 5 7 10 10 11 12 12 13 13 13 14 15 16 15 14 14 15 15 14 15 15 15 13 13 12 10 6 10 12 12 15 17 20 20 20 20 18
6 6 6 6 7 6 6 6 7 8 9 10 11 12 12 12 12 13 13 12 12 11 11 14 13 14 15 13 14 13 11 7 8 9 9 12 12 13 16 18 18 18 18 17 17
6 7 7 6 7 7 6 7 8 11 10 11 12 12 12 12 12 13 12 12 12 12 9 9 9 12 13 12 12 11 12 8 11 9 11 14 12 14 17 17 17 18 17 17 17
8 7 7 7 7 7 7 7 8 10 12 11 12 12 12 13 11 12 12 13 12 12 10 8 12 13 13 14 14 12 10 12 10 11 6 10 12 15 17 17 16 17 16 15 14
7 7 6 7 7 7 8 8 8 12 12 13 10 12 11 12 11 12 12 12 13 13 13 14 12 14 13 14 14 12 12 9 6 6 9 11 12 14 16 16 15 15 15 14 14
7 6 7 7 7 7 8 8 10 13 13 13 12 13 12 12 12 12 11 13 13 13 12 14 12 12 13 11 11 11 10 11 10 8 8 9 11 14 15 15 14 14 15 14 14
6 6 7 8 6 7 7 7 10 12 13 15 15 13 12 12 12 12 12 14 14 15 13 14 12 8 10 12 12 12 11 11 10 9 8 7 12 16 16 15 15 17 17 17 15
5 7 8 7 7 8 9 11 12 11 13 15 14 15 14 12 13 14 13 14 14 15 12 13 10 8 11 12 13 12 12 12 13 11 10 10 12 16 15 16 16 14 14 13 14
7 5 5 6 7 9 10 10 11 13 14 14 15 14 14 14 14 14 12 14 14 14 14 14 11 8 9 10 11 10 11 12 12 10 11 12 13 14 15 15 15 14 13 12 12
7 7 9 6 8 9 10 11 13 13 14 14 14 15 14 14 14 13 12 12 13 13 13 13 9 9 10 11 11 10 11 12 11 11 11 13 13 13 14 14 14 13 12 12 12
7 7 7 7 10 11 12 12 13 13 13 14 14 14 13 13 14 13 13 12 12 12 12 11 6 9 7 10 10 10 11 12 12 12 12 12 12 14 15 13 13 13 12 12 12
6 7 7 8 10 11 11 12 13 13 13 13 14 14 12 13 13 13 14 14 13 11 11 11 8 8 7 11 10 11 11 13 14 13 13 12 13 15 13 12 9 8 9 10 11

GFSSW_925_temp_024.txt.gz
Temp
9 10 10 10 10 10 10 10 10 10 11 12 12 11 11 11 11 11 12 13 15 15 16 16 16 17 17 17 18 17 15 15 18 18 20 22 22 22 24 25 25 25 22 23 25
10 10 10 10 9 10 9 10 9 9 10 11 12 11 11 11 11 12 13 14 14 15 15 15 16 16 15 16 17 16 14 16 18 20 20 21 22 22 22 23 25 24 22 24 24
9 9 9 9 9 9 9 9 9 9 9 10 11 11 11 11 12 13 16 14 15 15 15 15 16 17 15 17 16 16 15 18 19 20 21 20 20 21 22 22 23 22 22 22 22
8 8 9 9 9 8 9 9 9 9 9 9 10 11 11 11 12 15 16 14 15 16 16 16 15 15 15 15 17 17 17 19 19 20 19 20 21 20 20 21 21 20 21 23 22
8 8 9 9 8 8 8 8 9 9 9 9 9 11 11 11 12 16 16 15 15 16 15 15 14 15 15 15 16 17 18 19 19 18 19 19 19 19 19 19 19 19 20 21 20
8 8 8 8 8 7 7 8 8 8 9 9 9 11 11 11 15 16 16 16 16 15 15 15 15 15 16 16 16 18 18 18 18 18 18 18 18 18 19 19 18 19 19 18 19
7 7 7 7 7 7 7 7 8 8 8 8 9 10 11 12 15 16 16 16 15 15 14 15 15 16 16 17 17 18 18 17 18 18 18 19 18 17 18 18 17 17 17 18 18
7 7 7 7 7 7 7 7 7 7 8 8 9 10 11 14 15 15 16 15 16 16 16 16 16 16 16 17 17 17 16 16 17 18 18 18 17 18 18 17 17 17 17 17 19
7 7 7 7 7 7 6 7 7 7 8 8 8 10 12 14 14 15 16 16 16 15 15 15 16 16 16 15 14 14 14 14 15 17 18 16 17 18 19 17 16 16 16 17 18
7 7 7 7 7 7 7 6 8 7 8 8 9 10 12 13 15 15 15 16 16 14 14 14 13 14 14 14 13 14 14 14 15 17 17 16 16 17 17 17 16 16 15 15 16
7 7 6 6 7 6 6 6 6 7 8 10 11 12 13 14 15 15 15 15 13 14 13 13 13 14 14 15 15 16 16 15 15 16 16 15 15 16 16 15 15 17 16 16 17
7 7 7 7 6 6 6 5 6 6 7 8 11 12 14 15 14 14 15 14 14 13 13 13 13 14 15 15 15 15 14 13 14 16 16 14 15 16 16 17 17 18 18 17 17
7 6 6 6 6 6 6 6 7 7 6 9 11 13 14 15 13 13 15 14 14 14 14 14 14 15 14 15 15 14 14 14 14 14 14 13 16 15 16 16 17 18 18 18 18
6 6 6 6 5 6 6 6 6 7 7 10 10 12 14 14 13 15 16 15 15 14 14 14 16 14 13 15 14 14 14 14 14 13 11 12 11 11 14 15 16 15 14 15 16
6 6 6 6 5 5 6 6 6 6 9 9 10 13 13 13 13 13 15 15 14 14 14 13 14 14 13 14 15 14 14 14 13 11 10 11 10 11 12 14 15 15 15 14 13
6 6 6 7 5 5 6 6 5 8 9 9 10 12 12 13 13 13 14 15 15 14 13 13 14 14 14 14 14 14 13 11 10 9 7 10 11 11 13 16 17 18 17 17 17
8 7 6 6 6 5 6 6 7 8 8 10 11 12 12 12 13 13 13 13 12 12 11 13 13 14 14 12 13 12 10 7 7 6 9 11 10 10 13 14 16 16 16 14 14
7 7 6 6 6 6 6 5 8 10 10 11 12 12 11 12 12 12 12 12 12 11 11 10 10 12 13 12 12 12 11 8 11 8 10 11 11 13 14 15 16 15 15 14 13
8 7 6 6 6 6 7 7 8 8 11 11 13 11 11 11 11 12 12 12 12 12 10 8 11 13 13 13 13 11 9 11 9 9 5 9 11 13 15 15 14 14 13 12 12
8 7 6 7 7 7 7 8 8 9 13 13 10 11 11 11 11 12 12 13 13 12 13 12 10 12 13 13 13 12 11 8 4 5 9 10 10 14 15 16 14 14 14 13 13
7 6 8 8 8 7 8 7 10 13 13 13 11 12 13 12 10 11 11 12 12 13 12 13 10 11 12 11 11 11 9 9 9 8 7 10 11 12 15 15 14 13 13 12 13
5 4 8 8 6 7 8 7 9 11 12 13 13 12 12 11 11 11 10 11 12 13 12 14 10 6 10 12 11 11 11 10 7 8 6 7 10 14 13 15 14 16 15 14 13
4 5 8 7 6 9 9 10 11 12 12 14 13 13 12 11 11 12 13 13 13 13 12 13 9 6 10 11 11 11 11 11 11 10 7 9 11 14 12 15 16 15 15 14 14
5 5 5 6 7 9 9 10 12 13 13 14 12 13 13 13 13 12 12 13 13 14 14 13 9 8 9 9 10 9 11 11 10 8 9 10 12 14 14 15 15 14 13 13 11
4 6 7 6 8 9 9 11 12 12 13 13 14 14 14 13 12 11 12 12 12 13 13 12 8 8 9 10 10 10 10 10 8 11 9 12 12 13 14 15 14 11 11 13 12
6 7 8 7 8 10 10 12 12 12 12 13 13 13 14 13 13 12 11 11 12 12 11 10 6 9 8 9 9 9 10 10 11 12 12 12 11 14 14 15 14 10 9 9 11
6 6 7 8 8 9 10 12 13 13 13 13 13 12 12 12 12 12 13 12 11 10 10 10 8 8 7 10 10 9 10 11 12 12 11 12 13 13 13 13 10 8 8 7 9

GFSSW_925_temp_027.txt.gz
Temp
9 9 9 9 10 9 9 9 10 10 10 10 10 11 11 11 11 11 12 12 14 15 15 16 16 16 17 16 17 15 14 14 17 17 19 21 22 22 22 22 23 23 21 22 23
9 9 9 9 9 9 9 9 9 10 9 10 10 11 11 11 11 12 12 12 13 15 15 15 15 15 14 16 16 15 13 16 17 18 20 20 20 19 21 20 23 23 22 21 22
9 9 8 9 9 9 9 8 9 9 9 9 10 10 11 11 11 13 13 13 14 14 15 15 16 16 15 15 16 15 15 17 18 19 20 19 19 21 20 20 21 22 20 20 20
8 8 8 9 9 8 8 8 8 9 9 9 9 9 10 11 12 15 15 14 14 14 15 15 15 14 14 15 16 16 16 18 18 20 19 19 20 20 20 19 20 19 19 21 21
8 8 8 8 8 7 8 8 8 9 8 9 9 9 10 11 12 15 15 15 14 15 14 14 14 14 15 15 16 16 17 18 18 18 18 19 18 18 18 18 19 19 19 19 19
8 8 7 7 8 7 7 8 8 8 8 8 9 9 10 11 14 15 15 14 15 15 14 14 14 15 15 16 15 16 16 17 18 18 18 18 17 17 18 17 17 18 18 17 18
7 7 7 7 7 7 7 7 7 8 8 8 8 8 10 12 14 15 15 15 14 15 13 15 15 16 15 16 16 17 17 17 17 17 17 18 17 15 17 17 17 17 16 16 16
7 7 7 7 7 7 7 7 7 7 7 8 8 9 11 12 14 14 15 15 15 15 15 15 15 16 16 16 16 16 15 15 17 17 17 18 17 17 17 16 16 16 16 15 16
7 7 7 7 7 7 7 7 7 7 7 8 8 9 11 13 13 15 15 14 14 14 15 15 15 15 16 14 14 14 13 14 16 17 17 16 15 18 17 17 16 16 16 15 15
7 7 7 7 7 7 6 6 7 7 7 7 8 10 10 12 14 14 15 15 15 13 14 14 13 13 12 13 14 14 14 14 15 17 16 15 14 16 17 16 15 14 14 15 16
7 7 7 7 7 6 6 7 6 7 7 9 10 11 11 13 15 14 15 14 13 13 14 13 14 14 13 13 14 14 14 14 15 16 15 14 14 15 15 15 14 14 15 16 16
7 7 6 7 7 6 6 5 6 6 6 9 9 11 13 14 13 13 15 14 13 13 13 13 13 14 15 15 15 15 14 13 14 14 15 13 13 15 16 16 17 17 18 18 16
6 6 6 6 6 6 6 6 7 7 7 9 10 11 13 14 13 13 15 14 13 13 14 14 14 13 14 14 14 14 13 14 14 13 13 12 13 15 15 15 15 16 17 17 17
6 6 6 6 5 6 5 6 6 6 7 10 10 12 13 13 12 14 15 15 14 13 14 14 14 13 13 14 14 13 14 14 13 13 12 12 11 11 14 13 14 13 13 13 14
7 7 6 6 5 6 6 6 6 6 9 8 10 11 13 13 12 13 15 15 14 13 14 12 14 13 13 14 15 14 13 13 12 10 11 11 10 11 12 14 15 14 14 13 13
6 6 6 6 5 5 6 5 5 7 10 9 10 11 12 12 12 13 14 15 15 13 14 13 14 14 14 13 14 13 12 10 9 9 7 10 10 11 13 15 14 13 13 12 12
6 7 6 6 5 5 6 5 7 8 8 10 11 12 13 12 13 13 13 13 12 12 11 13 12 13 13 12 13 12 11 8 8 6 9 10 10 12 13 13 14 13 12 12 11
6 7 7 6 6 6 6 7 8 9 10 11 12 12 11 12 12 12 12 12 12 11 11 11 11 12 13 13 12 12 11 9 11 9 9 10 11 13 13 14 15 13 13 12 11
8 7 6 5 6 6 6 7 8 8 11 11 13 10 10 11 12 11 12 12 12 12 10 10 11 12 13 13 13 11 8 11 8 8 6 9 10 12 13 14 13 13 13 12 12
8 7 7 7 6 6 6 9 9 8 12 11 9 11 11 10 11 11 12 13 13 12 12 11 10 12 12 13 12 12 10 8 4 7 9 10 9 11 14 14 13 13 11 11 11
7 6 8 8 8 5 7 8 10 12 12 12 10 11 11 11 11 11 11 12 13 12 12 12 10 11 12 11 10 10 8 8 8 7 7 9 11 10 13 14 13 12 14 13 11
5 4 8 8 6 7 8 8 10 10 12 12 12 12 11 11 11 11 10 11 12 11 12 13 9 7 10 11 11 11 10 9 7 7 5 6 10 12 12 13 13 14 13 14 13
4 4 8 8 7 9 9 9 9 11 13 13 12 13 12 11 11 11 11 13 11 12 11 12 8 5 9 10 10 11 10 10 9 7 5 8 10 13 11 14 14 15 15 13 12
4 5 5 5 6 9 8 10 11 12 13 12 12 12 12 12 12 11 12 12 12 13 13 13 9 8 8 9 8 8 10 10 9 7 8 9 10 13 14 14 15 15 11 11 11
4 6 6 6 8 7 9 10 11 11 12 13 13 13 13 12 12 11 11 12 12 13 12 11 8 7 9 10 10 10 11 10 8 10 9 12 11 13 14 14 14 13 11 10 9
6 7 8 6 6 8 9 11 11 12 12 13 13 13 14 12 12 11 11 11 12 12 11 10 7 8 7 9 9 9 9 9 10 10 10 11 11 13 13 11 13 10 9 8 7
5 6 7 8 6 8 9 11 12 12 13 12 12 11 12 12 12 12 12 11 12 10 10 9 8 8 8 9 9 9 9 10 10 11 11 10 12 12 12 13 11 9 8 7 7

GFSSW_925_temp_030.txt.gz
Temp
9 9 9 9 9 9 9 9 10 10 10 10 10 10 11 12 11 11 11 12 13 15 14 15 15 15 16 16 15 14 14 13 16 17 19 20 21 20 20 21 21 23 22 21 20
9 9 9 9 9 9 9 9 9 9 9 9 9 10 10 10 11 11 12 12 13 14 14 14 14 15 14 15 15 15 13 15 17 17 19 19 20 19 21 18 21 22 19 19 18
8 8 8 8 8 8 8 9 8 9 9 9 9 9 10 10 11 12 14 13 13 14 15 15 15 15 14 14 15 15 15 16 18 18 19 19 19 20 20 21 20 21 18 19 17
8 8 8 8 8 8 8 8 8 8 9 9 9 9 9 10 12 15 14 13 14 14 14 14 14 14 14 14 15 16 16 17 18 19 18 19 19 19 19 19 20 19 19 19 20
9 8 8 8 8 8 8 8 8 8 8 9 9 9 9 11 11 14 14 14 14 14 14 14 14 13 14 15 15 15 16 17 17 18 18 18 18 17 17 17 17 18 18 19 19
9 8 8 7 7 7 7 7 8 8 8 8 8 8 9 11 14 14 15 15 14 13 13 14 14 14 15 14 15 15 16 17 17 17 18 17 17 16 17 17 16 16 17 17 17
8 7 7 7 7 7 7 7 7 8 8 8 8 8 9 11 13 14 15 14 14 13 13 15 15 15 14 15 15 16 17 16 16 17 17 16 16 15 16 17 16 16 15 16 16
7 7 7 7 7 7 7 7 7 7 8 8 8 8 10 12 13 13 13 14 14 14 14 15 15 15 15 16 15 15 15 15 16 16 17 17 16 17 17 15 15 15 14 14 15
7 7 7 7 7 7 7 7 7 7 7 8 8 8 11 11 12 13 13 14 14 14 15 15 15 15 15 13 14 14 13 13 16 16 17 15 15 17 16 16 14 14 14 15 14
7 7 7 7 7 7 6 7 7 7 7 7 8 8 10 11 11 13 13 14 14 14 14 14 14 12 12 14 13 14 14 14 14 16 15 15 13 15 15 15 14 14 13 13 14
7 7 7 7 7 7 7 7 5 6 7 7 9 11 11 12 13 13 13 13 12 13 13 13 13 14 14 13 14 13 14 14 14 15 15 14 13 14 15 14 13 14 14 15 16
7 6 6 6 6 6 7 5 5 6 5 9 9 10 11 12 12 12 14 13 13 12 13 12 13 14 13 14 14 14 14 13 13 14 15 13 12 14 15 15 15 16 16 16 16
7 7 6 6 6 6 6 6 6 6 6 8 9 10 11 12 12 12 13 13 13 13 13 13 13 14 15 15 15 14 13 13 14 13 12 11 13 13 15 15 15 14 14 14 14
6 6 6 6 6 6 5 6 6 6 7 7 9 11 11 13 12 13 13 13 13 13 13 12 13 14 14 14 14 13 14 14 13 13 12 11 12 12 13 12 13 13 11 11 12
6 7 6 6 6 6 5 6 6 6 9 8 10 11 12 12 12 13 13 14 13 12 13 12 12 12 13 13 14 14 13 12 11 10 11 11 10 12 12 15 15 13 11 11 10
6 6 6 6 6 6 6 6 6 5 8 9 10 12 11 12 12 13 13 14 13 12 12 12 13 13 13 12 14 13 12 10 8 9 7 10 10 12 14 14 13 12 11 10 10
6 6 6 5 5 6 6 5 6 9 8 10 11 12 11 12 13 13 13 12 12 11 11 12 12 13 13 12 12 12 12 8 9 6 9 9 10 11 12 12 13 13 12 11 10
8 7 6 6 6 6 6 7 8 10 11 11 12 11 11 11 12 13 13 12 11 11 11 11 12 13 13 12 12 12 11 8 11 8 10 9 10 13 13 14 13 13 12 11 12
9 8 7 6 6 6 6 8 7 8 11 11 12 11 10 11 12 11 11 11 12 11 10 9 10 12 12 12 12 11 8 10 7 6 6 9 10 12 12 12 13 13 11 11 10
8 7 7 7 6 5 5 10 9 9 12 10 9 10 10 11 11 11 11 13 12 12 12 11 10 11 12 12 11 12 10 9 5 8 10 10 9 11 13 14 12 12 10 12 12
7 5 8 8 7 6 7 8 11 12 11 12 10 11 10 10 11 11 11 12 13 11 12 10 10 11 12 11 10 10 8 8 7 7 8 10 12 10 12 14 13 11 11 11 10
4 5 9 8 6 8 9 9 10 10 11 12 11 11 10 11 10 11 10 12 12 11 12 12 9 6 11 10 10 10 10 8 6 7 5 6 9 12 11 11 12 14 11 12 12
4 4 9 8 7 8 8 9 9 11 12 12 12 12 11 10 11 11 11 12 11 12 11 11 8 6 9 10 10 10 10 9 8 6 4 7 11 12 11 11 13 14 13 11 12
4 5 5 5 5 9 9 9 11 11 12 12 11 12 12 12 11 10 11 11 11 12 13 12 9 8 8 9 8 8 9 9 9 4 8 8 9 12 13 12 14 14 11 10 10
3 6 6 7 7 7 8 9 11 11 11 12 12 12 12 11 11 11 11 12 12 13 11 11 7 7 9 9 9 9 10 9 8 9 8 10 9 11 12 12 14 12 11 10 7
5 7 8 7 5 8 8 10 11 11 11 12 11 12 13 11 11 10 10 11 12 11 11 9 8 8 6 9 8 8 9 9 9 10 10 11 10 13 12 12 12 12 8 8 8
5 6 6 7 6 8 8 10 11 11 12 11 12 11 12 12 11 11 11 11 12 10 9 10 7 6 6 8 9 9 9 9 10 10 11 10 12 12 11 13 11 9 7 7 6

GFSSW_925_temp_033.txt.gz
Temp
9 9 9 9 9 9 9 9 9 9 10 10 10 9 10 10 11 11 11 12 13 13 14 14 14 15 16 15 15 14 17 16 18 17 19 19 20 20 20 21 21 22 22 20 19
9 8 8 9 9 9 8 8 9 9 9 9 9 9 10 9 10 11 12 12 13 14 14 14 14 15 15 15 15 16 16 16 17 18 19 19 20 20 21 20 21 21 20 17 17
9 9 8 8 8 8 8 8 8 9 8 9 9 9 9 9 11 12 13 13 13 14 14 14 14 15 15 14 15 15 16 17 18 18 19 19 19 19 20 20 20 20 20 19 17
8 9 8 8 8 8 8 8 8 8 8 8 9 9 9 9 12 13 13 13 13 14 14 14 14 15 14 14 15 16 16 17 18 18 18 18 19 19 19 20 20 19 19 20 19
8 8 8 8 8 8 8 8 8 8 8 8 9 9 8 10 11 14 12 14 13 14 14 14 14 14 16 15 15 16 16 17 18 17 18 18 18 19 18 18 18 18 18 20 20
7 7 7 7 7 7 7 8 8 8 8 8 8 8 8 9 12 12 11 14 13 13 14 14 15 15 15 15 16 16 17 17 17 17 18 17 17 17 18 17 18 17 18 19 19
7 7 7 7 7 7 7 7 8 8 8 8 8 8 8 10 11 12 12 14 13 13 14 14 16 15 14 14 15 15 16 16 16 17 17 17 17 16 18 18 18 18 17 18 18
7 7 7 7 7 7 7 7 7 7 7 8 8 8 8 11 12 11 13 14 13 13 14 15 16 15 15 15 15 15 16 15 16 16 17 18 17 18 17 16 17 17 16 16 17
7 7 7 7 7 7 7 7 7 7 7 7 8 8 9 11 11 13 13 13 13 13 14 14 15 15 15 14 14 14 13 14 16 16 16 16 15 17 16 16 17 17 17 16 16
7 7 7 7 7 7 7 7 7 7 7 7 7 8 10 11 11 13 13 12 13 12 14 14 13 13 12 14 14 13 14 14 15 16 15 15 14 15 16 15 16 16 16 16 16
7 7 7 7 7 7 7 7 6 6 7 7 8 9 11 11 12 12 13 13 14 13 13 13 13 14 15 14 13 14 14 14 14 15 15 14 14 15 16 15 15 16 16 17 17
7 7 6 6 6 6 6 5 5 6 5 8 9 9 10 11 11 11 11 13 12 12 13 13 13 14 14 13 14 14 13 13 14 14 14 13 14 15 16 15 15 16 16 16 15
6 7 7 6 6 6 6 5 6 6 6 8 9 9 11 12 12 11 11 12 12 12 14 14 14 14 14 14 14 13 13 13 14 13 12 12 14 15 15 14 15 13 12 13 13
6 6 6 6 6 6 5 5 6 6 7 8 9 10 11 12 12 12 10 12 12 10 12 13 13 14 14 14 15 14 14 13 13 13 14 12 15 14 13 14 14 12 12 12 12
6 6 6 6 6 5 5 5 6 6 10 7 9 10 11 12 12 12 11 14 13 12 12 11 13 13 14 14 15 13 13 12 11 11 11 12 13 15 13 15 14 12 12 12 12
7 7 7 7 6 5 5 6 6 5 9 9 10 11 11 12 11 11 12 13 12 12 12 11 12 12 11 12 12 12 12 10 9 10 11 11 12 15 14 14 14 13 12 12 12
8 8 8 7 4 6 6 5 5 8 8 10 10 12 11 12 12 13 12 11 12 11 11 11 12 13 11 11 12 13 13 11 11 10 13 9 10 13 13 13 13 14 13 12 11
8 8 8 8 7 6 5 4 9 10 11 11 11 11 11 11 11 13 13 11 11 12 10 12 11 12 13 12 11 12 12 11 13 12 12 9 11 15 12 12 13 13 12 11 12
8 8 8 7 6 6 5 9 6 9 12 12 11 11 11 11 12 11 11 11 12 11 11 10 10 12 11 12 12 11 10 10 8 6 9 11 11 12 13 12 13 13 12 12 13
8 7 7 7 6 6 7 10 9 9 12 11 10 11 10 11 11 11 11 12 11 12 11 11 9 11 11 12 11 12 10 10 7 10 12 11 11 14 13 14 13 13 12 12 12
7 6 9 8 7 5 8 8 10 11 11 11 10 10 9 10 10 10 11 12 12 11 11 10 10 11 12 11 10 10 9 8 9 9 11 12 14 11 13 13 13 12 13 12 12
4 6 9 8 6 7 8 8 9 10 11 12 11 11 10 10 10 10 11 11 12 12 12 11 9 8 11 10 10 10 10 9 10 9 7 8 12 12 12 11 11 12 12 12 11
4 4 9 8 9 8 9 10 9 10 11 12 12 12 11 10 11 11 11 11 11 12 11 11 8 7 9 10 10 10 9 9 8 7 7 10 13 11 11 12 12 12 12 11 10
4 5 5 4 4 9 9 10 10 10 11 11 11 11 11 11 10 10 11 11 11 12 12 11 9 8 9 9 8 8 9 9 9 8 9 9 10 12 13 12 13 13 11 10 9
3 6 6 6 6 6 7 9 10 11 11 12 12 12 12 11 11 10 11 11 11 12 10 11 8 7 9 10 9 9 10 9 8 9 10 11 9 12 12 12 12 12 10 9 8
5 6 8 7 5 6 8 10 11 11 11 12 11 11 12 11 11 10 10 10 11 11 10 9 8 8 6 9 8 8 9 9 9 10 10 10 11 13 13 11 12 10 8 7 7
4 5 6 7 5 6 8 9 11 10 11 11 10 11 12 12 11 11 10 10 11 10 9 10 7 6 7 9 9 9 9 9 10 9 11 10 12 12 12 12 11 9 7 6 6

GFSSW_925_temp_036.txt.gz
Temp
9 9 9 9 9 8 8 9 9 10 10 10 10 10 10 10 9 11 12 14 13 13 14 14 14 16 17 19 19 20 22 23 23 23 25 24 24 24 24 26 26 27 26 24 22
9 9 9 9 8 9 8 8 8 9 9 9 9 9 9 9 10 12 12 13 13 13 14 15 15 17 18 19 20 21 22 24 25 25 24 24 24 25 24 24 25 26 25 21 20
9 8 8 8 8 8 8 8 8 8 9 9 9 9 9 9 12 14 13 13 13 14 14 15 16 17 17 18 19 21 22 24 22 23 23 24 24 24 25 24 26 26 24 23 20
8 8 8 8 8 8 8 8 8 8 8 8 8 9 9 10 13 12 12 13 13 14 15 15 16 16 18 17 19 19 21 22 22 21 21 23 24 23 24 26 25 24 23 24 23
8 8 7 7 8 8 8 8 8 8 8 8 8 9 9 11 13 11 12 12 13 14 15 17 17 16 18 18 18 19 19 20 21 20 21 21 22 23 23 24 24 23 22 24 24
9 8 7 7 7 7 7 8 8 8 8 8 8 9 9 9 13 12 11 13 14 15 15 16 18 18 18 18 19 19 19 20 21 20 20 20 21 21 23 23 23 23 23 24 24
8 8 7 7 7 7 7 7 8 8 7 7 8 8 9 11 11 11 11 12 13 15 16 16 18 18 18 17 19 19 18 19 19 20 20 20 20 20 23 24 23 24 24 24 24
8 8 7 7 7 7 7 7 7 7 7 8 8 8 9 11 11 10 11 13 13 15 15 15 17 18 18 18 18 18 19 17 20 20 20 20 21 21 21 22 22 23 23 23 23
7 7 7 7 7 7 7 7 7 7 7 7 8 9 10 11 10 11 11 12 14 14 14 15 17 18 17 18 17 18 19 19 19 19 20 20 21 22 21 20 21 22 23 23 22
7 7 7 7 7 7 7 7 7 7 7 8 8 9 11 12 12 11 11 11 14 14 14 14 15 16 18 18 17 18 18 18 19 18 18 19 20 20 20 20 21 22 23 23 23
7 7 7 6 7 7 7 7 9 9 8 10 10 9 12 13 12 10 12 12 14 14 13 14 15 15 17 18 19 19 18 18 18 17 18 19 19 20 20 21 21 21 23 23 23
7 7 6 7 7 7 7 8 7 7 8 9 9 9 9 11 13 12 12 12 14 14 14 13 14 17 18 17 17 18 18 18 17 17 18 18 18 20 20 20 20 20 20 21 21
6 6 7 7 7 7 6 6 6 6 9 9 8 9 11 14 14 12 12 10 14 13 14 14 15 17 17 16 17 17 17 16 18 16 16 17 19 19 17 18 17 17 17 18 19
6 6 7 7 7 6 6 5 6 6 8 8 9 10 12 13 12 11 11 11 11 12 14 14 15 16 16 17 18 16 16 16 16 17 18 16 21 20 18 17 17 17 18 18 18
8 7 7 7 6 7 5 5 5 7 12 8 9 10 12 12 11 11 11 11 11 11 12 12 14 15 16 17 18 17 16 16 15 16 16 16 18 19 18 18 17 18 17 17 17
7 8 8 8 6 6 6 6 6 9 11 10 10 11 12 11 12 12 12 12 11 11 12 11 12 12 13 12 16 15 15 14 15 15 15 16 16 19 19 19 17 17 17 17 17
6 8 8 8 8 7 6 7 10 12 9 11 11 12 12 12 12 13 12 12 12 11 11 9 10 10 11 11 12 14 16 15 15 14 17 13 14 19 18 17 18 18 18 18 17
7 8 8 8 7 6 6 9 12 11 12 12 13 14 12 12 11 12 11 12 14 14 12 13 12 11 10 10 11 14 16 17 17 17 17 13 16 19 17 17 16 17 17 17 17
8 8 7 8 6 6 9 11 10 10 13 13 14 13 13 13 14 14 14 14 14 15 15 14 12 13 12 12 12 11 13 14 14 12 15 18 16 16 16 16 16 17 17 17 17
7 7 8 7 6 7 11 10 10 10 12 13 13 13 13 13 14 15 15 14 13 14 14 13 12 12 12 13 13 14 14 14 13 14 17 18 17 19 16 17 17 17 17 17 17
7 11 8 8 7 12 9 10 11 12 13 13 13 13 13 13 13 14 14 13 14 13 14 14 14 12 13 13 14 13 14 13 14 14 17 18 19 18 19 18 18 18 17 16 16
7 12 9 8 12 11 10 10 10 12 13 13 13 13 13 13 13 14 14 14 14 15 15 13 14 12 12 12 12 13 14 15 16 13 12 14 18 17 18 17 16 17 17 16 15
8 9 10 8 13 13 12 12 12 13 13 13 13 13 13 13 13 13 13 13 13 14 14 14 13 11 11 12 12 12 13 13 13 13 12 16 19 16 16 17 18 16 16 15 13
8 11 11 10 9 12 12 13 13 12 13 13 13 13 13 13 13 13 13 12 13 13 13 14 12 12 15 13 13 11 12 13 13 12 14 15 16 17 17 18 17 17 16 14 13
7 7 7 10 11 10 10 11 12 13 12 13 13 14 14 13 13 13 13 12 12 13 13 14 11 10 12 12 11 12 12 12 11 14 14 16 15 17 17 17 17 16 15 13 12
7 7 8 8 8 9 10 12 12 13 12 13 13 13 14 14 15 13 14 13 14 13 13 12 10 9 10 11 11 11 12 13 12 13 13 14 14 17 18 17 16 15 13 12 10
4 6 7 8 9 10 11 11 12 11 13 12 14 14 14 14 14 14 14 15 14 14 13 13 10 10 12 11 12 12 12 13 13 13 14 13 15 17 15 15 15 14 11 10 9

GFSSW_925_temp_039.txt.gz
Temp
9 10 9 9 9 9 9 9 9 9 9 10 10 10 10 10 10 9 11 13 15 15 14 16 15 16 18 20 22 23 21 21 24 26 27 28 27 28 28 28 28 30 29 26 25
9 9 9 8 9 9 9 9 9 9 9 9 9 10 9 9 11 12 11 13 15 14 16 17 17 18 18 20 21 21 22 24 27 27 26 27 26 28 26 27 28 28 27 25 24
9 9 9 8 8 8 8 8 8 9 9 8 8 9 9 10 13 15 14 13 14 14 15 18 18 18 18 20 21 21 22 25 26 25 26 26 25 27 26 26 28 28 28 26 24
9 9 8 8 8 8 8 8 8 8 9 8 9 9 9 11 13 17 14 13 13 14 15 17 19 17 19 19 21 21 23 25 26 23 23 24 26 26 26 27 28 28 26 26 26
8 8 8 8 8 8 8 8 8 8 8 8 8 9 10 12 14 13 12 13 13 14 16 17 19 18 18 20 21 20 23 23 23 22 22 24 25 26 26 26 26 25 24 25 26
8 8 8 7 8 7 7 8 8 8 8 8 8 8 10 11 14 13 12 13 13 14 17 18 19 19 19 20 21 21 22 22 23 21 22 22 24 24 25 26 26 25 25 26 26
9 8 8 8 8 8 8 8 8 8 8 8 8 9 11 12 13 11 11 12 13 14 18 18 19 19 20 18 21 20 21 21 22 21 21 22 22 23 25 26 25 26 26 26 26
8 8 8 8 8 7 7 7 7 7 7 8 8 9 10 12 12 12 10 12 13 14 17 18 19 20 19 20 19 19 20 19 21 21 21 21 21 24 25 24 25 26 26 26 26
8 8 7 7 7 7 7 7 7 7 8 8 9 10 11 12 12 12 11 12 13 14 17 17 16 19 19 18 18 19 19 19 20 21 21 20 21 24 24 23 24 25 26 26 26
7 7 7 7 7 7 7 8 8 8 8 8 9 10 12 13 13 11 12 11 13 16 15 14 15 17 18 19 18 19 19 21 21 20 20 21 21 23 23 23 23 24 25 25 25
7 7 7 7 8 8 8 9 10 10 10 11 11 10 11 14 12 12 12 11 15 14 14 13 15 16 18 20 21 22 20 21 22 20 19 20 21 22 23 22 23 24 24 25 25
6 6 7 6 7 8 9 10 8 7 10 11 10 10 10 10 11 12 12 12 15 13 17 13 13 18 20 20 20 20 20 20 20 20 19 21 20 21 22 22 23 23 24 24 24
6 7 7 7 7 8 8 7 7 7 7 8 8 8 11 10 11 11 11 11 15 14 15 14 14 18 18 19 19 19 19 19 19 18 19 19 19 20 22 20 20 20 20 21 22
7 6 7 7 8 8 8 6 6 6 9 8 9 11 12 11 11 11 10 10 12 15 16 14 16 17 17 17 19 19 20 19 17 18 19 19 21 21 20 19 19 19 20 20 20
6 6 7 8 9 9 7 6 7 8 12 9 10 11 14 14 12 11 11 11 11 12 12 12 14 16 17 18 20 18 18 18 17 18 18 18 19 22 20 18 19 19 19 19 19
6 7 7 8 8 8 7 7 8 9 11 11 12 13 13 14 12 11 11 12 10 12 12 12 12 14 17 16 19 18 17 17 17 17 16 19 20 21 20 20 19 19 20 20 20
6 6 7 8 10 7 7 8 10 13 10 11 12 12 12 12 12 12 12 10 10 11 11 10 9 11 13 15 16 17 17 16 15 15 17 17 16 22 21 22 20 20 20 20 19
6 7 8 8 8 7 8 10 13 11 13 14 15 13 12 12 12 12 12 12 12 13 12 12 11 9 10 13 14 16 17 17 17 18 19 15 16 20 20 20 20 20 19 19 19
8 9 9 9 7 6 9 11 11 10 14 15 16 15 14 15 13 14 15 13 13 15 13 13 12 10 10 11 14 12 13 16 16 16 18 18 19 18 18 18 18 19 18 19 19
8 10 12 8 7 8 13 11 12 13 15 15 15 16 16 16 16 16 17 16 15 16 16 16 12 13 11 11 10 12 15 15 15 16 18 19 20 20 17 18 18 18 19 19 18
9 13 10 8 7 13 11 10 14 14 15 15 15 15 16 16 16 17 16 15 16 16 17 17 16 13 14 13 13 11 11 14 16 16 17 20 20 21 19 19 18 19 19 18 17
10 12 9 8 13 15 13 14 12 15 15 15 15 15 16 16 16 16 16 16 16 17 17 15 15 13 14 14 14 15 16 17 17 15 16 16 18 19 20 19 18 18 18 18 16
11 13 10 10 14 14 14 14 14 15 15 15 15 15 15 16 15 16 16 15 15 16 16 16 14 12 12 14 14 14 15 16 16 15 14 17 18 19 19 18 19 18 18 17 16
10 11 14 15 14 16 15 15 15 14 15 15 15 15 15 15 16 15 15 14 15 15 13 16 15 14 16 14 15 13 15 15 14 14 16 17 18 18 18 19 19 18 18 17 15
11 10 9 13 14 14 14 14 15 15 14 15 15 15 16 15 16 15 15 14 14 13 15 16 12 11 14 15 14 13 14 15 13 14 15 18 18 19 19 19 19 18 17 15 14
8 7 9 11 10 12 12 14 14 15 14 15 14 16 16 16 17 16 15 15 15 14 15 14 11 11 11 14 13 12 14 15 14 14 15 16 16 19 19 19 18 17 16 14 13
6 7 7 11 12 13 14 14 14 13 14 14 15 16 15 16 16 16 17 17 16 15 15 14 11 11 13 14 13 13 14 14 15 15 15 15 17 18 17 17 16 16 14 13 12

GFSSW_925_temp_042.txt.gz
Temp
10 10 9 9 9 9 9 9 9 9 9 9 10 10 10 10 10 10 10 12 14 15 15 16 15 16 17 19 20 18 17 17 19 21 24 28 27 27 28 27 29 28 24 24 22
10 10 10 10 9 9 9 9 9 9 8 9 10 9 9 9 10 12 12 13 13 15 15 17 16 16 17 18 19 18 17 18 19 23 24 26 26 27 26 25 26 26 25 24 22
9 9 9 9 9 9 8 8 8 8 8 8 8 8 8 9 11 13 14 12 13 14 15 17 17 17 17 18 19 19 19 21 22 23 22 25 25 26 25 24 25 26 24 24 23
9 9 9 9 8 8 8 8 8 8 8 8 8 8 8 9 11 14 15 13 14 14 15 17 18 17 17 17 19 19 20 21 23 22 22 23 25 24 25 25 25 23 24 25 24
9 9 8 8 8 8 8 8 8 8 8 8 8 7 8 10 12 14 15 14 14 13 16 16 18 17 17 18 20 19 21 22 23 21 22 23 23 24 24 25 25 23 23 25 26
9 9 8 8 8 8 8 8 8 8 8 8 8 8 10 10 14 14 13 13 13 13 16 16 18 19 19 20 19 20 21 21 22 21 22 22 23 24 24 24 24 24 24 23 24
8 8 8 8 8 8 8 8 8 8 8 8 8 9 10 11 14 12 12 12 13 14 16 17 19 19 19 19 20 21 19 20 21 20 21 21 20 21 23 25 23 23 23 23 23
8 8 8 8 8 8 7 8 7 8 8 8 8 9 10 12 12 13 12 11 12 13 15 17 19 19 19 19 19 19 19 18 20 20 21 20 19 21 23 22 22 23 22 23 23
7 7 7 7 7 7 7 7 8 8 8 8 9 10 11 13 12 13 12 12 14 13 14 17 17 18 18 16 16 17 17 17 19 20 20 19 20 22 23 22 21 21 22 23 23
7 7 7 7 7 7 8 8 8 8 8 9 10 10 12 13 13 13 11 11 13 14 14 16 15 15 16 16 15 16 17 19 18 19 19 19 18 21 22 22 20 21 22 22 23
7 7 7 7 8 8 8 9 9 10 10 10 9 10 10 10 13 12 11 11 12 12 14 14 14 14 15 17 18 19 18 18 20 20 19 18 19 20 20 20 20 20 20 21 22
7 7 6 7 8 8 8 10 8 8 9 11 11 11 10 10 11 11 10 11 13 13 14 13 13 16 18 18 19 19 18 18 20 19 19 19 19 20 20 20 20 20 20 20 22
7 7 6 7 8 8 7 7 7 7 6 9 9 8 10 9 11 10 10 11 13 14 14 14 15 18 18 18 18 18 18 18 18 18 18 18 17 18 20 20 20 20 19 19 19
6 7 7 7 7 9 9 7 7 7 8 9 10 10 11 11 11 11 10 11 12 14 15 15 16 16 17 18 19 18 19 20 18 16 15 17 16 18 19 18 19 18 17 18 19
6 6 7 7 7 10 8 7 8 7 11 9 10 10 11 11 11 11 10 11 13 14 13 13 14 13 15 17 19 19 18 17 17 16 16 17 15 20 17 17 17 17 17 17 18
6 6 7 9 8 9 8 8 8 9 11 10 11 11 11 12 12 11 11 11 12 12 13 11 12 13 15 16 18 18 16 16 17 16 12 16 16 17 17 18 17 17 17 17 17
5 6 6 8 10 8 7 7 9 11 10 12 12 13 13 12 12 12 11 10 11 11 11 10 10 11 12 14 16 17 15 12 12 12 12 16 16 17 19 18 18 17 17 17 17
9 8 8 8 9 8 7 8 11 11 13 14 14 14 13 13 12 12 11 11 11 12 11 12 11 10 10 13 13 15 15 13 15 13 13 15 14 17 18 18 18 18 17 17 17
9 10 9 10 8 7 7 11 10 11 15 15 15 14 14 14 13 12 12 12 12 13 12 12 11 10 10 12 13 14 12 15 13 16 12 13 17 17 17 17 17 17 17 17 17
7 11 12 9 8 7 10 11 12 14 15 16 15 15 16 16 16 15 14 13 14 14 15 14 11 10 10 11 11 12 14 14 11 12 15 15 16 15 15 16 16 16 16 17 17
8 12 9 9 8 10 11 10 14 15 15 15 16 16 17 16 16 17 16 16 17 16 16 17 14 11 10 10 11 11 11 12 14 13 12 15 16 18 16 16 16 16 17 17 16
8 11 10 9 11 13 12 14 14 15 15 16 16 16 16 16 16 16 16 16 17 17 16 15 13 12 13 14 15 13 13 14 12 13 12 12 14 19 16 16 17 17 17 16 15
9 12 10 11 12 14 14 14 15 15 16 16 16 15 16 16 15 16 15 15 16 16 15 15 12 11 12 13 13 13 15 14 13 13 13 13 14 17 16 16 16 16 17 15 14
9 10 12 12 14 14 15 15 15 14 15 15 16 16 15 16 16 15 15 15 15 15 14 15 14 12 11 12 13 12 14 14 12 11 14 14 15 16 16 16 16 16 16 15 13
11 9 9 10 12 11 14 14 15 15 14 15 15 15 16 15 15 15 15 13 14 13 15 14 10 10 13 14 13 13 13 14 11 12 11 16 16 16 15 16 16 16 15 14 13
8 7 8 9 11 12 12 15 15 15 15 15 14 16 16 16 16 16 15 14 14 13 14 14 10 10 10 14 13 12 13 13 14 13 13 14 14 17 18 18 16 16 14 14 12
7 7 7 9 11 12 12 12 13 14 14 15 14 15 15 14 15 15 16 16 15 13 13 13 9 9 11 13 13 10 12 13 13 14 14 12 14 17 16 16 15 15 13 12 11

GFSSW_925_temp_045.txt.gz
Temp
10 10 9 9 9 9 9 9 9 9 9 9 9 9 10 10 10 10 10 12 14 15 16 16 16 15 15 16 16 15 16 16 18 19 20 23 21 26 24 24 24 23 22 20 22
9 9 9 9 9 9 9 9 8 9 9 8 8 8 9 9 9 10 10 12 13 15 15 15 14 15 14 16 16 15 16 17 20 20 20 19 22 23 25 24 23 21 20 21 21
10 10 10 9 9 8 9 8 8 8 8 8 8 8 9 9 9 10 12 12 13 14 15 15 15 14 16 16 15 16 17 19 20 21 19 18 21 23 23 24 23 21 19 19 19
9 9 9 9 8 8 8 8 8 8 8 8 8 8 8 8 9 14 14 13 13 13 14 15 15 13 15 16 18 17 19 19 20 20 17 17 21 21 23 23 21 21 20 19 19
9 9 9 8 8 8 8 8 8 8 8 8 8 8 7 7 9 13 14 14 13 13 14 14 14 14 15 15 17 17 19 20 20 19 17 17 19 21 22 21 21 21 21 21 19
8 8 8 8 8 8 8 8 8 8 8 8 8 8 8 8 12 13 14 14 13 13 14 15 15 15 16 16 16 18 18 19 20 20 21 20 21 21 23 21 21 21 22 23 23
8 8 8 8 7 8 8 8 8 8 8 8 8 8 9 9 12 12 12 12 13 14 13 15 16 16 17 17 17 19 18 18 18 19 20 21 20 20 21 22 22 22 21 22 22
8 8 7 7 7 7 7 7 7 8 8 8 8 8 9 11 12 12 12 11 11 12 14 16 17 16 17 17 18 18 17 16 18 18 20 20 18 19 20 21 21 21 20 20 21
7 7 7 7 7 7 7 8 8 8 8 8 8 8 8 12 12 12 13 11 10 11 12 15 16 17 17 15 15 16 15 16 18 19 19 19 17 19 20 20 20 19 19 20 20
7 7 7 7 7 8 8 8 8 8 8 8 9 9 10 11 11 12 12 11 10 11 12 14 13 14 15 13 14 14 15 16 17 18 18 17 17 19 20 19 18 19 19 19 20
7 7 7 7 7 8 8 9 7 8 9 10 10 9 10 10 12 11 11 11 11 12 12 13 13 14 15 14 15 16 16 17 17 19 17 17 17 19 18 20 18 18 18 19 19
6 7 7 8 8 8 8 7 7 7 7 10 10 10 10 10 10 11 11 10 12 12 12 12 12 14 15 16 16 16 15 15 18 18 18 16 16 17 18 17 18 18 18 18 19
6 6 7 8 8 8 8 7 7 7 7 9 9 8 10 10 10 10 10 11 13 10 13 14 14 15 16 15 16 15 15 16 16 17 17 17 16 17 18 18 18 18 17 18 18
6 6 7 7 8 9 8 7 7 7 8 9 10 10 10 10 10 10 10 10 12 11 14 14 14 15 15 15 16 15 17 18 16 15 14 16 13 15 18 18 18 16 16 17 16
6 6 7 7 8 8 8 8 8 7 10 10 10 9 9 9 10 10 10 11 12 13 14 12 13 14 15 15 17 16 16 15 15 14 15 16 13 14 16 16 16 15 15 14 14
6 6 6 8 8 8 8 7 8 8 10 10 9 10 10 10 11 11 11 12 12 13 12 11 12 12 13 14 16 16 15 14 14 13 10 14 13 14 15 17 15 15 14 14 14
6 6 6 8 9 8 8 7 8 9 11 11 12 12 12 12 12 12 11 11 12 12 11 11 10 11 12 13 14 16 14 12 11 9 11 14 13 16 17 16 16 14 14 14 13
7 8 9 9 8 8 7 8 9 11 12 13 13 13 12 13 12 11 11 11 11 11 11 11 12 11 10 12 13 14 14 12 12 10 12 14 12 15 16 16 17 16 14 14 14
7 8 8 9 8 7 7 7 8 11 14 14 14 13 13 13 13 12 11 11 12 12 12 11 10 10 11 11 12 12 12 14 13 13 10 12 13 16 16 16 16 15 14 14 14
6 8 9 9 8 7 7 9 9 13 14 15 14 15 15 14 13 12 11 13 12 13 13 12 11 10 10 11 11 12 13 12 9 11 13 12 14 14 14 14 15 15 15 14 14
7 7 8 8 8 8 8 9 12 14 14 14 13 15 16 15 15 14 13 13 13 13 14 13 11 10 10 10 12 12 11 12 12 10 11 12 13 15 15 15 14 14 15 14 13
5 8 8 8 8 10 7 11 12 14 14 14 14 14 14 15 15 15 13 14 15 14 14 15 12 11 12 12 12 13 12 12 10 12 10 9 12 15 14 14 14 14 15 14 12
4 6 9 9 11 10 13 13 14 14 14 15 15 15 15 15 14 13 13 14 14 14 14 14 10 10 10 12 11 11 12 13 12 11 10 11 12 14 13 14 15 14 14 13 12
5 6 7 7 8 12 12 13 13 13 14 15 14 15 14 15 15 13 12 14 14 14 14 14 11 10 10 11 11 10 12 13 12 9 12 12 14 14 14 14 14 14 13 12 12
4 7 6 7 8 9 11 14 14 13 13 14 14 14 14 14 15 14 12 12 13 13 14 12 9 9 12 13 12 12 12 13 10 12 12 14 13 14 14 14 14 13 12 12 11
4 4 5 6 8 9 10 11 12 13 13 14 13 14 14 14 14 14 12 12 12 12 13 11 8 8 7 12 12 11 11 12 12 13 12 12 12 15 14 15 14 12 12 12 11
4 4 4 7 8 10 10 10 12 12 13 13 13 12 14 13 13 14 14 13 12 11 11 11 7 5 8 12 12 9 11 11 12 13 13 12 14 15 16 15 13 12 12 11 10

GFSSW_925_temp_048.txt.gz
Temp
10 10 10 10 10 9 9 9 9 9 9 9 9 9 9 9 10 10 9 11 13 15 15 16 16 16 15 15 15 17 16 16 17 17 18 19 18 20 22 23 21 19 20 21 21
10 10 10 10 10 9 9 9 9 8 8 8 8 8 9 9 9 10 10 11 12 14 15 15 13 14 14 15 15 16 16 17 19 20 19 18 18 19 20 21 19 19 19 20 21
9 9 9 9 9 9 9 9 8 8 8 8 8 8 8 9 9 10 11 11 12 13 14 15 15 15 16 14 15 15 17 19 19 20 17 16 18 20 19 21 20 19 19 19 19
9 9 9 9 9 8 8 8 8 8 8 8 8 8 8 9 9 12 11 12 12 12 13 14 13 15 16 15 15 16 18 19 19 19 16 17 18 17 19 21 21 19 18 18 18
8 8 8 8 8 8 8 8 8 8 8 8 8 8 8 8 9 11 11 12 13 13 14 14 13 14 14 15 16 17 18 19 18 16 16 17 16 17 16 19 19 18 19 18 17
8 8 8 8 8 8 8 8 8 8 8 8 7 8 8 7 10 11 11 14 13 12 14 14 13 14 15 15 15 17 18 17 17 17 17 16 16 15 18 20 19 20 19 18 17
8 8 8 7 7 7 7 8 8 8 8 8 8 8 9 7 10 10 11 12 13 12 14 14 15 14 14 15 16 17 17 17 17 18 19 18 16 15 18 20 19 20 20 21 20
8 7 7 7 7 7 7 7 8 8 8 8 8 8 8 11 10 11 11 11 10 11 14 14 15 14 15 16 16 17 16 15 17 18 19 19 18 18 19 19 19 19 18 19 21
7 7 7 7 7 7 7 8 8 8 8 8 8 8 8 11 11 12 12 11 10 10 12 14 14 14 16 14 14 16 14 15 16 18 18 18 18 19 20 18 18 17 18 19 19
7 7 7 7 7 7 8 8 8 8 8 8 8 8 10 10 11 11 11 11 11 11 12 13 13 13 13 14 14 15 14 17 16 17 18 18 16 18 18 17 17 17 17 18 19
7 7 7 7 7 8 8 9 7 7 8 9 9 9 10 10 11 10 11 10 10 11 11 12 13 13 14 14 15 15 15 16 17 17 17 17 17 18 18 17 15 16 16 18 19
7 6 6 7 8 8 8 6 6 7 7 9 9 9 10 10 10 10 11 10 9 11 10 12 13 13 14 15 15 15 15 15 17 18 17 16 17 17 17 16 16 16 16 17 18
6 6 6 7 7 8 8 7 7 7 7 9 9 8 9 10 10 10 11 10 10 10 10 13 14 14 15 14 14 15 14 14 16 16 17 16 15 16 16 16 17 16 16 17 16
6 6 6 7 7 8 8 8 7 7 7 9 9 9 10 10 9 10 9 10 10 11 11 13 14 14 14 14 15 14 15 16 15 14 14 16 13 14 17 16 16 16 14 15 15
6 6 6 6 7 7 8 8 7 7 10 10 10 10 10 10 10 10 10 12 12 10 12 12 13 13 14 15 15 15 16 14 14 13 14 14 13 14 15 14 16 15 13 13 13
6 5 6 7 6 8 8 8 7 5 8 9 9 10 8 10 11 11 11 11 11 12 11 11 12 12 13 14 16 15 14 13 12 11 10 13 13 13 15 15 15 14 13 12 12
5 7 6 7 7 8 7 7 5 8 10 11 11 10 11 12 12 12 11 11 11 11 10 11 11 11 11 13 15 15 13 9 11 10 12 12 12 17 16 15 15 13 12 12 12
7 9 8 8 8 8 8 5 7 10 11 12 12 11 11 13 12 11 11 11 11 11 10 11 11 11 11 12 13 14 13 10 12 10 11 12 12 14 15 15 15 14 13 12 12
7 8 8 8 8 8 7 4 7 9 13 13 13 12 12 13 12 11 11 12 12 11 12 11 10 10 11 12 12 13 11 13 11 11 8 11 12 14 15 14 14 13 13 13 12
6 7 8 9 8 7 7 8 8 12 14 14 12 13 12 12 12 12 11 13 12 12 12 11 11 10 11 12 11 12 13 12 8 10 12 12 11 13 13 13 14 14 14 13 12
7 7 8 8 8 8 5 6 11 13 14 13 13 14 15 14 13 13 11 12 13 12 12 11 10 10 10 11 12 11 11 11 12 11 11 11 12 12 13 13 14 14 14 13 12
5 8 7 8 8 8 6 10 13 13 14 13 14 14 13 14 13 13 13 13 12 13 13 14 10 10 11 12 12 12 12 13 12 10 9 9 12 13 13 13 14 14 14 13 12
4 5 7 8 10 8 11 13 13 13 14 14 14 14 14 14 13 12 13 13 14 13 13 13 10 10 10 11 11 11 11 13 11 10 9 10 13 14 13 13 14 14 13 12 11
4 5 6 7 9 9 10 12 13 13 13 14 14 14 14 14 14 12 12 13 13 13 14 13 10 10 11 11 10 10 11 12 11 9 13 10 13 14 14 14 14 13 13 11 11
2 5 5 7 9 9 10 12 13 12 13 14 13 13 13 13 14 12 12 12 13 13 13 12 8 9 11 12 11 11 11 12 11 13 12 15 13 14 14 14 14 13 12 11 10
2 2 3 4 6 9 9 10 11 13 13 13 13 12 13 12 13 12 12 11 12 12 13 10 7 7 7 11 11 11 11 11 12 12 12 12 12 13 15 14 13 12 11 11 10
3 3 3 5 6 9 9 9 10 11 12 11 11 12 12 12 12 13 12 11 12 11 10 10 6 5 6 10 11 10 10 11 11 12 12 11 14 14 13 14 13 12 11 11 10

GFSSW_925_temp_051.txt.gz
Temp
10 10 10 10 10 10 10 9 9 10 9 9 9 9 9 9 9 10 10 10 12 14 14 15 14 15 15 14 15 15 16 17 18 18 19 19 18 18 19 19 19 18 20 20 20
9 9 9 9 9 9 9 9 9 9 9 9 8 8 9 9 9 9 10 11 12 13 13 14 12 14 15 14 14 15 16 18 19 20 20 19 17 17 18 18 19 18 18 19 19
9 9 9 9 9 9 8 9 9 9 8 8 8 8 9 9 9 10 11 11 12 13 13 14 14 14 15 14 14 15 16 18 19 20 19 17 18 18 17 18 19 17 18 18 18
9 9 8 8 8 8 8 8 8 8 8 8 8 8 8 9 8 11 11 12 12 12 12 13 13 13 14 15 14 15 17 19 19 18 17 17 18 17 17 18 18 17 17 17 17
8 8 8 8 8 8 8 8 8 8 8 8 8 8 8 8 8 10 10 11 11 11 12 13 13 13 15 17 15 16 17 18 17 16 17 18 17 16 16 18 19 18 18 16 17
9 8 8 8 7 7 7 8 8 8 8 8 7 8 8 7 9 10 10 10 11 12 12 13 13 15 15 14 16 15 17 17 17 16 17 16 16 15 19 18 18 18 17 17 17
8 8 8 7 7 7 7 7 7 8 8 8 8 7 8 7 8 9 9 10 13 13 12 13 15 14 14 14 14 15 15 14 15 16 16 17 15 15 17 18 17 17 17 17 17
7 8 7 7 7 7 7 7 7 7 7 8 8 8 8 9 9 9 10 10 12 13 12 13 15 13 14 15 14 15 14 14 15 16 17 15 16 16 17 16 16 17 16 18 19
7 7 7 7 7 7 7 7 8 7 8 8 8 8 7 10 8 10 10 10 11 11 12 14 14 14 14 13 13 14 12 14 15 17 17 16 17 18 17 18 17 17 16 17 18
7 7 7 7 7 7 8 8 9 8 8 8 8 7 9 10 10 10 10 10 11 11 13 13 13 12 11 12 14 14 12 15 15 16 17 16 17 18 18 18 17 19 16 16 17
7 7 7 6 7 7 8 8 7 7 8 7 8 8 9 10 10 10 11 10 10 11 12 12 12 13 13 13 15 13 14 14 16 17 17 17 17 18 18 16 16 15 14 15 16
7 7 6 6 7 7 8 6 7 7 7 8 9 8 9 10 9 10 11 9 9 10 11 11 12 13 13 15 15 14 14 15 16 17 17 16 16 17 18 17 16 17 14 14 16
7 6 6 6 7 7 8 7 7 7 7 8 9 8 9 9 10 10 11 10 9 9 10 12 13 14 14 14 14 14 13 13 15 16 16 16 16 16 17 16 16 15 15 15 14
6 6 6 6 7 7 7 8 8 7 4 9 9 9 10 10 9 10 10 10 9 10 10 12 13 14 13 14 14 14 15 15 15 14 14 16 14 15 16 16 16 17 14 14 13
6 6 6 6 7 7 8 8 7 7 5 9 10 10 10 10 10 10 9 11 10 11 11 11 14 13 13 14 15 15 14 14 14 12 14 14 14 14 15 14 16 17 16 13 12
6 6 6 6 6 8 8 7 7 4 8 10 10 9 9 10 10 10 10 10 11 12 11 11 11 12 13 14 15 14 13 12 11 11 10 13 13 14 14 15 16 14 14 12 11
6 6 6 7 7 8 7 7 5 5 10 10 10 10 10 11 11 11 11 11 9 11 11 12 11 11 12 13 15 15 13 11 12 12 10 11 13 17 15 15 15 14 12 11 10
6 7 6 7 8 8 8 7 6 8 11 13 11 12 12 13 11 11 11 11 11 12 11 12 12 12 11 12 13 13 13 10 12 10 11 11 11 15 14 14 14 14 13 10 10
7 7 7 7 7 8 7 3 6 7 11 12 12 12 12 12 12 11 11 11 11 11 11 9 11 11 11 11 12 12 10 12 9 9 7 10 11 13 13 13 13 12 11 10 10
7 7 7 8 8 8 8 8 7 11 13 13 11 12 12 12 12 11 11 11 12 12 12 10 10 11 11 12 11 11 12 12 7 9 11 11 11 13 14 13 12 12 12 12 11
7 7 7 7 8 8 7 5 10 12 13 13 12 13 12 12 12 11 12 12 13 11 12 10 10 10 11 11 13 11 11 11 11 9 10 11 12 11 13 12 12 12 13 13 12
4 6 7 7 8 9 4 9 12 13 13 13 13 13 13 12 12 11 11 12 12 12 11 11 10 10 11 12 12 12 12 11 12 11 8 8 11 14 11 11 12 12 13 12 12
4 5 7 7 9 7 9 12 12 13 13 13 13 13 13 13 12 12 12 12 12 12 12 12 10 10 10 10 11 11 12 12 12 9 9 9 12 14 12 13 13 13 12 12 11
4 5 6 7 8 9 9 10 12 12 13 13 13 13 13 13 12 11 12 12 13 13 13 13 10 10 10 11 9 11 11 11 11 10 12 11 12 15 15 14 13 13 12 11 10
2 4 4 7 8 8 10 9 11 12 12 12 12 11 12 13 13 11 11 12 12 13 11 11 9 8 10 11 10 9 10 12 11 11 12 14 12 14 14 13 12 12 12 10 9
3 3 3 4 5 8 8 9 9 9 12 12 11 10 12 12 12 12 11 11 12 11 11 9 7 7 7 11 10 10 10 10 12 12 12 13 12 13 15 13 12 12 12 11 10
2 2 2 4 5 7 6 8 9 9 11 11 10 10 11 11 10 11 11 11 11 10 10 9 6 5 6 8 10 9 10 10 10 11 12 12 14 13 13 12 13 13 12 11 10

GFSSW_925_temp_054.txt.gz
Temp
9 9 9 9 9 9 9 9 9 9 9 9 9 9 9 9 9 9 10 11 11 13 14 14 14 14 15 13 15 16 15 17 17 18 18 18 18 17 18 18 18 17 17 17 19
9 9 9 9 9 9 9 8 8 8 9 9 9 9 9 9 9 9 10 11 11 12 12 12 12 13 14 13 14 15 16 17 19 20 20 17 18 17 17 17 18 18 18 18 17
9 9 9 9 9 8 8 8 8 8 8 8 8 8 8 9 9 10 11 11 11 12 12 12 14 13 14 13 13 14 16 18 19 20 19 17 18 18 17 18 16 16 17 18 17
9 9 8 8 8 8 8 8 8 8 8 8 8 8 8 8 8 9 10 11 11 12 12 12 12 12 13 14 13 15 16 18 19 19 18 17 18 17 17 17 16 17 17 17 17
9 9 8 8 8 8 8 8 8 8 8 8 8 8 8 8 8 9 9 10 10 11 12 12 12 12 12 14 14 15 16 17 17 18 18 18 17 17 16 17 17 17 17 16 16
8 8 8 8 8 7 7 8 8 8 8 8 7 8 8 7 9 9 9 10 10 10 11 11 13 13 14 14 15 16 17 17 17 17 17 17 16 17 19 19 17 17 17 16 16
8 8 8 7 7 7 7 7 7 7 7 8 8 7 7 8 9 9 9 9 10 11 11 11 13 14 14 13 15 15 16 14 15 16 15 17 16 15 17 18 16 15 16 16 17
8 8 7 7 7 7 7 7 7 7 7 8 8 7 7 9 8 9 9 11 12 11 12 12 12 14 14 13 13 13 14 15 14 15 16 17 16 17 16 14 15 15 16 16 17
8 7 7 7 7 7 7 7 8 7 7 8 7 7 7 9 8 10 10 10 12 12 12 12 12 14 14 13 12 13 13 13 13 15 15 16 16 18 15 14 15 17 17 16 16
7 7 7 7 6 7 7 8 8 8 8 8 8 7 9 10 10 10 10 10 11 11 11 11 12 13 11 12 13 13 12 13 13 14 15 15 16 17 16 15 16 18 18 15 16
7 7 7 6 6 7 7 8 7 7 8 8 8 7 9 10 10 10 10 9 10 12 11 11 11 11 12 13 14 12 13 13 15 16 15 15 16 17 16 16 16 18 18 15 15
7 7 7 6 6 7 7 6 7 7 6 8 8 8 9 9 9 10 10 10 10 11 10 11 11 12 12 14 14 13 13 13 16 16 15 15 15 17 16 16 17 18 18 17 15
6 6 7 6 6 7 8 7 7 7 7 8 8 8 8 9 10 9 10 10 9 10 9 11 12 13 13 14 13 13 12 13 14 15 16 15 15 16 17 16 16 17 17 16 14
6 6 6 6 6 7 7 7 7 8 4 9 9 9 9 10 9 10 10 10 9 9 9 11 13 13 13 14 13 14 14 14 13 14 12 15 13 15 17 17 16 17 17 15 13
6 6 6 6 6 6 8 7 8 8 7 9 10 10 10 10 9 10 10 11 9 10 9 11 13 13 13 14 15 14 13 14 13 11 13 14 13 14 14 14 18 18 16 15 13
6 6 6 6 6 7 7 7 7 4 9 10 10 9 9 9 10 10 10 10 11 10 10 11 11 12 13 13 14 12 12 12 10 11 9 12 12 14 14 15 15 15 16 16 12
6 6 6 6 6 8 7 7 4 6 10 10 10 10 10 11 11 11 10 10 10 10 11 12 12 11 12 13 14 14 13 10 11 10 10 10 11 15 15 16 15 15 15 13 11
6 6 6 7 7 7 7 6 6 7 11 12 11 11 11 12 11 11 11 10 11 10 10 12 12 11 11 12 12 13 13 10 12 10 11 10 11 13 14 13 14 14 14 13 10
7 6 6 7 7 7 7 2 5 8 12 11 11 11 12 12 11 12 11 11 11 11 12 11 11 11 11 11 12 12 12 11 8 8 6 10 10 12 12 13 13 13 12 10 9
7 7 6 7 7 7 8 7 7 9 12 13 11 11 12 12 12 12 11 11 12 12 11 10 11 11 11 11 11 12 11 11 7 8 10 10 10 12 14 13 13 13 11 10 9
7 7 7 7 7 7 8 4 9 11 12 12 12 12 11 11 13 12 11 11 12 11 11 10 11 10 11 11 12 11 10 10 10 9 9 10 11 10 13 13 11 11 11 10 9
5 8 7 7 7 8 8 8 12 12 12 12 13 13 12 11 11 10 11 11 12 11 11 11 10 11 11 11 12 12 11 11 9 10 7 7 13 13 12 10 10 10 11 10 10
4 5 7 6 9 8 8 11 12 12 12 12 12 12 13 12 12 11 12 11 11 12 11 11 8 10 10 11 11 12 12 12 10 9 7 10 12 13 13 12 13 12 11 10 9
3 5 6 7 7 8 8 9 11 12 12 12 12 12 12 12 10 11 11 12 12 13 13 12 9 9 9 11 10 11 12 12 11 11 12 12 13 14 14 14 13 12 11 9 9
1 3 3 4 7 7 8 9 10 10 11 11 11 10 12 12 12 11 11 11 11 12 10 11 9 8 10 11 10 10 10 11 11 12 12 14 13 14 15 15 13 11 11 10 9
3 3 2 3 4 7 8 9 8 9 10 11 10 9 11 10 10 11 11 11 12 11 10 9 7 7 8 10 9 9 9 9 11 12 12 12 12 14 13 12 12 11 11 10 10
1 2 2 4 4 7 6 8 9 9 10 10 10 10 10 10 9 9 9 10 11 10 9 9 6 5 6 8 9 8 9 9 10 10 12 11 13 13 13 12 12 11 11 11 11

GFSSW_925_temp_057.txt.gz
Temp
9 10 9 9 9 9 9 9 9 9 9 9 9 9 9 10 10 10 9 11 11 12 13 14 13 14 13 15 15 15 16 17 17 18 19 18 19 18 18 20 19 19 18 17 16
9 9 9 9 9 9 9 9 9 8 8 8 8 8 9 9 9 8 10 11 11 12 12 12 12 13 14 14 15 16 16 17 19 19 18 18 19 18 19 19 19 18 19 18 18
9 9 9 9 8 8 8 8 8 8 8 8 8 8 9 8 9 9 10 11 11 11 12 12 13 13 14 13 13 14 17 18 19 19 19 18 18 18 19 19 17 17 18 18 19
9 9 9 8 8 8 8 8 8 8 8 8 8 7 8 8 8 9 10 10 11 10 12 11 12 13 13 14 14 16 15 18 19 19 18 18 18 18 18 19 17 17 17 17 18
9 8 8 8 8 8 8 8 8 8 8 8 8 8 8 8 8 9 9 10 10 10 11 11 12 12 13 14 14 15 16 16 17 18 18 19 18 18 18 17 18 17 17 17 18
8 8 8 8 8 8 8 8 8 8 8 8 8 8 8 7 9 9 9 10 10 10 10 11 13 13 13 14 15 15 16 16 16 17 17 18 17 17 19 18 18 17 17 17 17
8 8 8 7 7 7 7 8 8 7 7 8 8 7 7 7 9 9 9 10 10 10 11 11 12 13 14 13 14 15 16 15 15 16 17 18 17 17 18 17 16 17 17 17 17
8 8 8 7 7 7 7 7 7 8 7 7 8 7 6 9 9 9 9 10 11 10 11 12 11 13 13 14 14 14 15 15 15 15 16 18 18 18 16 17 18 16 17 17 18
8 8 8 7 7 7 7 7 7 8 7 8 7 7 7 9 9 9 9 10 10 10 11 11 10 13 13 14 13 13 14 14 14 15 16 16 17 18 17 17 19 20 17 18 19
7 7 8 7 7 7 7 8 8 8 8 7 7 7 8 9 8 9 9 10 11 11 11 11 11 13 12 14 13 13 13 13 14 15 15 16 16 17 16 17 18 19 18 19 18
7 7 7 7 6 7 7 8 7 7 7 7 8 7 8 9 9 10 10 10 11 11 11 11 9 12 13 13 13 13 13 14 14 14 15 16 16 17 16 15 16 17 17 18 18
7 7 7 7 6 7 7 6 7 8 7 7 7 7 8 9 9 10 10 9 10 11 9 8 10 12 13 14 13 14 13 13 15 14 15 15 15 17 16 16 17 17 20 20 18
7 7 7 6 6 7 7 7 8 7 6 8 8 8 8 9 9 9 10 9 11 10 8 10 11 13 13 13 13 12 14 12 14 14 15 14 15 16 16 16 17 17 18 19 19
7 6 6 6 6 6 7 8 7 7 3 8 9 9 9 10 9 10 10 9 9 9 9 11 12 13 13 13 13 13 13 14 13 14 14 15 15 15 17 16 16 17 18 18 17
6 6 6 6 6 6 7 7 7 7 6 9 9 9 10 10 9 10 10 10 10 9 10 11 12 12 12 13 15 14 13 13 12 12 13 13 14 14 15 16 17 17 18 17 17
6 6 6 6 6 7 7 7 7 5 8 9 10 9 9 8 10 10 10 10 10 11 10 11 12 13 13 13 14 12 12 12 11 12 13 13 14 14 15 15 16 16 18 18 17
6 6 6 6 6 7 7 7 4 5 9 11 10 10 10 10 11 11 10 9 10 11 10 11 12 11 12 13 13 13 13 12 13 13 12 10 11 15 15 16 16 16 16 16 15
6 6 6 6 7 7 7 7 6 9 10 12 11 11 11 10 10 10 10 10 9 10 10 12 12 12 11 12 13 14 14 11 12 12 12 10 12 15 14 14 13 13 14 13 14
6 6 7 6 7 7 7 2 8 9 12 12 12 12 11 12 11 11 11 11 11 10 11 11 11 11 11 11 12 13 12 11 9 7 10 12 11 13 13 14 14 14 13 13 12
7 7 6 7 7 7 8 7 8 9 11 12 11 11 11 11 12 11 10 11 11 11 10 11 11 11 11 11 11 12 11 12 9 10 12 11 11 14 15 16 14 13 13 13 11
8 6 7 7 7 7 8 7 9 11 11 12 12 10 10 11 11 11 11 11 12 11 10 10 11 11 12 12 11 11 10 10 11 10 12 12 13 11 13 14 13 12 11 11 10
5 8 7 7 7 8 8 9 11 12 12 12 12 13 11 11 11 10 11 12 12 11 11 10 11 10 11 11 12 12 11 11 11 10 8 9 12 13 12 12 11 12 11 11 10
4 7 7 6 8 9 9 10 11 11 11 12 12 12 12 11 10 10 11 10 11 12 11 11 9 11 11 11 11 12 12 11 9 8 8 11 13 13 12 13 13 12 12 10 10
3 4 6 7 7 8 8 9 10 11 11 11 11 11 12 11 10 10 11 11 12 12 12 11 9 9 10 10 10 10 12 13 12 12 13 12 14 15 15 15 14 13 12 10 10
1 4 3 4 6 7 8 8 9 9 9 9 11 9 10 11 11 10 10 11 11 12 10 10 8 8 10 10 10 10 10 12 12 13 12 14 13 15 14 13 13 13 12 10 10
2 2 1 2 4 7 8 9 8 9 9 10 10 9 9 9 9 11 10 11 11 10 10 9 8 8 7 10 9 9 9 9 11 12 12 12 12 14 14 12 13 12 11 11 10
1 1 3 3 4 7 7 8 7 8 10 9 9 10 9 8 8 8 8 9 10 9 8 8 6 5 8 8 9 10 10 9 9 10 11 11 13 13 12 12 12 12 12 11 11

GFSSW_925_temp_060.txt.gz
Temp
10 9 9 9 9 9 9 9 9 9 9 9 8 9 9 9 9 10 11 13 11 11 12 15 15 15 15 15 19 22 19 20 21 23 21 21 22 20 22 23 22 22 21 21 18
9 9 9 9 9 9 9 9 9 9 8 8 8 8 9 9 9 11 11 10 11 11 12 14 16 16 17 15 17 18 18 20 23 23 21 20 23 21 22 23 22 23 23 20 17
9 9 9 9 9 8 8 9 9 8 8 8 8 8 9 9 10 12 10 10 11 11 10 12 15 16 17 18 14 19 18 22 23 21 21 21 20 21 23 22 22 22 22 22 19
9 9 9 8 9 8 8 8 8 8 8 8 8 8 8 9 10 10 9 10 11 11 9 11 13 15 17 15 15 17 21 21 22 21 20 21 20 20 21 22 21 21 21 22 22
9 9 8 8 8 8 8 8 8 8 8 8 8 8 9 10 11 9 9 9 10 10 10 11 13 16 17 18 18 16 20 20 22 20 21 21 20 21 21 22 21 21 21 22 22
8 8 8 8 8 8 8 8 8 8 8 8 8 8 9 10 10 9 9 9 11 9 10 10 14 17 18 18 17 19 18 19 20 19 21 20 21 19 23 22 21 21 22 22 22
8 8 8 7 8 7 7 8 8 8 8 8 8 8 9 11 10 9 9 9 10 11 11 10 12 16 18 18 19 19 18 18 16 18 18 20 20 20 23 23 21 22 22 21 22
8 8 8 8 7 7 7 7 7 8 8 8 8 8 10 9 9 9 10 10 9 10 10 10 10 14 18 18 18 18 18 17 18 18 19 18 20 22 23 21 22 23 23 22 22
8 8 7 7 7 7 7 7 7 7 8 8 8 9 10 9 10 10 10 10 10 10 9 10 10 15 16 17 17 17 18 19 18 19 19 19 21 21 20 20 22 23 24 24 24
7 7 8 7 7 7 7 7 8 8 8 8 8 8 10 10 9 9 10 10 12 10 11 10 9 14 16 17 17 18 19 20 19 18 19 19 19 20 20 21 23 24 24 25 24
7 7 7 7 7 7 7 8 9 9 9 10 10 10 10 10 9 10 10 11 11 11 10 10 9 13 16 18 19 19 19 19 20 18 18 18 19 19 20 19 21 23 24 24 24
7 7 7 7 7 6 7 9 9 9 10 9 9 9 9 9 9 10 10 11 10 10 11 10 11 10 17 17 17 18 18 18 18 18 18 19 19 20 21 20 20 22 24 24 24
7 7 7 7 6 6 7 8 7 7 10 9 9 10 10 10 10 9 9 10 10 10 13 12 11 11 16 17 17 18 18 17 18 17 18 18 19 20 20 21 20 21 23 24 24
7 7 6 7 6 6 8 7 7 8 9 10 9 10 10 11 10 10 8 9 10 10 12 11 11 11 15 16 17 16 18 18 17 18 18 19 20 21 21 20 20 21 21 22 22
6 6 6 6 7 8 7 7 7 8 12 10 9 10 11 11 11 9 9 11 11 11 11 11 11 12 15 16 18 16 17 18 17 18 18 17 18 21 20 20 21 21 21 21 22
6 6 6 6 6 7 7 7 8 10 11 10 10 9 10 10 11 12 11 13 13 12 10 12 12 15 16 15 16 16 16 17 17 18 16 19 18 20 20 21 22 21 22 21 22
6 6 6 6 9 7 7 8 10 12 10 12 11 9 9 10 11 12 12 11 11 11 10 12 13 14 14 15 15 17 18 15 15 15 17 15 17 20 20 20 21 21 21 21 22
6 6 6 6 7 7 7 10 11 11 11 13 13 11 11 10 11 11 11 11 11 12 12 12 12 13 14 17 15 16 18 17 15 16 17 14 17 20 20 19 20 19 20 20 20
6 6 6 6 7 7 10 11 11 11 12 13 13 13 11 11 10 11 11 12 12 11 14 12 11 12 13 14 16 15 15 15 15 13 16 18 17 19 20 19 20 20 20 20 19
6 7 7 7 7 7 10 9 9 11 12 12 12 11 12 11 11 11 11 12 11 12 12 13 12 13 13 14 14 16 16 15 14 14 16 17 17 20 19 20 20 20 19 19 18
7 10 7 7 7 8 10 9 10 13 13 13 12 11 11 12 13 12 11 11 12 11 12 13 14 11 14 14 14 14 15 15 16 16 16 17 19 19 19 19 19 19 18 17 17
8 9 7 7 9 9 10 10 11 13 13 13 13 12 12 12 12 12 12 11 12 12 12 13 14 12 12 13 14 15 16 17 16 15 15 15 18 19 18 17 16 18 18 17 15
9 8 7 7 10 10 10 11 12 13 13 13 13 13 13 13 12 12 13 12 12 13 14 14 14 12 11 13 13 14 15 16 15 14 14 15 18 17 17 17 17 17 18 18 15
9 8 7 8 9 9 10 11 12 12 12 12 13 13 13 13 13 12 12 12 13 13 12 14 13 14 16 14 15 14 15 15 15 13 15 16 17 19 19 19 19 19 18 18 17
8 9 8 8 10 10 10 11 11 12 12 12 13 12 13 14 13 12 12 12 13 12 13 14 12 11 13 13 13 13 14 15 13 15 14 16 17 18 18 18 17 18 17 17 16
9 9 6 8 8 10 10 11 10 10 11 12 12 11 13 13 12 13 13 13 12 13 13 13 11 11 11 12 12 12 13 14 14 15 15 15 15 17 17 17 17 17 17 17 16
2 3 9 6 8 11 10 9 7 8 11 11 10 12 12 10 10 11 11 12 13 13 12 12 11 11 12 11 12 12 13 13 14 14 15 14 16 17 16 16 16 16 16 16 16

GFSSW_925_temp_063.txt.gz
Temp
10 10 10 9 9 9 9 9 9 9 9 9 9 9 9 9 10 11 12 13 12 13 12 13 15 16 17 17 19 22 17 20 23 25 24 24 23 22 24 25 25 25 24 23 19
10 9 10 9 9 9 9 9 9 9 9 8 8 8 8 9 11 12 12 11 11 12 11 14 16 16 18 17 18 17 17 19 24 26 24 23 24 23 24 24 25 25 24 21 19
9 9 9 9 9 9 9 8 9 9 8 8 8 8 8 9 12 13 10 10 11 12 11 10 15 17 17 19 16 19 19 21 24 22 23 23 23 24 24 24 25 24 24 23 20
9 9 9 9 8 8 9 8 8 8 8 8 8 8 9 10 11 12 10 10 11 11 10 10 13 14 17 17 17 17 21 23 21 21 23 22 23 23 24 24 23 23 24 24 22
9 9 9 8 8 8 8 8 8 8 8 8 8 8 10 12 13 11 10 11 11 10 9 10 12 14 17 19 18 18 19 22 21 21 22 22 22 23 22 23 23 23 23 24 24
9 9 8 8 8 8 8 8 8 8 8 8 8 8 11 11 12 12 11 11 12 11 10 10 12 16 19 20 19 19 16 19 21 20 21 21 21 22 23 24 23 23 23 24 24
9 8 8 8 8 8 7 8 8 8 8 8 8 9 11 12 12 11 11 11 12 11 11 10 11 11 18 20 21 20 16 16 20 18 22 22 19 19 22 25 23 23 24 23 24
8 8 8 8 8 7 7 7 7 8 8 8 8 10 11 11 11 11 11 11 11 11 10 9 9 10 13 21 20 19 18 14 19 19 20 21 20 21 23 23 23 24 24 25 24
8 8 8 8 7 7 7 7 7 8 8 8 9 10 12 11 11 11 11 12 11 11 9 9 9 10 17 18 17 18 18 15 16 20 20 20 20 22 21 22 22 24 25 25 26
8 8 7 7 7 7 7 7 8 8 9 9 10 10 12 12 11 10 11 11 12 11 9 9 8 10 17 18 17 18 20 20 18 19 19 19 20 21 22 23 23 24 24 25 26
8 8 7 7 7 7 7 9 10 10 10 12 12 12 13 12 11 11 12 12 11 10 9 8 8 13 18 19 21 21 20 21 21 20 19 18 18 20 23 22 22 24 25 25 26
7 7 7 7 7 7 7 11 11 10 12 12 11 11 12 10 10 12 11 11 10 10 10 10 10 14 18 20 19 21 21 21 22 19 20 20 19 21 23 23 23 23 24 25 26
7 7 7 7 6 7 8 10 9 9 11 12 12 11 12 11 10 10 11 11 9 9 12 12 11 13 16 18 18 20 20 20 19 20 19 20 21 21 22 23 23 23 23 24 25
7 7 7 7 6 9 10 9 8 9 10 12 11 11 12 12 10 9 9 11 8 11 14 13 12 13 13 18 19 18 20 21 20 18 18 20 20 22 23 22 22 23 22 23 24
6 6 7 7 8 10 9 8 8 10 12 11 10 11 13 12 10 9 10 12 12 12 14 12 12 10 13 18 20 19 20 19 19 19 21 19 19 23 24 23 23 23 23 23 23
6 6 7 7 7 9 7 8 9 9 11 11 12 11 12 12 11 11 12 14 14 12 11 12 13 11 15 18 19 18 18 18 19 19 17 19 20 22 23 22 24 24 24 23 23
6 6 7 8 10 8 8 10 10 12 13 13 11 9 10 13 13 13 13 13 12 11 10 11 11 11 15 17 18 19 18 16 16 16 17 19 20 22 22 22 23 23 23 23 24
6 7 7 7 7 8 9 11 12 12 13 14 13 10 11 12 12 13 13 12 12 13 11 12 12 15 16 18 17 18 19 18 16 17 19 18 18 21 22 23 22 22 22 22 22
6 8 8 8 7 8 9 11 12 13 14 14 15 12 9 10 12 11 12 13 14 14 12 12 12 14 16 17 18 17 16 18 17 18 19 19 20 21 21 21 22 22 22 22 22
9 10 10 7 7 9 10 11 12 13 13 14 14 11 12 11 11 11 13 13 13 14 15 13 12 13 15 16 16 17 19 16 16 16 17 19 19 21 21 21 21 21 21 21 20
10 11 8 7 8 10 11 10 12 14 14 14 13 11 12 11 13 14 12 12 13 14 15 16 14 12 15 15 16 16 16 17 18 17 17 19 20 21 21 21 21 20 20 20 20
11 10 8 7 10 11 12 12 11 14 15 15 15 15 13 14 13 14 12 12 14 14 15 15 14 12 12 14 16 17 18 18 17 16 17 17 19 21 21 20 19 20 20 21 20
12 10 8 8 11 12 12 13 13 14 14 15 15 15 15 15 13 14 13 13 13 14 14 15 14 13 12 14 15 15 17 18 18 16 16 17 19 21 20 19 19 19 21 20 20
12 9 9 9 11 12 13 13 13 14 14 14 15 15 15 15 15 14 13 12 13 14 13 15 16 15 16 16 17 15 17 17 17 15 16 17 18 20 21 20 21 21 20 20 19
12 13 12 9 12 13 13 14 14 14 14 15 15 15 15 15 15 14 13 13 14 13 14 16 13 12 15 15 15 15 16 17 15 16 15 17 18 19 20 19 19 19 19 19 19
12 12 10 13 12 13 12 14 14 13 14 14 14 15 15 15 14 14 14 14 14 15 15 15 12 13 12 14 14 13 15 16 16 17 17 17 17 19 19 19 18 18 18 18 18
7 8 13 10 12 13 14 13 12 11 12 13 13 15 14 12 13 13 14 15 15 14 15 15 13 12 14 13 14 14 15 16 15 16 16 15 17 18 16 16 17 17 17 17 17

GFSSW_925_temp_066.txt.gz
Temp
10 10 10 10 10 9 9 9 9 9 9 9 9 9 9 9 10 10 11 13 13 13 13 13 14 15 15 16 17 19 17 18 20 22 24 23 22 22 23 24 24 23 21 20 18
10 10 10 9 9 9 9 9 9 9 9 9 9 9 8 9 10 12 13 13 12 12 12 13 14 16 14 16 16 16 16 18 21 23 22 23 23 22 23 23 22 21 21 20 18
10 10 9 9 9 9 9 9 9 9 9 9 8 8 8 9 11 12 11 11 11 11 11 11 12 15 14 16 16 17 17 19 20 20 22 22 23 24 23 22 23 22 21 20 18
9 9 9 9 9 9 9 9 9 9 9 8 9 8 9 9 10 12 10 11 11 10 11 10 11 12 14 14 17 15 19 21 19 20 22 22 23 22 23 21 22 22 23 21 19
9 9 9 9 8 8 8 8 8 9 9 8 8 8 9 12 13 11 11 11 11 11 10 10 10 13 14 16 17 15 19 20 20 18 21 23 22 22 21 21 22 22 23 22 21
9 9 9 8 8 8 8 8 8 8 8 8 8 8 10 10 13 12 11 11 12 11 9 9 10 12 15 16 17 17 18 20 18 17 18 21 21 21 22 22 22 22 23 23 22
9 9 8 8 8 8 8 8 8 8 8 8 8 9 10 11 13 12 12 12 12 12 10 9 10 10 12 16 19 18 16 16 16 17 19 21 20 19 21 22 22 22 22 22 22
8 8 8 8 8 8 8 8 7 8 8 8 8 9 10 12 12 12 12 12 11 11 11 9 9 10 11 17 18 17 17 15 17 16 16 19 18 20 21 21 20 21 21 22 22
8 8 8 8 8 8 7 7 7 8 8 8 8 9 10 12 12 12 11 12 12 11 9 9 9 10 11 13 17 16 15 16 14 15 15 17 19 21 21 19 20 20 21 22 23
8 8 8 7 7 7 7 7 7 8 8 9 11 10 11 12 12 11 11 11 12 11 9 9 8 9 10 14 14 16 15 15 15 15 14 16 19 19 19 20 19 21 22 22 22
8 8 8 7 7 7 7 7 9 9 10 11 12 12 13 13 12 11 12 11 11 11 9 8 9 10 10 14 18 18 18 14 15 16 14 17 18 20 20 19 19 21 21 22 22
7 7 7 7 7 7 7 9 11 10 10 12 12 12 12 9 10 12 12 11 10 9 9 9 9 11 11 14 19 19 18 18 16 17 17 18 17 18 19 19 20 20 21 22 23
7 7 7 7 7 7 7 9 9 10 10 12 12 12 13 10 10 11 12 11 10 8 9 11 10 10 13 17 19 19 19 18 16 17 15 18 17 18 19 19 21 21 21 22 22
7 7 7 7 7 8 10 10 9 9 9 11 11 12 12 11 10 10 10 10 9 9 10 12 10 12 14 14 18 18 21 19 18 17 16 18 17 18 20 20 21 20 20 20 21
7 6 7 7 8 9 9 9 9 10 11 12 11 12 13 11 10 9 11 10 9 11 12 11 11 12 15 18 20 18 20 18 18 17 18 17 16 19 20 19 20 20 20 19 20
6 6 7 7 7 9 8 8 9 9 11 11 12 11 12 13 12 11 12 10 14 13 13 12 11 12 12 17 18 19 18 17 17 17 12 17 17 17 19 20 21 20 20 20 19
6 7 7 9 9 8 8 9 9 11 13 12 11 10 12 11 13 13 13 12 12 11 10 11 10 12 13 16 17 17 16 13 13 12 13 17 16 18 20 21 21 20 19 21 21
7 7 8 9 8 8 9 9 11 13 14 15 13 11 12 12 13 14 13 12 13 12 11 12 11 12 15 17 16 16 17 13 15 13 15 18 16 18 19 20 20 20 21 21 21
7 8 9 8 8 8 8 10 11 13 14 14 10 10 9 11 13 12 13 13 13 14 11 12 11 12 15 16 16 16 14 16 15 18 13 15 18 20 19 19 19 19 18 16 16
8 10 10 8 8 9 9 11 12 13 13 15 14 12 11 11 12 12 13 13 14 14 15 13 11 14 15 16 16 16 17 15 12 14 16 17 17 17 17 19 19 17 16 17 17
8 10 8 8 8 9 10 10 13 14 14 14 14 12 10 10 12 14 13 12 14 14 14 14 14 12 14 15 15 15 13 16 16 13 13 15 16 18 18 18 17 16 18 18 17
11 10 8 8 8 10 10 12 12 15 15 15 15 13 13 13 13 14 12 12 14 15 15 14 13 12 12 14 15 15 17 16 13 14 14 13 15 20 17 17 19 18 19 18 17
10 9 8 9 11 12 13 13 14 15 15 15 15 15 16 15 13 14 13 13 14 14 14 15 12 11 11 14 15 14 16 17 16 14 13 12 15 18 17 17 18 18 17 16 17
10 8 9 9 11 11 14 14 13 14 14 15 15 15 16 15 16 14 12 13 14 15 13 14 14 13 13 14 14 13 16 16 15 11 14 14 16 17 18 18 17 17 16 16 16
10 11 11 9 10 12 14 14 14 14 14 15 15 15 16 15 15 13 13 12 13 13 14 14 13 11 14 14 14 15 15 15 13 14 13 15 15 16 16 16 16 15 15 15 15
10 10 10 13 13 12 12 13 14 13 13 14 15 15 15 14 14 14 13 13 13 13 14 14 10 11 10 14 14 13 14 15 15 15 16 16 15 16 16 14 14 14 14 14 14
9 10 11 12 12 13 13 14 13 13 13 13 14 14 13 12 12 13 14 14 15 14 14 14 10 9 12 13 13 11 13 14 15 16 15 14 15 14 14 14 14 13 13 13 13

GFSSW_925_temp_069.txt.gz
Temp
10 10 10 10 9 9 9 9 9 9 9 9 9 9 9 9 9 10 10 11 12 13 13 13 13 14 15 14 15 16 15 17 17 19 20 22 22 21 22 22 21 20 20 19 21
10 10 10 9 9 9 9 9 9 9 9 9 9 9 9 9 9 9 11 12 13 12 12 12 11 12 13 13 15 14 15 17 19 19 19 21 21 21 21 21 19 19 19 18 19
9 10 10 9 9 9 9 9 9 9 9 9 9 9 9 8 9 11 11 12 11 10 11 11 11 11 13 13 14 15 16 18 19 19 20 20 21 22 20 21 21 19 19 19 18
9 9 9 9 9 9 9 9 9 8 9 9 8 8 8 9 8 11 11 11 11 11 11 11 10 11 13 13 14 14 17 19 18 19 19 20 21 21 20 20 20 19 19 19 19
9 9 9 9 8 8 9 8 8 8 8 9 8 8 8 9 10 12 11 11 11 11 10 10 10 11 13 14 14 14 16 18 19 19 17 18 20 20 19 19 20 21 20 18 19
9 9 9 8 8 8 8 8 8 8 8 8 8 8 8 8 12 12 11 11 11 11 9 9 10 10 12 13 14 15 16 17 17 18 16 17 19 20 19 19 20 21 20 19 19
9 9 8 8 8 8 8 8 8 8 8 8 8 8 8 8 12 12 12 12 11 11 10 8 9 9 10 13 15 16 15 15 16 17 16 15 17 18 18 19 19 20 20 20 20
9 8 8 8 8 8 8 8 8 8 7 8 8 8 7 11 12 12 12 12 12 11 11 9 8 9 10 11 15 14 15 15 14 15 16 15 16 18 17 19 19 19 19 20 20
8 8 8 8 8 8 8 7 7 7 8 8 8 8 8 12 11 12 11 11 12 11 9 9 9 10 11 11 13 13 14 15 14 15 15 15 15 18 18 19 18 18 18 20 20
8 8 8 8 8 8 8 7 8 7 9 8 9 9 10 12 11 11 11 11 11 9 9 9 8 9 9 12 13 14 14 16 14 13 15 15 14 17 19 17 17 17 18 18 20
8 8 8 8 8 7 7 8 8 7 8 9 10 10 12 11 11 11 11 11 10 9 9 8 9 10 9 10 12 16 15 14 16 14 15 14 14 16 17 17 16 16 17 18 20
8 7 7 7 7 7 7 7 9 9 7 10 11 11 12 9 9 12 11 9 9 9 9 8 9 11 12 11 12 16 14 14 15 15 15 14 14 15 17 17 16 16 17 18 19
7 7 7 7 7 7 7 8 9 9 7 11 12 11 12 10 10 10 10 10 9 9 9 10 11 11 11 12 13 15 15 15 15 15 15 15 13 14 17 17 18 18 18 19 19
7 7 7 7 7 8 8 9 9 9 8 11 11 11 12 9 10 10 10 10 9 9 7 9 11 12 12 13 15 15 17 17 16 14 14 15 15 16 18 18 17 17 17 18 19
7 6 7 7 7 9 9 9 9 9 8 12 10 12 12 11 11 9 9 9 9 9 10 10 10 12 13 14 16 17 17 16 15 14 15 15 14 17 17 16 17 17 17 17 18
6 7 7 7 8 8 9 9 9 9 5 11 11 11 12 12 11 10 10 8 9 12 11 10 10 11 12 14 17 16 16 15 15 15 12 16 15 15 15 18 17 18 17 17 17
7 7 7 8 9 8 9 8 9 9 12 12 11 10 11 11 12 12 11 11 11 10 10 10 11 12 12 15 15 16 14 12 12 12 13 16 16 15 18 18 17 17 17 18 17
7 8 8 9 9 8 9 7 11 12 13 13 12 11 12 12 13 13 13 10 12 11 11 9 10 11 13 15 15 15 15 12 13 11 13 15 15 17 18 17 17 17 16 15 14
7 8 8 8 8 8 8 10 9 11 14 12 10 9 9 11 12 12 12 11 13 12 12 11 11 12 14 14 15 16 11 15 13 14 10 13 16 18 17 17 15 15 14 14 14
8 8 8 8 8 8 8 10 11 13 13 13 12 11 11 12 11 10 12 12 13 13 12 12 11 12 14 15 15 15 16 12 9 11 15 14 15 15 16 15 15 15 14 15 14
9 8 8 8 8 8 9 10 12 14 13 14 12 11 11 11 11 12 12 12 13 13 13 13 12 12 13 12 13 14 14 15 13 12 12 13 14 15 15 15 14 15 15 15 15
8 7 8 8 7 9 9 12 13 14 14 14 14 13 11 11 12 12 12 12 13 14 14 13 11 10 12 12 14 14 15 15 13 13 12 11 14 14 14 14 15 15 15 16 16
8 7 8 8 7 9 12 12 13 14 14 14 14 14 15 13 13 13 11 13 13 13 13 13 9 11 10 12 14 14 14 15 13 12 11 12 13 15 15 16 16 14 14 14 15
7 7 7 7 7 9 10 11 12 13 13 14 14 14 14 14 14 12 12 12 13 13 13 13 12 10 9 11 13 12 14 15 13 8 13 13 15 16 16 17 15 14 14 14 14
7 7 7 8 7 8 11 12 12 12 13 14 14 14 14 14 13 12 13 12 13 13 13 12 10 9 13 13 13 14 14 14 12 13 12 14 15 15 13 13 14 14 14 13 12
7 7 7 7 8 8 10 12 13 12 12 13 13 13 12 12 11 12 12 13 12 12 13 11 9 9 9 13 13 13 13 14 14 14 14 14 14 14 13 13 12 11 12 11 11
8 9 8 9 8 8 9 12 12 11 12 12 12 11 10 10 10 11 12 12 12 12 12 11 8 7 9 12 12 10 11 12 14 15 14 13 14 13 12 12 11 10 10 10 10

GFSSW_925_temp_072.txt.gz
Temp
10 10 10 10 9 9 9 9 9 9 9 9 9 9 9 9 9 9 9 12 11 12 13 13 12 13 14 13 14 15 15 16 17 17 19 22 21 21 21 20 19 19 20 21 21
10 10 10 10 9 9 9 9 9 9 9 9 9 9 9 9 9 8 11 11 12 12 12 12 11 12 12 12 13 13 15 15 18 18 19 19 20 21 20 19 19 18 19 21 20
10 10 10 10 9 9 9 9 9 9 9 9 9 9 9 9 8 10 11 11 11 11 11 11 11 11 10 12 12 15 15 17 19 18 19 18 19 21 19 20 19 19 19 19 19
10 10 10 9 9 9 9 9 9 9 9 9 9 8 8 8 9 11 11 11 11 11 11 10 10 10 11 11 13 13 16 17 18 19 19 17 17 19 20 20 20 19 19 19 19
10 9 9 9 9 8 9 8 9 9 8 9 8 8 8 8 8 11 11 11 11 11 10 10 9 10 10 11 13 13 14 16 18 18 17 18 17 18 18 19 19 19 19 17 19
9 9 9 9 8 8 8 8 8 9 8 8 8 8 8 7 11 11 11 11 11 11 10 9 9 11 10 11 13 13 14 15 16 18 16 17 17 17 18 18 18 19 18 17 18
9 9 9 9 9 8 8 8 8 8 8 8 8 8 8 7 11 11 11 11 12 11 9 8 8 9 10 12 13 14 14 15 15 16 17 15 16 17 17 18 19 18 18 18 18
9 9 9 9 8 8 8 8 8 8 8 8 8 8 7 11 11 11 11 11 11 11 11 9 8 9 9 10 13 14 14 14 16 16 16 15 16 16 16 17 18 18 18 18 19
9 9 9 9 8 8 8 8 7 7 7 8 8 8 8 11 11 11 11 11 11 11 10 9 8 9 9 11 13 12 14 14 14 16 14 16 15 17 17 17 17 17 17 18 18
9 8 8 8 8 8 7 7 8 7 8 8 8 8 9 11 11 11 11 11 10 9 9 9 8 9 9 11 12 14 13 15 13 14 14 15 15 14 16 17 16 16 16 17 19
9 8 8 8 8 7 7 8 7 7 8 8 9 9 11 11 11 11 11 10 9 9 9 9 8 8 9 12 11 12 14 14 13 14 14 14 15 15 15 16 16 15 16 16 17
8 8 8 7 7 7 7 6 9 9 8 9 9 10 11 10 9 11 11 9 9 8 8 8 9 9 10 11 11 12 14 14 15 13 14 14 14 14 14 15 16 16 15 16 17
8 8 7 7 7 7 7 8 9 9 7 10 10 11 11 10 9 10 10 10 9 9 9 9 11 11 11 11 11 12 14 13 13 15 14 14 14 14 15 16 16 16 16 16 16
8 7 7 7 7 8 7 9 9 9 4 10 10 11 10 11 9 10 10 9 9 9 8 9 11 12 12 11 12 12 15 15 13 14 14 15 14 14 16 16 16 16 15 15 15
7 7 7 7 8 8 9 9 9 8 5 11 10 12 11 10 10 9 9 9 9 8 8 10 11 11 11 11 13 15 15 16 14 11 12 12 14 16 16 16 16 15 15 15 15
7 6 7 7 7 8 9 9 9 5 5 10 11 11 11 11 10 9 9 8 9 9 10 10 11 12 12 14 15 15 14 14 14 13 13 14 14 16 15 17 17 16 16 15 15
7 7 7 7 8 9 8 7 5 5 11 11 11 10 10 11 11 10 11 11 10 10 9 10 11 12 12 13 14 15 13 13 13 12 12 15 15 16 17 16 16 16 16 15 16
7 7 7 8 9 8 8 8 5 10 11 12 11 11 11 11 12 12 12 10 12 11 10 11 11 11 13 14 13 14 14 12 13 12 13 15 15 17 17 14 14 14 13 13 13
7 7 8 8 8 8 7 8 7 9 13 11 10 10 9 10 11 11 11 11 12 11 11 10 11 12 13 14 15 14 13 14 12 12 13 14 16 17 15 14 14 13 13 13 12
7 7 8 8 8 8 8 8 10 12 12 11 11 11 9 11 10 10 11 11 12 12 12 12 11 12 13 15 14 14 15 12 9 12 14 13 15 15 15 14 14 14 13 14 14
8 7 8 8 8 7 6 7 11 13 13 14 11 11 10 11 11 11 11 12 12 13 12 12 11 11 12 11 12 13 13 13 11 10 11 12 13 14 14 14 13 13 13 14 14
8 8 7 8 8 8 8 11 13 13 13 14 14 11 9 10 11 11 11 11 11 13 12 11 10 10 12 12 12 14 14 13 10 12 10 10 14 13 13 13 13 13 13 15 15
7 7 7 8 8 9 11 11 13 13 13 14 14 14 13 11 11 11 11 12 11 12 12 12 9 7 10 12 13 13 14 14 12 10 10 11 13 14 13 13 13 12 12 12 12
7 7 7 7 8 9 10 10 12 13 13 14 14 14 14 14 12 11 11 12 12 12 13 12 10 10 9 10 11 12 13 14 12 9 12 12 14 14 14 13 12 12 11 11 11
7 7 8 7 7 7 10 10 11 11 13 13 13 13 14 13 13 12 12 12 12 12 12 11 10 9 12 12 13 13 13 13 11 12 12 14 13 13 13 12 12 12 11 11 11
7 6 6 5 7 8 9 9 11 11 12 12 12 11 12 11 12 12 12 12 12 12 12 10 7 9 8 12 11 12 13 13 13 13 14 14 14 12 12 11 10 10 10 10 10
6 7 7 7 6 8 9 10 12 10 11 11 11 10 10 10 10 11 12 11 12 11 11 10 8 6 8 9 11 11 12 12 13 13 13 13 13 11 11 11 10 9 9 9 9

GFSSW_925_temp_075.txt.gz
Temp
10 10 10 10 10 9 9 9 9 9 9 9 9 9 9 9 9 9 8 11 12 12 13 12 12 13 13 12 13 14 14 15 16 16 18 20 20 20 20 20 19 19 19 20 18
10 10 10 10 10 9 9 9 9 9 9 9 9 9 9 8 8 8 12 11 11 12 12 11 11 11 10 12 12 12 14 16 16 16 18 19 19 19 20 18 18 18 19 18 17
10 10 10 10 10 9 9 9 9 9 9 9 9 9 8 8 8 9 11 11 11 11 11 11 11 11 10 11 11 12 13 17 17 17 18 18 19 19 19 18 19 20 19 18 18
10 10 10 10 9 9 9 9 9 9 9 9 9 9 8 8 9 11 11 11 11 11 10 10 10 10 10 10 12 12 14 15 17 17 18 17 17 19 19 20 20 20 21 19 19
11 10 10 10 9 9 9 8 9 9 8 8 8 8 9 8 8 11 11 11 11 11 10 10 9 9 9 10 11 12 13 15 15 18 17 18 17 16 17 18 18 19 20 20 19
11 10 10 10 9 9 8 8 8 8 8 8 8 8 8 6 10 11 11 11 11 10 10 9 9 9 10 10 10 12 13 14 16 16 17 18 16 16 18 17 17 19 19 19 19
11 10 10 9 9 8 8 8 8 8 8 8 8 8 8 7 11 11 11 11 11 11 9 9 9 8 10 10 11 11 12 13 14 14 16 17 17 17 16 15 17 18 17 18 18
11 10 9 9 9 8 8 8 8 8 8 8 8 8 6 11 10 10 11 11 11 11 10 9 8 9 8 10 10 11 12 13 15 14 16 16 17 17 15 14 16 17 17 17 17
11 10 9 9 8 8 8 8 7 7 8 8 8 7 7 10 10 11 11 11 11 11 10 8 8 8 8 8 10 11 12 13 14 15 15 15 16 15 15 15 15 15 16 18 17
11 10 9 8 8 8 7 7 8 7 7 8 8 7 8 10 11 11 11 10 10 9 9 8 8 7 9 9 12 12 12 14 15 15 15 15 15 15 13 15 15 15 15 16 18
11 10 8 8 8 8 7 8 7 7 7 7 8 9 10 11 11 10 11 9 8 8 8 9 8 8 9 9 11 13 12 14 13 14 14 15 15 16 14 14 14 14 15 16 17
10 9 8 7 7 7 7 6 8 9 7 8 8 9 10 10 9 10 10 9 8 7 8 8 8 9 10 10 11 13 12 13 13 13 14 13 14 14 14 14 15 14 14 15 16
10 8 7 7 7 7 7 7 9 9 6 9 9 9 10 10 9 9 10 9 8 9 9 8 10 10 10 11 11 12 13 13 14 12 13 13 13 14 14 13 15 14 14 15 15
9 8 7 7 7 7 7 9 8 8 3 9 9 10 10 11 9 10 9 9 8 8 9 9 9 11 11 11 12 12 13 14 13 13 14 13 14 13 15 14 14 15 14 14 14
9 7 7 7 7 7 9 9 8 8 6 10 10 11 11 10 10 9 8 9 8 9 8 9 10 11 11 12 13 13 14 12 13 11 12 13 14 16 15 15 15 15 14 14 14
8 7 6 6 6 8 8 8 8 5 6 10 10 10 10 11 10 9 9 8 8 8 7 9 11 12 13 13 12 13 14 13 12 11 13 12 14 15 15 16 17 16 15 15 15
7 7 6 7 7 8 8 7 6 4 10 10 10 10 10 11 11 10 11 10 10 10 10 11 12 12 12 12 13 13 13 13 13 12 13 13 13 15 16 16 16 15 14 14 14
7 6 6 7 8 8 8 7 5 8 10 11 10 10 10 10 11 11 11 10 11 10 11 11 11 12 13 13 12 13 13 12 13 12 13 14 14 16 14 13 14 14 12 12 12
6 6 6 7 8 9 6 8 6 8 11 10 10 8 7 10 10 10 11 11 11 11 11 11 11 11 12 13 14 14 11 14 12 12 12 13 15 17 14 13 13 12 12 11 11
6 6 7 8 8 8 7 8 8 11 10 11 11 10 9 10 10 10 10 11 11 12 11 12 12 12 13 14 13 14 14 13 10 12 14 13 14 15 15 14 13 13 12 12 11
7 7 7 8 8 7 8 6 10 13 12 11 10 10 10 10 10 11 10 12 11 11 11 11 11 12 12 11 11 12 14 12 11 10 11 13 14 14 14 14 13 12 12 12 11
7 7 7 8 7 6 5 9 12 12 12 13 11 11 9 9 12 11 11 10 10 11 11 11 9 10 12 12 12 13 13 12 10 12 9 9 12 11 13 12 12 12 12 11 10
7 7 6 7 7 6 10 11 12 12 13 13 13 12 11 10 11 10 11 11 11 11 12 12 8 6 9 11 13 13 14 12 10 9 9 10 12 12 11 11 11 11 10 10 10
7 7 7 7 6 8 10 11 12 13 13 14 13 13 12 12 11 10 11 12 11 12 13 12 9 10 9 11 11 13 13 13 12 8 11 12 13 13 12 12 11 11 10 9 9
6 7 8 7 7 7 10 11 12 12 12 13 13 13 13 12 11 11 11 11 12 11 12 10 9 8 11 11 12 12 13 12 10 12 12 14 13 13 11 10 11 10 10 9 9
7 6 6 5 6 7 9 10 11 11 11 12 12 12 12 12 12 11 11 11 11 11 11 9 7 8 8 10 10 12 12 12 12 12 13 12 13 12 10 9 9 8 9 8 8
5 6 5 7 5 8 9 9 11 10 10 10 10 10 10 10 10 10 11 10 11 11 10 9 7 6 8 9 11 10 11 12 12 12 12 11 12 10 10 9 8 7 7 7 7

GFSSW_925_temp_078.txt.gz
Temp
11 10 10 10 10 10 10 10 9 9 9 9 9 9 9 9 9 9 8 12 11 11 12 12 12 12 12 12 13 13 13 14 16 16 16 18 19 20 20 20 20 19 20 19 18
11 11 10 10 10 10 10 9 10 9 9 9 9 9 9 9 8 8 12 11 11 12 12 11 11 11 10 11 12 11 11 14 16 17 16 18 18 20 20 18 19 19 18 18 18
12 11 10 10 10 10 9 9 9 9 9 9 9 9 8 8 7 9 11 10 12 11 11 10 10 11 9 10 11 11 12 14 15 16 16 16 18 17 19 17 18 19 18 18 18
12 12 11 10 10 10 9 9 9 9 9 9 9 9 8 9 8 11 11 11 11 11 10 10 9 9 9 9 10 10 12 13 14 16 17 16 17 17 17 18 18 19 19 18 18
12 13 11 10 10 10 9 9 9 9 9 8 8 8 8 7 7 11 11 11 11 11 10 9 8 9 9 9 10 10 11 13 14 15 15 18 17 17 16 16 16 19 19 18 18
11 12 12 10 10 9 9 8 9 9 8 8 8 8 8 6 10 11 11 11 11 10 10 9 8 9 8 9 10 11 11 12 13 14 15 16 18 15 18 14 15 18 18 19 19
10 12 12 10 10 9 8 8 8 8 8 8 8 8 8 7 11 10 10 11 11 10 9 9 9 9 9 9 10 10 10 11 13 14 14 16 16 16 14 14 15 17 18 18 18
9 11 12 10 9 9 8 8 8 8 8 8 8 8 7 10 10 10 10 10 11 10 10 10 9 9 8 10 9 9 10 10 13 14 14 15 16 17 14 14 14 15 16 18 18
9 10 11 10 9 8 8 8 7 8 8 8 8 8 7 10 9 11 10 10 11 10 10 9 8 8 9 8 9 9 9 9 13 14 15 15 15 15 14 14 14 14 14 15 16
9 10 11 10 8 8 7 7 7 7 7 8 8 7 8 10 11 11 11 10 9 9 9 8 7 7 8 8 9 9 9 11 13 14 14 14 14 14 14 14 13 13 14 14 15
8 9 10 9 8 7 7 7 7 7 7 7 7 8 10 11 10 10 10 9 9 9 7 8 8 8 8 8 9 8 10 12 14 14 14 14 13 14 14 14 13 14 14 14 15
7 8 9 8 7 7 7 6 8 9 8 7 8 8 9 10 9 10 10 8 7 7 7 7 7 9 9 9 9 8 12 12 12 14 14 14 14 14 14 15 14 14 14 14 15
7 7 9 7 7 6 7 7 8 9 7 9 8 8 10 9 10 8 9 8 7 7 8 8 9 10 10 9 10 11 12 11 13 12 12 12 13 12 14 14 14 14 14 14 14
7 7 8 7 6 7 6 8 8 8 4 9 9 10 9 10 10 9 9 9 9 8 8 8 10 9 9 9 12 12 12 13 13 12 13 12 13 13 14 14 14 14 14 13 14
6 6 8 7 7 7 8 9 8 8 5 10 9 11 10 9 9 9 8 9 8 9 8 9 9 9 10 11 12 12 13 13 12 11 12 12 12 14 14 14 14 14 16 14 14
6 7 7 6 6 7 8 8 8 6 5 9 9 9 9 9 10 9 9 8 8 7 7 8 10 12 12 12 12 12 12 12 11 12 12 12 13 15 13 15 15 15 14 14 14
6 6 6 6 6 7 8 7 7 5 9 9 9 9 9 10 11 10 10 9 9 9 10 10 11 11 11 11 12 13 13 12 12 12 13 11 12 14 15 15 15 16 15 14 14
5 6 6 6 7 7 8 6 7 7 9 10 10 10 10 10 11 11 9 10 9 10 11 10 11 11 11 11 12 13 12 13 13 12 12 13 13 15 13 12 12 14 12 11 12
6 7 6 6 7 7 7 6 6 8 10 9 10 7 7 10 10 10 10 10 11 11 10 10 11 11 11 12 13 13 12 13 12 13 12 13 15 15 14 12 12 12 12 10 10
6 6 6 6 6 8 7 8 8 10 10 11 10 10 9 10 10 10 9 11 11 10 11 11 12 11 13 13 13 14 13 13 11 13 13 13 13 14 14 12 12 11 10 9 9
6 7 6 7 7 7 8 6 9 11 11 11 9 9 9 9 10 10 10 11 10 11 11 11 11 12 12 10 11 12 13 11 11 11 13 13 14 14 13 13 11 10 10 9 8
7 6 6 6 7 8 7 7 11 11 12 12 11 10 9 9 12 10 10 10 9 10 11 10 9 11 12 12 11 12 13 11 11 12 8 9 13 10 11 12 11 10 9 9 8
6 7 6 7 8 8 7 10 11 12 12 12 11 11 10 10 10 10 10 11 10 10 10 11 8 6 9 11 12 13 13 11 10 9 9 9 12 11 10 10 11 9 8 8 8
6 6 7 7 6 7 9 10 11 12 12 12 12 11 11 11 10 10 11 11 10 11 12 11 8 9 9 11 11 12 13 12 11 7 11 11 11 12 12 11 10 8 8 7 7
6 6 6 7 7 7 8 10 11 11 12 12 12 12 12 11 11 10 11 11 11 11 10 10 9 7 9 10 11 12 12 12 10 11 12 12 12 11 10 10 9 8 8 8 7
6 6 5 5 7 7 9 11 11 10 11 12 11 10 12 11 11 10 11 11 11 11 10 8 6 8 7 9 10 12 11 11 12 12 12 11 13 11 9 8 8 7 8 7 7
5 6 7 7 6 7 9 11 11 10 10 9 11 10 10 10 10 10 9 8 10 11 9 8 7 6 8 8 10 10 12 12 11 12 12 11 12 9 9 9 8 7 6 6 5

GFSSW_925_temp_081.txt.gz
Temp
12 12 12 11 11 11 10 10 10 10 9 9 9 9 9 9 9 9 8 11 12 11 11 12 12 12 12 12 13 14 13 14 15 16 18 18 18 18 19 20 20 21 23 20 17
13 13 12 12 11 11 10 10 10 10 9 9 9 9 9 9 9 8 11 10 11 12 11 11 10 11 10 11 12 12 12 14 16 17 17 18 18 19 18 20 21 21 19 18 17
12 13 12 12 11 11 10 10 9 9 9 9 9 9 9 9 8 9 11 10 11 11 11 10 10 10 10 10 11 12 12 14 15 15 16 17 17 19 19 19 21 22 18 18 17
11 11 12 12 11 11 10 10 9 9 9 9 9 9 9 9 9 11 11 11 11 11 11 10 9 9 9 9 10 11 12 13 14 14 15 15 17 17 16 20 22 20 19 18 17
10 10 11 11 12 10 10 9 9 9 9 9 8 9 8 7 8 11 11 11 11 11 10 9 9 9 9 9 10 10 12 12 13 13 14 15 15 16 17 17 16 18 18 18 17
9 9 10 12 12 10 10 9 9 9 8 8 8 8 8 8 10 11 11 10 11 10 9 9 9 9 8 9 9 10 11 11 12 12 13 14 15 15 18 15 16 17 17 19 18
8 9 9 11 12 10 9 9 8 8 8 8 8 8 8 9 10 10 10 10 11 10 9 9 9 9 9 9 9 10 10 11 12 12 12 14 15 15 18 15 15 16 16 18 18
8 8 8 10 11 10 9 8 8 8 8 8 8 8 8 10 10 10 10 10 10 10 10 10 9 8 9 9 9 9 9 9 12 12 13 14 14 17 15 16 15 15 15 18 18
7 8 8 9 10 9 8 8 8 7 8 8 8 8 8 9 9 11 10 10 10 10 9 10 8 8 9 8 8 9 9 9 10 13 14 13 15 17 15 15 15 14 15 15 17
7 7 8 9 10 8 8 7 7 7 7 8 7 7 8 9 10 10 10 10 10 9 9 8 8 8 7 8 8 9 9 10 10 13 13 14 15 14 14 15 15 14 14 15 15
7 7 8 9 9 8 7 7 7 7 7 7 8 8 9 10 10 10 9 9 9 8 7 8 8 8 7 8 8 8 9 10 12 13 14 13 14 14 13 14 13 13 14 15 15
6 6 7 9 8 7 7 7 8 8 7 7 8 7 8 10 9 10 9 8 7 7 7 8 7 9 9 8 8 8 9 10 11 14 14 14 14 12 13 14 13 14 14 14 15
6 6 7 7 7 6 7 6 7 8 7 8 8 8 9 9 9 8 9 8 7 7 7 7 8 10 9 9 9 9 9 10 12 13 13 14 13 13 14 14 14 15 14 14 15
6 6 6 7 6 6 6 7 8 8 6 9 8 9 9 10 9 9 9 9 8 8 7 7 9 9 9 9 8 11 11 13 13 13 13 12 13 13 14 14 14 15 15 15 14
6 6 6 6 6 6 7 8 7 8 8 9 8 10 9 10 9 9 9 8 9 8 8 8 9 9 10 9 11 11 13 12 12 12 13 12 14 14 14 13 14 15 16 15 14
6 6 6 6 6 7 7 7 8 8 8 9 8 8 8 9 10 9 9 8 8 7 6 8 9 9 11 12 11 12 13 13 12 12 12 12 14 15 14 15 15 15 16 15 14
6 5 5 5 6 7 7 7 8 8 9 9 8 8 9 9 10 9 10 8 9 9 9 9 10 11 11 12 13 12 13 12 13 13 13 11 13 15 15 14 14 16 15 14 14
4 4 5 5 6 7 7 7 8 9 9 10 9 9 9 10 10 10 10 10 8 10 10 9 8 11 11 11 12 12 12 12 14 13 13 12 13 15 13 12 12 13 14 13 12
4 6 5 5 7 6 6 8 8 9 10 9 9 7 7 9 10 10 10 10 11 11 10 11 11 11 11 11 11 11 12 13 12 12 13 13 14 15 14 12 12 12 12 12 11
5 6 6 6 6 6 7 9 8 9 10 10 9 9 9 9 10 10 9 9 9 10 10 10 12 12 12 11 11 12 14 13 12 12 13 14 14 13 13 12 12 11 11 10 10
6 6 6 6 6 6 8 8 8 10 11 11 9 9 9 9 10 9 9 11 10 10 9 10 11 11 12 11 11 12 13 11 11 11 14 14 14 13 13 12 11 10 10 9 9
6 7 5 5 6 6 8 8 10 10 11 10 10 9 9 9 10 9 9 10 9 10 11 10 11 11 11 11 10 11 12 11 12 12 9 11 13 10 11 12 10 10 9 8 8
5 6 6 6 8 8 8 9 11 11 11 12 11 11 10 10 10 9 10 11 9 10 10 11 8 8 10 11 12 12 12 10 9 9 10 12 13 10 10 10 9 9 8 8 8
6 6 6 7 6 8 8 10 11 11 12 11 10 10 10 10 9 10 10 11 10 10 11 10 8 9 9 11 11 12 12 11 11 10 11 11 11 11 10 10 9 8 8 7 7
6 6 6 7 7 6 8 9 11 11 11 10 11 11 11 10 10 10 10 10 11 10 9 9 8 7 8 9 11 12 12 12 10 11 12 12 11 11 10 9 9 8 8 8 7
6 6 6 6 6 7 8 11 11 9 10 11 10 10 11 10 11 11 11 11 10 10 9 8 6 8 8 9 10 11 10 11 12 12 12 10 13 11 8 8 8 7 7 7 6
5 6 7 6 5 8 9 11 11 10 9 8 10 9 9 10 10 10 8 7 9 10 9 8 7 6 8 8 10 10 9 11 11 11 11 12 11 9 9 8 7 6 6 6 5

GFSSW_925_temp_084.txt.gz
Temp
12 12 12 12 12 12 11 11 10 10 10 9 9 9 9 9 9 10 11 12 12 11 11 12 13 13 14 15 16 17 15 17 18 19 20 23 22 23 23 23 24 25 25 27 23
11 11 11 12 12 12 11 11 10 10 10 10 9 9 9 9 10 11 11 10 11 12 12 13 14 13 14 14 15 15 16 17 19 20 20 21 22 22 22 22 22 23 25 23 20
10 10 11 11 12 12 11 11 10 10 9 9 9 9 9 9 11 13 11 11 11 11 11 12 12 13 13 14 15 15 15 18 18 18 18 18 20 21 21 21 23 23 24 24 21
9 9 10 10 11 11 11 11 10 9 9 9 9 9 9 9 12 12 11 12 11 11 11 12 13 12 12 13 14 13 15 16 17 17 16 17 18 18 20 22 23 18 24 23 22
9 9 9 9 10 12 11 10 10 9 9 9 9 9 9 10 11 11 11 11 11 11 12 12 12 12 12 13 13 13 14 15 16 15 16 16 16 17 19 21 22 20 20 22 22
8 8 8 9 10 12 11 10 9 9 9 8 8 9 10 10 11 11 11 10 11 11 11 12 12 12 12 12 12 14 13 14 14 15 15 15 16 17 19 21 20 19 19 22 22
8 8 8 8 9 11 10 10 9 9 8 8 8 8 10 11 10 10 10 11 11 11 12 11 11 11 12 11 13 12 11 13 14 14 14 15 15 16 19 20 19 19 20 21 23
8 8 8 8 8 9 10 8 8 8 8 8 8 9 10 10 10 10 10 10 10 10 11 10 10 11 11 12 11 11 12 10 15 15 14 14 15 18 20 20 19 20 19 20 21
7 7 7 7 8 9 9 8 8 8 8 8 8 10 10 9 9 10 10 12 11 10 10 10 10 10 10 9 10 10 11 12 13 15 15 14 15 18 20 20 19 19 19 19 19
7 7 7 7 9 9 8 8 7 7 8 8 8 9 10 11 11 10 10 11 11 11 10 10 10 9 9 8 9 11 9 12 13 15 14 15 15 18 19 19 19 19 18 18 18
7 7 7 7 9 7 7 7 7 7 8 10 10 10 10 10 10 11 10 10 11 10 9 9 8 8 9 10 10 10 9 9 12 15 14 15 16 17 14 16 17 18 17 17 16
7 6 6 7 7 7 8 8 9 9 8 9 9 10 9 10 11 11 10 11 10 9 9 8 8 11 12 11 9 9 9 11 12 14 14 15 16 18 16 15 16 17 17 17 17
7 6 6 6 7 6 7 7 7 8 10 9 9 9 10 10 11 11 11 11 10 8 9 9 12 11 11 10 8 9 9 10 11 13 14 15 15 15 16 16 16 16 16 16 16
6 6 6 6 7 6 7 7 7 8 10 10 9 10 10 11 10 11 11 11 10 9 9 9 11 10 10 9 9 10 10 10 10 11 13 16 15 16 17 16 16 17 15 13 15
5 6 6 6 6 7 8 8 7 8 12 10 9 10 11 11 11 10 10 9 10 10 8 11 10 10 9 9 9 13 13 10 9 13 15 15 16 17 16 16 17 16 15 13 13
6 6 5 6 6 7 7 8 7 9 11 10 9 10 9 10 11 9 9 9 7 7 7 8 11 9 11 13 13 15 14 12 14 15 14 14 14 16 16 16 17 17 17 17 16
6 5 5 5 6 7 7 7 9 11 10 9 10 10 11 11 11 10 10 8 9 10 10 11 11 12 12 12 14 13 14 14 14 15 14 13 16 16 16 16 16 17 19 18 16
5 5 5 5 6 5 6 8 10 10 11 11 11 11 12 12 12 11 10 10 8 10 11 11 12 12 13 13 12 13 14 15 15 15 14 14 15 17 15 15 15 16 18 16 14
4 4 4 5 6 6 7 9 10 10 12 11 11 11 10 11 12 12 10 10 11 10 11 12 12 13 12 13 12 14 14 15 15 15 16 15 15 17 16 15 15 16 15 12 12
6 6 6 5 6 6 7 9 9 11 11 13 13 12 12 12 12 13 10 8 9 10 10 10 12 12 11 12 12 12 15 15 15 16 15 16 17 16 16 14 14 14 14 12 11
6 6 6 6 6 6 9 9 10 11 12 13 12 12 12 12 13 12 10 10 12 12 12 13 14 12 14 13 13 15 16 15 15 15 18 18 16 15 15 14 14 13 13 11 11
6 6 6 6 6 7 8 9 10 11 12 12 12 12 13 12 13 13 12 12 12 12 14 13 15 14 14 14 13 13 15 15 17 16 15 18 16 14 15 14 14 13 12 11 10
6 5 6 6 8 8 10 11 9 11 13 13 12 13 12 12 13 12 12 13 12 13 13 14 14 14 15 15 15 15 15 15 15 16 14 18 16 14 14 14 13 13 12 12 11
7 6 5 7 7 10 10 9 10 12 13 13 12 13 13 13 13 12 13 13 13 13 11 13 13 13 15 13 13 15 15 15 16 16 17 16 14 14 14 13 13 12 12 12 12
7 7 7 8 8 10 9 9 12 12 13 13 13 13 14 13 13 13 13 13 13 12 12 14 12 11 12 12 13 14 14 15 14 15 16 15 16 15 15 14 13 12 12 12 11
8 8 7 8 9 10 10 11 12 11 12 13 13 12 14 14 14 13 13 13 13 14 13 12 12 11 12 13 14 13 14 14 15 15 15 16 15 16 14 13 12 12 11 11 10
6 7 11 8 9 11 11 11 12 12 11 10 12 13 13 11 12 12 13 12 12 13 13 13 12 12 13 12 14 15 13 13 14 14 14 16 14 13 13 12 12 11 10 10 9

GFSSW_925_temp_087.txt.gz
Temp
10 11 11 12 12 12 12 12 11 11 10 10 10 10 10 10 10 11 14 13 13 12 12 14 15 15 16 17 18 18 17 18 19 20 22 24 24 26 26 25 26 26 27 27 25
10 10 10 10 11 11 12 12 12 11 10 10 10 9 9 10 11 13 13 12 11 12 14 15 16 16 17 16 17 16 17 18 21 22 22 23 23 24 25 24 24 24 26 26 24
9 10 10 10 10 10 11 12 11 11 10 9 9 9 10 10 13 15 12 11 12 12 13 14 14 15 15 16 16 17 16 19 20 21 20 20 20 22 23 23 24 24 25 26 25
9 9 9 9 9 10 10 10 11 11 10 9 9 9 10 11 15 14 12 12 11 12 13 14 15 14 14 15 16 15 17 18 18 19 19 18 19 19 21 22 25 24 23 22 24
8 9 9 9 9 9 9 10 11 10 9 9 9 9 10 13 14 12 11 12 12 12 13 14 14 14 14 16 16 15 16 17 18 18 18 18 17 18 19 21 23 23 23 22 24
9 8 8 8 8 8 9 12 10 9 9 9 9 9 11 13 12 12 12 12 13 12 13 13 14 14 13 14 14 16 16 15 16 16 17 16 17 17 19 20 21 21 22 22 23
8 8 8 8 8 8 9 11 10 9 9 9 9 10 12 14 12 12 11 12 12 13 13 13 13 13 14 13 15 14 13 14 15 15 15 16 15 16 18 19 20 21 22 22 22
8 8 8 8 8 8 9 10 9 8 8 8 8 11 13 12 12 11 12 12 12 12 12 12 12 12 12 13 13 13 13 12 16 17 16 16 14 18 19 19 20 21 22 22 21
8 7 7 7 7 8 9 8 8 8 8 8 9 11 13 10 11 12 12 13 12 12 11 12 12 12 11 10 10 12 11 13 15 17 16 16 15 18 19 20 20 21 22 22 21
7 7 7 7 7 9 8 8 7 7 8 8 10 11 12 12 12 12 12 12 13 12 12 11 10 10 11 9 10 13 12 13 14 16 17 15 15 17 19 20 21 21 22 22 21
7 7 7 7 7 8 7 7 8 8 9 11 12 13 13 12 12 12 12 12 12 12 11 10 8 9 11 13 12 11 12 12 14 15 13 15 16 17 19 18 20 21 21 21 20
6 7 7 7 7 7 7 9 10 9 9 11 12 12 12 12 12 12 12 11 11 11 11 9 8 12 13 13 12 11 10 11 13 15 14 13 16 17 19 18 18 19 18 18 19
6 6 6 6 7 7 6 8 8 9 11 10 11 12 12 12 12 12 12 12 11 11 10 9 13 13 12 12 11 10 9 10 10 13 14 15 15 17 19 18 17 18 18 18 18
6 6 6 6 7 6 6 7 7 7 10 10 10 11 11 12 12 13 12 12 11 11 11 10 12 12 11 10 10 10 12 10 10 11 13 15 14 17 18 18 18 19 18 17 16
6 6 6 6 7 6 7 7 7 8 12 11 10 11 12 12 12 11 12 11 10 10 10 12 13 11 10 10 10 11 11 11 11 13 12 15 15 17 18 18 19 19 19 17 15
6 6 6 7 7 8 7 7 8 9 12 10 10 10 11 12 12 10 9 9 7 8 8 9 11 11 12 13 13 13 9 10 11 10 13 14 14 16 17 17 18 19 19 16 14
6 6 5 6 8 7 7 7 9 11 12 10 11 11 13 12 12 10 9 9 9 10 10 13 13 14 14 11 14 14 12 14 14 14 16 16 13 16 17 17 18 18 18 14 13
6 5 5 6 6 6 7 7 11 11 11 12 12 13 13 13 13 11 10 10 9 10 12 12 13 14 15 14 13 14 14 14 15 15 14 14 14 13 16 17 17 18 15 13 10
5 4 5 6 5 6 7 10 10 10 13 13 13 13 12 13 12 12 12 11 12 12 11 12 13 14 14 13 13 14 13 13 13 15 15 14 15 16 13 17 16 16 13 11 10
5 6 6 6 6 6 7 9 10 12 14 15 14 15 14 14 12 13 12 9 10 11 11 12 12 12 11 13 13 12 14 14 16 16 16 17 16 14 13 14 14 12 12 11 10
8 7 6 5 6 7 8 9 9 13 15 15 14 14 15 14 14 14 13 11 11 12 13 14 14 13 11 13 15 15 16 17 16 17 16 18 15 16 15 13 13 11 10 9 9
8 6 5 7 7 7 9 8 10 12 14 14 15 15 16 15 15 15 13 14 14 14 15 16 16 16 16 17 16 15 17 18 17 18 19 19 15 16 16 13 13 12 11 11 10
6 6 6 7 10 9 10 10 9 12 14 15 14 15 15 15 14 15 15 15 15 15 15 16 17 16 17 16 16 17 18 18 18 19 18 19 16 17 15 15 14 13 12 12 12
9 7 6 7 9 12 12 9 10 14 14 15 14 15 15 15 16 15 15 15 15 15 12 14 16 15 15 14 15 16 17 18 18 17 18 18 15 16 16 15 14 14 14 14 13
10 8 9 9 11 13 12 10 14 14 15 15 15 15 16 15 16 15 15 16 16 14 15 16 14 12 15 15 15 16 16 17 16 18 18 18 18 17 17 16 15 15 14 14 13
12 11 11 12 12 14 12 14 14 14 14 15 15 15 17 15 16 15 16 16 15 17 16 16 14 14 13 16 16 15 16 17 16 17 17 18 17 18 18 16 15 15 14 13 12
9 10 14 11 13 14 12 13 13 14 13 13 15 15 14 13 14 15 15 15 15 15 16 15 14 13 15 15 16 16 15 15 16 16 16 17 16 16 15 15 14 14 13 12 11

GFSSW_925_temp_090.txt.gz
Temp
9 10 10 10 11 11 11 12 12 11 11 11 10 10 10 10 10 10 12 13 13 13 13 15 15 16 16 16 17 17 15 15 17 18 20 22 22 23 24 24 24 24 25 25 24
9 10 10 9 10 10 10 11 12 12 11 10 10 10 10 10 10 13 13 13 12 12 14 15 16 17 15 16 16 15 14 16 18 19 20 21 21 21 21 22 23 23 24 25 22
9 9 9 9 9 10 10 10 11 12 11 10 10 10 10 10 12 15 13 11 12 12 13 14 15 15 14 15 16 15 14 16 18 19 20 19 19 20 19 19 21 23 23 23 24
9 9 9 9 9 9 9 9 10 11 11 10 10 10 10 10 14 13 12 12 12 13 13 14 15 14 14 14 16 14 16 17 17 18 17 18 18 18 18 18 20 21 21 22 21
8 8 8 8 9 8 9 9 9 10 10 10 9 10 10 12 14 12 12 12 12 13 14 14 14 14 13 15 15 15 15 16 16 16 17 17 17 17 17 18 19 20 21 20 20
9 8 8 8 8 8 8 9 9 11 10 9 9 10 10 12 13 12 12 12 13 13 13 14 14 14 13 13 13 15 14 15 15 15 15 16 16 16 17 17 18 19 19 20 20
8 8 8 8 8 8 8 8 9 10 9 9 9 10 12 14 13 12 12 13 13 13 14 13 13 13 13 12 14 14 12 13 14 14 14 15 14 15 16 17 17 18 19 20 20
8 8 8 8 8 8 7 8 10 9 9 9 9 11 12 12 12 12 12 13 13 13 13 12 12 12 12 12 12 12 12 11 14 14 15 14 12 15 17 16 16 17 18 19 20
7 8 8 7 7 8 9 9 9 8 8 8 9 11 13 11 12 13 13 13 12 12 12 12 12 11 12 10 9 10 9 11 13 16 15 15 13 15 16 17 17 17 18 19 19
7 7 7 7 7 7 8 8 8 8 8 9 10 10 12 13 12 13 13 13 13 13 12 12 11 9 10 9 7 10 11 12 12 15 15 14 14 16 17 17 17 17 18 19 19
7 7 7 7 7 7 7 7 8 7 8 11 11 13 13 13 12 13 13 13 13 12 11 11 8 8 10 10 10 10 10 10 11 14 14 13 13 14 16 16 16 16 17 19 19
6 6 6 6 6 7 7 7 8 9 8 11 13 13 13 13 12 13 12 12 11 10 11 10 8 10 12 12 12 11 10 10 11 13 13 13 12 14 15 16 17 16 17 17 18
6 6 6 6 6 7 7 6 7 9 10 10 10 12 12 12 13 12 12 12 11 11 11 10 11 13 11 11 10 10 9 9 10 11 11 11 11 13 15 17 17 16 17 17 17
6 6 6 7 7 6 6 6 7 8 9 9 9 12 12 12 12 13 12 12 11 11 12 10 11 11 11 10 10 9 12 10 9 10 10 13 10 13 15 16 16 16 16 15 15
6 6 6 7 7 7 6 7 7 8 11 10 11 12 13 12 12 11 13 12 11 11 9 11 12 11 10 10 11 10 11 11 10 10 10 12 11 13 15 14 16 16 15 15 14
6 6 7 7 7 7 7 7 7 9 11 9 10 10 11 11 12 11 10 9 8 8 8 8 11 10 11 13 13 11 10 11 11 11 11 12 11 14 15 17 16 18 17 13 13
6 6 6 7 7 7 7 8 9 10 10 10 10 11 12 12 12 11 10 9 9 10 10 11 12 13 12 12 14 12 10 12 11 10 13 11 10 12 14 16 17 17 15 13 12
6 6 6 6 7 7 8 7 10 10 10 12 12 12 10 13 13 11 10 10 9 10 10 12 11 14 15 13 12 13 12 13 13 14 13 12 13 12 12 16 17 16 12 10 9
6 6 6 6 6 7 8 9 9 10 12 13 13 12 12 14 14 12 12 12 12 11 11 11 11 14 13 13 13 13 12 11 12 12 14 13 11 12 13 12 12 11 11 10 9
6 7 7 6 6 7 7 9 9 11 14 14 14 15 13 14 13 12 12 10 11 12 12 12 12 13 13 13 13 11 13 13 12 13 14 13 12 13 11 10 10 9 9 9 9
8 6 5 6 7 7 8 8 10 14 14 14 15 15 15 14 13 14 12 11 12 12 12 12 12 13 12 13 14 13 15 15 16 15 14 15 12 11 11 9 9 9 9 8 8
8 7 5 7 7 7 8 9 10 12 15 15 15 16 15 15 15 14 14 14 15 14 14 15 14 13 16 16 16 15 16 16 12 14 14 12 12 12 12 10 10 9 8 8 8
6 6 7 7 9 9 10 9 10 14 15 15 15 15 15 15 14 15 15 15 15 15 14 14 13 11 14 15 16 16 16 16 17 15 14 12 12 14 11 12 10 8 8 8 8
8 7 8 8 9 11 10 10 12 14 15 15 15 16 16 16 16 15 15 15 15 15 12 12 14 12 11 13 14 14 15 16 14 11 14 13 12 13 13 12 12 11 11 11 11
11 9 10 9 11 13 12 12 14 14 15 16 15 15 16 16 16 15 16 16 15 13 14 14 12 10 15 15 15 15 15 15 14 15 13 14 14 14 13 12 12 11 11 11 10
11 9 10 12 14 14 13 14 14 14 13 15 15 15 15 14 14 14 15 15 14 16 16 15 11 13 10 16 16 14 14 15 15 15 16 15 14 15 15 12 12 12 12 11 10
11 12 11 11 13 14 13 13 14 14 13 13 13 15 13 12 13 14 15 15 15 14 14 14 12 10 12 14 15 13 13 13 15 14 14 13 13 13 13 14 13 11 11 10 10

GFSSW_925_temp_093.txt.gz
Temp
9 10 9 10 10 10 10 10 11 12 11 11 11 10 10 10 10 10 11 12 13 14 14 14 15 15 16 15 15 15 12 12 14 15 16 18 18 20 19 19 19 22 24 21 23
9 9 9 9 9 9 10 10 10 11 12 11 11 10 10 10 10 11 12 12 13 14 13 14 14 14 13 14 14 13 11 13 15 16 16 17 17 17 17 17 18 18 19 21 22
9 9 9 9 9 9 9 9 10 10 11 11 11 11 10 10 10 12 12 12 12 12 13 14 14 14 14 14 14 14 12 14 15 16 17 16 16 17 16 16 17 16 17 18 20
9 9 8 9 8 9 9 9 9 9 10 10 10 11 10 10 12 12 12 12 12 13 13 14 14 13 13 13 14 13 14 14 15 15 15 15 16 15 16 16 16 16 17 17 18
9 9 9 8 8 8 8 9 8 9 10 10 9 11 10 11 12 12 12 12 12 13 13 13 13 13 12 12 12 13 13 14 14 14 14 15 14 14 15 15 16 17 17 16 17
8 8 8 8 8 8 8 8 8 9 11 10 10 10 11 11 12 12 12 12 13 13 13 13 12 13 12 12 12 12 12 12 13 13 13 14 13 14 14 15 16 17 16 16 17
7 8 8 8 8 8 8 8 8 8 9 9 9 10 12 12 12 12 12 12 13 13 13 13 12 11 11 10 11 11 10 11 12 13 12 13 12 13 14 14 15 16 16 16 17
7 7 7 8 8 7 7 8 8 9 10 9 9 10 11 12 12 12 12 13 13 13 12 12 12 11 11 11 10 10 10 9 12 12 13 12 10 13 14 14 15 15 16 16 16
7 7 7 7 7 7 8 11 10 10 9 9 9 9 11 12 12 12 12 12 12 12 12 12 12 10 10 8 5 8 6 9 10 13 13 12 12 13 14 14 14 15 14 15 16
6 7 7 7 7 7 8 9 9 8 8 9 10 10 11 11 12 12 13 12 12 11 11 11 9 6 7 5 4 8 7 9 9 12 12 12 12 14 14 14 14 15 14 14 15
6 6 6 7 7 7 7 8 8 6 7 10 10 12 12 12 13 12 13 13 13 12 10 10 5 5 7 8 8 8 8 8 10 11 11 11 11 12 13 13 13 13 14 14 15
6 6 6 6 6 7 7 7 7 7 8 9 12 12 12 12 11 11 12 11 11 10 10 8 6 9 10 10 9 9 8 9 10 12 11 10 10 11 12 13 13 14 13 12 14
6 6 7 7 7 7 6 6 6 7 8 9 11 12 12 12 12 11 11 12 11 10 11 10 9 11 11 9 8 8 8 9 9 10 10 9 9 10 12 13 13 14 14 14 13
6 6 7 8 7 6 6 6 7 6 8 8 9 11 12 12 12 12 12 12 11 10 11 10 10 10 10 9 9 9 11 11 10 10 8 10 8 10 11 12 13 15 15 13 13
6 7 7 7 7 7 6 7 7 7 9 9 10 12 11 11 10 11 11 12 10 10 10 9 10 10 10 9 10 10 11 10 10 10 10 10 10 9 13 13 13 13 14 14 11
6 6 7 7 7 7 7 7 7 9 9 9 10 9 10 11 11 11 10 9 8 9 9 9 9 9 9 11 11 11 9 9 10 10 9 11 9 10 12 13 14 15 14 11 10
7 6 7 7 6 7 7 7 8 7 9 9 9 10 11 11 10 11 9 8 9 9 7 10 10 11 11 10 12 12 11 11 10 10 10 11 10 10 11 11 13 15 13 10 9
6 6 6 7 7 7 7 7 7 10 9 11 10 11 10 12 11 11 10 10 9 9 10 9 8 13 13 13 11 12 11 12 13 13 13 10 12 11 11 12 12 12 11 10 9
6 6 6 6 7 7 6 7 9 9 11 11 11 10 11 12 12 11 10 12 11 9 10 10 10 13 13 12 12 13 12 11 12 12 12 12 11 10 10 10 11 11 10 9 8
7 7 5 6 7 7 7 9 9 8 12 12 11 12 10 11 12 10 11 10 12 12 11 11 11 13 12 13 12 12 12 11 10 13 14 12 12 12 9 8 9 9 9 8 8
7 7 6 6 7 6 8 8 10 12 14 12 13 13 12 12 12 12 11 11 11 12 11 11 10 13 12 12 13 12 12 12 13 12 13 12 12 9 8 8 9 9 8 8 8
7 6 7 7 5 7 8 9 10 11 13 14 13 13 13 14 14 13 13 13 12 14 12 12 11 11 13 15 15 14 13 13 11 13 11 11 11 10 9 9 9 8 8 7 7
6 6 8 7 8 9 10 9 10 12 13 14 14 14 15 14 13 14 14 14 14 13 13 13 10 8 11 12 12 13 14 14 14 11 11 10 11 10 10 9 9 8 8 8 8
4 4 5 6 6 9 10 9 11 13 14 14 14 15 14 14 14 14 14 14 14 14 13 12 12 10 9 11 12 12 13 13 12 9 11 10 10 10 10 10 9 8 8 9 8
5 5 6 5 8 9 10 12 12 12 12 14 14 13 14 14 14 14 15 14 14 14 12 12 11 10 12 14 14 14 12 13 12 13 11 11 11 10 10 9 9 9 9 9 9
6 7 7 7 10 12 11 11 12 12 12 12 11 12 11 11 11 12 12 12 13 13 14 12 9 11 8 14 14 13 12 13 13 12 12 12 12 12 10 9 10 9 9 8 8
9 10 8 9 9 10 10 13 12 13 12 12 11 12 11 11 10 10 10 11 13 13 12 12 9 7 9 11 12 11 12 12 13 12 13 12 13 12 11 11 10 9 9 8 8

GFSSW_925_temp_096.txt.gz
Temp
9 9 9 10 9 9 10 10 11 11 12 12 11 11 11 10 11 11 10 13 13 14 14 14 14 15 15 14 15 14 12 11 13 15 15 16 15 17 17 17 17 18 17 18 19
9 9 9 9 9 9 9 9 10 11 11 11 11 11 10 10 10 10 12 12 13 13 14 14 13 14 12 14 13 12 10 12 14 15 14 15 15 15 15 15 17 17 17 18 19
9 9 9 8 8 9 9 9 9 9 11 11 11 10 10 10 10 11 12 12 13 13 13 14 14 14 13 13 13 13 11 13 14 14 15 14 14 15 15 15 16 15 15 16 17
8 9 9 9 9 9 8 9 9 9 10 11 10 10 10 10 13 12 12 13 12 13 13 14 13 12 12 12 13 12 13 14 14 14 13 13 14 13 14 14 15 14 15 16 15
8 8 8 9 8 8 8 8 8 9 9 10 10 10 10 10 11 12 12 12 12 13 13 13 12 12 12 11 12 12 12 12 12 12 12 13 13 13 13 14 14 14 15 15 15
8 8 8 8 8 8 8 8 8 9 9 10 10 10 11 11 12 12 12 12 13 13 13 12 11 12 11 11 11 10 10 11 11 12 12 12 12 13 13 13 14 15 15 14 15
7 8 7 8 8 8 8 8 8 8 9 10 9 11 12 11 12 12 12 12 13 13 11 11 12 11 10 10 10 10 10 10 11 11 11 12 11 12 13 13 14 14 15 15 14
6 7 7 7 7 7 7 8 8 8 9 10 9 10 11 12 12 12 12 12 12 12 12 12 12 11 10 10 9 9 9 8 10 12 12 11 10 12 13 12 12 13 14 15 14
6 7 7 7 7 7 8 10 10 9 9 9 10 10 10 12 12 12 12 12 12 12 12 12 11 10 10 6 4 6 6 7 9 12 12 11 10 12 12 13 12 13 13 14 14
6 6 6 7 7 6 7 9 10 9 8 9 9 10 10 11 12 12 12 12 12 11 11 10 7 4 5 3 3 8 7 7 9 10 11 10 10 12 12 12 11 12 12 12 13
6 6 6 6 6 7 7 7 8 8 8 10 10 11 10 11 12 12 12 12 12 11 9 9 4 5 6 7 8 8 7 7 9 10 10 10 10 11 12 11 12 10 11 12 12
6 6 6 6 6 7 6 6 6 7 8 10 11 12 12 12 11 11 12 11 10 9 10 7 5 8 8 8 8 8 8 8 9 11 10 9 9 10 11 11 12 12 10 10 12
6 7 6 7 6 6 6 6 6 7 8 8 11 12 11 12 10 10 11 11 11 10 10 9 9 10 10 9 8 7 6 8 8 10 11 10 10 10 11 11 11 12 11 11 11
7 7 7 8 7 6 6 6 6 7 8 7 9 11 11 11 11 12 11 11 11 11 11 9 10 10 9 8 8 8 10 10 10 10 10 10 9 10 10 10 11 11 11 11 12
7 6 7 8 7 6 6 7 7 7 9 8 9 11 11 11 10 10 10 11 10 10 10 9 9 10 9 8 9 9 11 10 10 10 9 10 9 9 10 11 11 12 12 12 10
6 7 7 7 7 6 7 7 7 8 9 9 9 9 10 11 10 10 10 9 8 9 9 8 9 8 9 10 10 12 10 10 9 10 7 10 8 9 10 11 10 13 12 10 10
6 6 7 6 6 6 7 7 7 8 9 8 9 9 10 11 9 10 10 9 9 8 8 9 9 9 10 9 11 10 10 10 8 10 10 10 8 8 11 11 11 11 11 10 9
7 7 6 6 6 7 7 6 8 9 9 10 10 10 11 11 10 11 10 9 9 9 9 10 8 11 11 11 12 11 11 12 12 13 12 10 11 11 11 11 11 10 10 9 9
7 6 5 6 7 7 5 8 8 9 10 10 10 10 10 11 11 11 10 11 11 9 10 10 8 13 12 12 12 12 12 12 11 12 9 11 11 10 10 10 10 10 9 9 8
7 6 6 7 7 7 7 9 8 9 11 11 10 11 10 10 11 10 10 11 12 10 11 11 11 12 13 12 12 12 12 12 11 11 14 12 12 11 9 8 10 9 9 8 8
7 5 8 7 8 6 8 9 9 11 13 11 12 11 11 11 10 10 11 11 11 12 11 10 10 11 12 12 13 12 11 11 12 12 12 12 12 9 8 7 8 9 8 8 7
7 4 9 8 6 7 6 9 9 11 12 13 13 13 11 11 11 12 12 12 11 12 10 11 11 10 12 13 13 13 12 12 10 13 10 10 12 9 8 8 8 8 8 7 7
5 5 8 7 6 6 9 10 10 12 12 13 13 14 14 13 13 13 13 13 11 12 12 12 9 7 10 12 12 12 12 12 11 10 10 10 11 11 10 9 9 8 8 7 7
4 5 5 5 5 8 9 10 11 13 13 14 13 14 13 13 13 13 13 13 12 12 13 12 10 10 8 11 11 11 11 12 11 8 10 10 10 10 10 9 9 8 8 8 8
4 5 6 5 7 8 10 11 11 11 12 11 12 11 13 13 12 12 12 12 13 13 12 11 10 9 10 11 12 13 11 11 10 11 11 11 10 10 9 9 8 8 8 8 8
6 7 5 6 7 10 9 11 11 12 11 12 11 11 10 11 11 11 11 12 12 12 13 10 9 10 7 13 12 13 11 11 12 12 12 11 12 11 10 8 8 8 8 8 8
8 8 7 8 7 9 9 11 11 12 12 11 11 11 11 11 10 10 9 9 9 12 11 11 8 6 8 10 11 11 12 12 12 12 12 12 12 10 10 10 9 7 8 8 8

GFSSW_925_temp_099.txt.gz
Temp
9 10 9 9 9 9 9 9 10 10 11 12 11 11 11 11 11 11 11 12 13 13 14 14 14 15 15 13 14 13 11 10 13 14 14 14 14 15 16 16 15 17 17 17 18
9 9 9 9 9 9 9 9 9 9 11 11 11 11 10 10 11 10 12 13 13 13 14 14 13 14 11 13 12 11 10 11 13 14 14 13 14 13 15 14 15 16 16 17 18
8 8 9 9 9 9 8 9 9 9 10 11 12 11 10 11 11 11 12 12 13 13 14 14 14 13 12 13 13 12 11 12 13 14 14 13 13 15 14 13 15 15 14 15 16
8 9 9 9 9 9 9 8 8 9 9 11 12 11 10 11 13 12 12 12 12 13 14 13 12 12 11 12 11 12 12 12 12 12 12 12 13 13 13 13 14 13 13 14 14
8 8 8 8 8 8 8 8 8 8 9 10 11 10 10 11 11 12 13 12 12 13 13 12 11 11 11 11 11 12 11 11 11 11 11 12 11 11 12 12 12 12 13 13 13
8 7 8 8 8 8 8 8 8 8 9 9 10 10 10 11 12 12 12 12 13 13 12 11 11 11 10 10 10 9 9 9 10 10 11 11 12 12 12 12 13 13 13 12 13
7 7 7 7 7 8 8 8 8 8 8 9 9 10 11 11 12 12 12 12 13 12 10 11 12 10 10 10 9 9 9 9 10 11 11 11 10 10 12 12 12 12 13 13 12
7 7 7 7 7 7 7 7 7 8 8 9 9 9 10 11 12 12 12 12 12 12 12 12 12 10 10 10 8 8 9 8 10 11 11 11 11 11 12 11 11 12 12 13 12
6 6 7 7 7 7 7 8 9 8 8 9 9 9 10 11 12 12 12 11 12 12 12 12 11 8 8 5 5 6 6 7 8 10 10 10 9 10 11 11 11 12 12 12 11
6 6 7 6 6 7 7 9 9 9 8 8 9 10 10 11 11 12 12 12 11 11 10 9 6 4 4 3 4 7 6 7 7 10 10 9 10 11 12 11 11 11 11 10 11
6 6 6 6 6 7 7 8 8 8 9 10 10 10 10 11 12 11 12 12 11 10 8 7 4 4 7 6 7 7 6 6 8 10 9 9 9 10 11 11 10 11 10 11 10
7 6 6 7 7 7 7 7 6 7 8 9 10 9 12 12 10 11 12 10 10 9 8 6 4 8 8 8 7 6 6 7 8 10 10 10 10 11 11 11 11 10 10 10 9
6 6 6 7 6 6 6 6 6 7 7 8 10 11 11 12 10 10 11 11 11 10 9 8 9 10 9 8 7 6 6 7 7 11 11 10 9 9 11 10 10 10 10 9 9
7 6 7 7 7 6 6 6 6 8 8 7 8 11 11 11 10 11 11 11 11 10 10 8 9 9 9 8 7 7 8 9 9 10 11 11 10 9 9 10 10 9 9 9 9
7 7 6 7 6 6 6 6 7 8 8 8 9 11 11 10 9 10 10 11 10 10 9 8 9 9 8 7 8 9 10 9 10 10 10 10 8 8 10 11 12 9 10 10 9
6 7 8 7 6 6 7 7 7 7 7 9 9 9 10 10 10 10 10 10 9 9 10 8 9 8 8 9 9 10 9 9 9 9 7 9 9 9 11 11 11 12 9 10 10
6 7 7 6 5 6 6 6 7 8 8 8 8 9 10 10 9 10 10 9 10 5 6 8 8 8 9 9 10 10 10 9 9 7 10 10 9 8 11 11 11 11 10 9 9
7 7 6 6 7 7 7 7 7 9 9 9 9 10 11 10 10 10 10 9 9 9 9 6 8 10 10 10 11 10 11 11 12 9 11 10 10 11 11 10 11 10 9 9 9
8 8 7 7 7 7 6 7 8 9 10 9 11 10 10 11 11 10 10 11 11 9 9 10 8 11 10 11 12 12 11 12 12 11 12 11 11 11 10 9 10 9 9 9 8
8 7 8 8 8 7 6 9 8 9 10 10 10 10 11 11 10 10 9 11 12 10 10 10 10 12 12 12 11 12 11 11 10 12 13 12 12 11 9 8 9 9 8 8 8
8 6 10 9 9 6 7 8 9 10 11 10 11 10 10 10 10 10 10 10 10 12 10 10 10 11 11 12 13 11 11 11 10 11 12 12 12 9 8 7 8 8 8 7 7
6 6 10 10 6 5 6 8 10 11 11 12 12 12 10 10 10 10 11 11 10 10 10 10 10 10 11 13 12 12 12 11 8 11 10 11 12 10 8 8 8 7 7 7 7
4 4 10 9 6 4 8 10 10 11 12 13 13 13 13 11 12 12 12 13 10 10 11 10 8 7 10 11 12 12 12 12 10 9 10 10 12 11 10 9 8 7 7 7 7
4 6 6 4 5 8 8 9 11 11 12 12 11 13 13 13 12 13 13 13 10 11 13 11 9 9 8 11 11 11 11 11 10 7 10 10 11 11 10 9 9 8 8 7 7
3 5 6 5 7 8 9 9 11 10 10 10 12 10 11 13 12 12 12 12 12 13 11 10 9 8 9 9 10 10 11 10 10 11 10 11 10 11 9 8 8 7 7 7 7
6 6 4 6 6 9 8 10 10 11 10 11 11 11 10 12 12 12 11 11 12 12 11 9 8 10 7 11 11 10 11 11 11 12 12 10 10 11 9 8 7 7 7 7 7
6 7 7 7 7 9 9 11 11 10 11 11 10 10 11 11 10 10 9 9 9 10 10 10 8 6 8 9 9 10 10 11 12 11 12 10 11 9 9 9 8 7 7 7 7

GFSSW_925_temp_102.txt.gz
Temp
9 9 9 9 9 9 9 9 10 10 10 11 12 11 10 11 11 11 11 12 13 13 14 14 15 15 15 13 13 12 10 10 13 12 14 13 13 14 14 14 14 16 16 17 17
8 9 9 9 9 10 9 9 9 9 10 10 11 11 11 11 11 11 12 13 13 13 14 14 12 13 10 12 11 10 10 11 12 13 13 13 13 13 14 13 14 14 16 16 16
8 8 9 9 9 9 9 9 9 9 9 10 11 11 11 11 11 11 12 13 13 13 14 14 13 13 12 12 11 11 11 11 13 13 12 12 12 13 13 12 13 13 13 13 14
8 8 8 8 9 9 9 9 8 8 9 9 11 10 10 11 12 12 12 13 12 13 14 13 11 11 10 11 11 12 12 11 11 11 10 11 12 12 12 12 13 12 12 12 12
8 8 8 7 8 8 8 8 8 8 9 9 10 11 11 11 11 12 13 12 13 13 12 11 10 11 10 10 11 11 9 10 10 10 10 10 10 10 11 12 12 11 12 11 12
7 7 8 7 8 8 8 8 8 8 9 9 10 10 10 10 11 12 12 13 13 13 11 11 11 10 9 9 10 9 9 9 9 10 10 10 10 11 11 11 11 12 12 10 11
7 7 7 7 8 7 7 8 8 8 9 9 9 9 10 9 11 12 12 12 12 12 10 11 11 10 10 10 9 9 9 8 9 10 11 10 10 9 11 11 11 11 11 11 11
7 7 7 7 7 7 7 7 8 8 8 8 8 9 9 10 11 12 12 11 12 12 12 11 12 9 9 9 7 7 8 9 11 10 11 11 11 11 11 10 11 11 11 11 11
7 6 7 7 7 7 7 8 9 8 8 8 9 8 9 10 11 11 12 11 11 11 11 11 10 7 7 5 5 5 8 8 8 10 10 10 10 11 11 10 10 11 11 12 12
6 6 6 7 8 8 8 9 9 8 8 8 8 9 9 10 11 11 12 12 11 10 9 8 5 4 4 3 5 8 7 7 7 9 10 9 9 11 11 11 11 11 11 11 10
6 6 6 6 7 8 7 9 8 8 9 9 9 9 11 11 12 11 12 11 11 9 8 7 5 5 8 7 7 7 7 6 7 9 8 8 9 10 11 10 10 10 10 10 10
6 6 7 7 6 7 9 7 6 7 7 9 10 10 11 12 10 10 12 10 10 8 8 6 4 8 8 7 7 7 6 6 7 9 9 10 10 11 11 10 10 10 9 9 9
6 6 7 6 7 7 6 6 7 7 7 8 9 10 10 11 10 10 11 10 10 9 9 7 9 9 9 8 7 4 5 6 6 10 11 10 9 9 10 10 10 10 8 8 8
6 6 7 7 7 6 6 7 7 7 8 7 9 10 11 11 9 11 11 10 10 9 9 8 9 9 8 8 6 6 7 8 9 9 10 11 10 9 9 9 11 11 8 7 7
7 7 7 7 6 6 6 7 8 7 8 8 9 11 10 10 9 10 10 11 10 10 8 8 9 8 8 7 7 9 10 9 10 9 10 9 9 8 9 12 11 11 9 9 10
7 8 7 7 6 6 6 7 7 8 8 8 9 9 9 9 9 10 10 10 9 10 9 8 9 8 8 9 8 10 9 9 10 10 7 8 8 9 10 10 11 11 10 10 10
7 8 8 7 6 7 7 6 6 7 8 8 8 9 10 10 9 10 9 10 9 5 4 7 8 8 8 8 9 9 9 8 7 5 9 9 8 10 10 10 11 10 10 9 9
8 9 9 8 8 7 7 6 6 9 9 9 9 10 11 10 10 10 9 7 9 10 6 6 8 9 9 10 11 10 11 11 10 8 9 9 8 10 9 10 11 10 9 9 8
9 8 8 8 8 8 5 7 6 9 9 9 10 9 9 11 10 10 10 10 10 9 9 10 7 11 9 11 11 11 11 12 11 11 11 9 11 11 10 9 9 9 9 8 7
8 7 8 8 9 8 6 9 7 8 9 10 10 10 10 10 10 10 10 10 11 10 10 10 10 10 11 11 11 11 11 10 11 9 10 10 10 11 9 8 8 8 7 7 7
8 7 12 11 9 6 7 8 9 10 11 11 10 10 10 10 10 9 10 10 11 11 10 10 10 10 11 11 12 10 10 11 10 9 11 11 10 10 9 8 7 7 7 6 6
6 6 12 12 6 4 7 8 10 11 11 11 11 11 10 10 10 10 10 10 10 10 10 10 11 10 10 12 11 12 12 10 8 10 9 10 10 10 10 9 7 6 6 6 6
4 5 12 13 6 5 8 10 10 11 11 12 12 13 12 10 11 9 11 12 9 9 10 10 8 6 10 11 12 12 11 11 9 8 9 9 11 10 10 9 7 7 8 7 7
5 6 6 4 4 8 8 8 10 11 11 11 11 12 13 12 11 12 12 12 9 10 12 10 8 9 8 11 10 10 10 11 9 6 9 8 10 10 10 10 9 8 8 7 7
3 5 6 5 7 7 8 10 10 10 10 10 12 10 10 12 12 12 11 11 11 12 11 10 9 7 8 8 9 9 10 10 9 9 9 11 10 10 8 7 7 7 7 7 7
6 6 4 5 6 9 8 9 10 10 10 11 11 10 10 11 11 11 10 11 11 11 10 8 7 8 6 10 8 9 9 9 9 11 9 10 9 9 9 7 7 6 6 6 6
6 6 6 6 7 8 8 10 10 10 11 11 10 10 10 11 9 9 8 9 9 10 9 9 7 6 8 8 8 9 9 9 11 10 10 10 10 9 8 8 7 6 6 6 6

GFSSW_925_temp_105.txt.gz
Temp
9 9 9 9 9 9 9 9 10 10 10 11 12 11 11 11 12 12 11 12 13 13 14 14 15 15 15 12 12 12 13 13 13 13 15 14 14 14 14 15 15 16 16 17 17
9 8 9 9 9 9 9 9 9 10 9 11 11 11 11 12 12 11 12 13 13 13 14 14 12 13 11 12 11 12 12 13 13 13 13 13 13 14 14 14 14 15 16 16 16
8 8 9 9 8 9 9 8 9 10 9 9 11 10 11 12 11 11 12 13 13 14 14 14 13 12 11 11 11 11 12 11 13 13 12 12 12 13 13 13 14 15 15 15 15
8 8 8 8 8 8 9 9 8 9 10 10 11 11 10 11 12 12 12 13 12 13 14 13 11 11 10 11 10 12 11 11 12 11 11 11 12 12 12 14 15 14 14 13 14
8 7 8 8 9 8 8 8 8 8 9 9 10 11 10 10 10 12 12 12 13 14 12 11 11 10 10 10 10 11 9 10 10 10 10 11 10 11 12 13 13 13 12 12 13
7 7 7 7 7 7 8 8 8 8 9 10 9 9 10 10 10 12 12 13 13 13 11 11 11 9 9 9 10 9 9 9 9 10 10 10 10 11 13 12 12 12 12 12 13
7 7 7 7 7 7 7 8 8 8 8 9 9 10 11 9 11 12 13 12 12 13 10 11 11 10 9 9 8 9 10 9 10 10 10 10 10 10 12 11 11 12 12 13 13
7 7 7 7 7 7 7 7 7 8 8 9 9 10 9 10 11 12 12 11 12 12 11 11 11 9 8 8 8 8 8 12 10 10 10 11 13 12 12 11 12 12 12 12 13
6 7 7 7 8 7 7 7 7 8 8 9 10 11 9 10 11 11 12 11 11 11 11 11 9 7 7 7 8 7 11 9 10 10 10 11 12 11 12 12 12 12 12 12 13
6 6 7 6 7 8 9 9 8 8 8 10 9 11 8 9 11 11 11 12 11 10 9 8 6 6 6 6 9 10 9 8 8 10 9 9 10 11 12 12 11 11 11 12 12
6 6 7 6 7 8 8 9 8 8 8 9 9 9 8 11 11 11 11 11 11 9 8 7 7 7 8 7 7 7 7 7 7 9 8 9 9 11 11 11 12 12 12 12 11
6 6 7 7 7 9 8 7 6 7 7 8 10 11 11 11 10 10 11 10 10 8 8 7 7 8 8 7 8 7 6 6 8 8 10 11 11 12 11 11 11 11 11 10 10
6 7 7 7 7 8 7 6 6 7 7 7 10 10 10 11 9 10 11 10 9 9 8 8 9 8 9 8 7 5 6 7 8 9 10 10 11 10 11 10 11 11 10 9 8
7 7 7 7 8 7 6 7 7 7 8 7 9 10 10 10 9 10 10 10 10 9 8 8 9 9 8 8 7 6 7 8 8 9 11 11 11 10 10 10 11 12 10 11 11
7 6 6 7 6 6 6 7 7 7 7 8 9 11 10 9 9 10 10 11 9 9 8 8 8 8 8 7 7 10 9 9 10 9 10 9 10 11 10 11 11 12 11 11 10
8 8 8 8 8 6 7 8 8 6 8 8 8 9 9 9 9 10 10 10 9 9 8 8 8 8 8 9 8 9 9 10 10 9 9 8 10 12 10 9 10 11 11 10 10
8 9 10 9 7 9 9 7 6 8 7 8 8 9 10 9 9 10 9 9 7 6 4 7 8 8 8 8 8 9 10 10 8 7 11 9 9 10 10 9 9 10 9 9 8
8 9 10 8 8 9 8 6 6 8 8 9 10 11 10 10 9 9 9 6 9 9 5 5 8 9 8 10 11 11 11 11 11 10 10 10 10 11 10 9 8 9 8 8 8
9 9 9 8 9 9 5 7 6 8 9 9 9 9 8 11 9 9 9 9 10 9 8 8 8 10 8 10 11 11 11 12 11 10 10 9 10 11 11 9 8 8 7 7 7
9 8 8 9 9 8 6 8 7 8 9 10 10 9 9 9 9 9 9 10 11 10 10 10 9 11 11 10 10 10 10 10 10 11 10 10 10 11 10 8 8 7 6 6 7
9 7 9 10 9 5 5 6 9 9 10 11 10 9 10 10 10 9 10 10 11 10 10 10 10 10 10 10 11 10 10 10 10 10 11 11 11 11 10 9 8 7 6 5 7
7 6 12 9 6 4 7 8 10 11 11 11 11 10 10 9 10 10 10 10 10 10 11 11 10 10 9 11 10 11 11 9 10 10 9 9 11 10 10 9 8 7 6 6 7
5 6 12 12 7 3 8 9 10 10 10 11 11 11 11 10 11 10 11 11 9 10 10 10 9 8 10 11 10 11 10 10 8 8 9 10 12 9 9 9 8 7 7 7 7
5 6 6 4 4 7 9 9 11 10 10 10 10 11 12 11 10 11 12 12 9 10 11 10 8 9 9 11 10 10 9 10 9 7 9 9 10 9 8 9 9 9 8 8 7
3 5 5 6 7 7 8 10 10 11 10 9 11 10 10 11 11 11 11 11 9 11 10 9 8 6 7 8 9 9 10 9 8 9 10 10 9 10 9 9 8 8 7 6 6
6 6 3 4 5 9 9 9 10 10 10 11 11 10 10 11 11 11 10 10 10 10 9 7 8 7 6 8 8 8 8 8 9 9 8 8 9 9 9 7 7 7 6 6 6
5 6 6 5 6 8 8 9 10 9 10 10 10 9 10 9 9 8 8 8 9 9 8 8 7 6 7 8 8 9 10 8 9 9 10 10 11 8 8 8 8 7 6 6 6

GFSSW_925_temp_108.txt.gz
Temp
9 10 10 9 9 9 10 10 10 10 11 12 13 11 10 12 12 12 14 13 14 13 14 15 16 16 17 17 17 17 20 20 19 19 19 17 18 18 18 18 20 21 21 22 21
8 8 9 9 9 9 9 9 9 9 10 11 12 11 11 12 13 14 12 13 13 14 15 16 17 17 17 16 16 18 20 19 18 18 18 17 17 17 18 19 19 20 21 20 19
8 8 9 9 9 8 9 8 9 9 9 11 11 10 10 11 15 13 12 13 13 14 14 14 15 17 16 16 15 16 18 16 16 16 16 16 17 16 17 19 20 20 21 20 19
8 8 8 8 9 9 8 9 8 9 10 11 11 10 10 11 14 12 12 13 13 14 14 15 16 16 16 16 14 16 15 15 15 14 15 15 16 16 17 19 20 20 19 18 18
8 7 8 8 8 8 8 8 8 9 9 11 11 10 12 12 12 11 12 13 13 14 14 16 16 16 16 15 15 15 14 14 14 14 14 15 14 15 17 18 19 18 17 17 18
7 7 7 8 8 8 8 8 8 9 9 9 10 9 10 10 10 12 13 13 13 13 13 14 16 15 15 14 15 14 13 14 13 14 13 13 15 13 19 17 17 17 17 18 18
7 7 7 7 7 7 7 8 8 9 9 9 10 9 10 9 10 11 13 12 12 13 13 12 14 15 15 13 12 13 15 15 14 14 14 14 16 14 18 17 17 18 17 17 17
7 7 7 7 7 7 7 8 8 8 8 9 10 9 8 9 10 12 12 11 12 11 11 11 13 13 13 13 13 15 15 19 15 14 13 14 19 19 17 16 17 17 17 17 18
7 7 7 7 7 7 7 8 8 9 9 8 10 10 8 10 11 11 12 12 11 11 11 11 12 12 13 15 16 16 19 17 17 13 14 14 16 18 17 17 16 17 17 18 18
6 7 6 7 7 8 8 7 8 9 8 9 8 10 8 10 11 11 11 12 12 12 13 12 12 14 14 15 17 17 17 15 15 15 14 14 15 17 17 16 16 17 18 18 17
6 6 6 7 8 8 8 8 9 8 9 9 10 9 9 10 11 12 11 13 13 13 13 11 12 13 12 13 12 12 13 13 16 14 13 15 16 17 17 16 16 17 17 16 16
8 7 7 7 9 9 8 8 6 7 7 10 10 10 11 12 12 12 12 13 13 12 11 13 11 11 11 11 11 12 12 15 15 13 13 15 15 16 15 15 15 15 15 15 14
7 7 7 7 8 9 6 6 6 7 7 8 11 11 11 12 11 11 13 12 12 12 12 14 11 11 11 11 11 12 11 13 12 13 16 14 17 15 15 15 15 16 15 14 13
6 8 8 8 8 8 7 6 7 7 10 8 10 11 12 12 11 11 11 12 12 12 11 12 11 11 11 11 11 12 12 12 11 12 13 14 15 17 15 15 16 15 13 12 12
7 7 9 9 7 8 7 8 8 8 12 8 10 11 12 12 11 12 11 13 12 11 12 11 11 11 11 11 11 13 12 12 12 11 11 13 12 17 15 15 14 14 12 11 10
9 9 9 9 8 8 8 8 8 12 10 9 10 11 12 11 11 12 12 12 11 11 11 11 10 11 12 11 11 12 11 12 11 11 12 13 13 18 15 12 11 11 10 10 9
9 10 10 9 9 8 8 9 11 10 8 10 11 11 11 11 11 12 11 12 11 11 10 12 12 11 10 12 11 11 12 14 14 13 16 12 11 15 14 10 10 9 9 9 8
10 10 10 10 10 10 8 13 10 9 10 10 11 12 12 11 12 11 12 13 12 12 11 12 13 12 11 13 14 14 14 13 13 15 15 12 12 16 12 11 10 9 8 8 8
10 10 9 9 9 9 13 10 9 11 11 11 11 12 11 12 12 12 12 13 13 12 12 12 12 12 12 13 13 14 13 13 12 13 12 15 14 15 14 13 10 9 7 6 7
10 9 8 9 9 9 12 8 10 10 11 11 12 12 13 12 13 13 12 13 13 12 12 12 11 13 13 12 13 13 12 13 13 13 15 16 15 15 12 10 10 8 7 6 8
9 13 10 10 9 12 9 10 11 11 12 12 12 13 13 13 12 13 13 13 13 12 13 13 13 14 13 13 15 12 13 13 14 14 14 16 17 13 11 10 9 8 7 6 7
9 12 11 10 12 10 10 12 11 12 12 12 13 13 13 13 13 13 13 13 13 13 14 13 13 12 14 14 13 14 15 15 15 14 14 14 15 13 11 10 9 8 7 7 7
11 10 11 10 13 11 11 11 11 12 12 13 13 13 13 13 13 13 13 13 12 13 14 13 13 12 15 13 13 13 14 14 13 12 13 15 18 13 12 11 10 8 8 8 8
12 12 13 10 9 13 13 12 12 11 12 12 13 13 13 13 13 14 14 13 12 13 11 12 12 13 15 17 14 14 14 14 14 13 15 15 17 16 13 12 11 11 10 10 11
10 10 9 12 12 11 12 12 12 13 12 12 12 13 14 14 13 13 13 13 11 12 12 13 12 12 13 14 13 13 13 13 12 13 13 16 15 17 16 15 14 13 12 11 11
12 12 8 10 9 12 11 12 12 12 12 13 13 12 12 14 15 15 14 13 14 12 12 11 12 11 10 14 13 11 13 13 13 13 13 14 14 17 17 15 14 13 12 11 11
5 6 12 8 11 12 12 12 12 11 12 11 11 12 12 12 12 13 13 12 12 13 12 12 11 11 12 13 13 13 14 13 13 13 13 13 16 17 13 13 13 13 13 12 12

GFSSW_925_temp_111.txt.gz
Temp
9 10 9 10 9 10 10 10 10 10 11 12 12 12 11 12 13 13 17 14 15 14 15 17 18 19 20 20 20 20 22 24 23 23 22 20 21 21 21 21 23 23 23 24 23
9 8 9 9 9 9 9 9 10 10 11 12 12 11 12 13 15 15 13 13 13 14 17 19 20 20 20 19 20 21 22 23 21 21 21 20 20 20 20 22 23 23 24 23 22
8 9 9 9 9 9 9 9 9 10 10 12 12 11 11 12 17 15 13 13 13 14 16 18 19 20 19 20 19 20 22 20 19 19 18 19 19 19 20 21 23 22 22 22 21
8 8 8 9 8 8 9 9 9 10 10 10 11 10 11 12 15 14 12 13 13 15 16 18 19 19 19 19 18 19 18 19 18 17 17 18 18 19 20 21 22 21 21 20 20
8 8 8 8 8 8 9 8 9 9 10 10 10 9 11 13 12 12 13 13 14 15 17 18 19 19 19 19 18 19 18 17 17 16 17 17 17 18 19 21 21 20 19 20 20
8 7 7 7 8 7 8 8 8 9 9 10 9 11 10 11 11 13 13 14 14 16 16 18 19 19 18 18 19 18 17 17 16 17 16 16 18 17 21 20 19 20 20 20 20
7 7 7 7 7 8 8 8 8 9 9 9 10 11 10 9 11 13 13 13 14 15 16 16 17 18 19 17 16 17 17 17 17 16 17 16 18 18 20 20 19 21 20 20 20
7 7 7 7 8 8 7 8 8 9 10 9 10 11 8 8 10 14 14 14 13 13 14 15 16 16 17 17 17 18 18 20 17 17 16 16 20 22 21 20 20 20 20 20 20
7 7 7 7 8 7 7 8 8 8 9 10 9 9 8 10 13 13 14 14 14 13 13 14 15 16 15 18 18 19 21 21 18 16 16 17 19 21 21 20 20 20 20 20 20
7 7 7 8 8 8 7 8 8 8 8 9 8 9 7 10 12 13 13 14 14 14 15 15 16 16 17 16 18 21 20 19 19 18 16 17 18 20 20 20 19 19 20 20 19
7 7 8 8 9 8 7 9 8 7 9 10 10 9 9 10 12 13 13 14 15 15 16 14 15 15 15 16 15 16 17 18 19 17 15 18 18 19 20 18 19 19 19 19 18
7 7 8 8 7 8 8 8 7 7 7 9 9 9 11 13 14 14 14 15 16 15 15 15 14 14 13 14 14 15 16 18 17 16 16 17 17 19 18 18 18 18 18 16 15
8 8 8 9 9 8 8 7 7 7 8 9 10 11 12 14 13 13 15 15 16 15 16 17 14 13 14 13 14 15 14 15 14 15 18 17 20 18 18 17 18 18 17 14 13
8 8 9 9 8 7 8 8 7 8 11 9 11 12 13 13 13 13 13 14 14 14 15 14 13 13 14 13 13 15 15 14 14 14 16 16 17 21 20 18 18 17 15 11 11
8 8 9 9 9 9 8 7 8 9 13 10 12 12 14 14 13 13 13 15 14 14 14 13 13 13 14 12 14 15 14 14 14 12 13 16 15 20 18 19 19 15 13 11 10
9 8 9 10 10 9 9 8 9 12 10 11 13 13 14 14 13 14 14 14 13 14 14 13 13 13 14 14 13 14 14 13 14 14 14 15 15 20 20 17 14 13 11 10 9
9 10 10 10 11 9 8 10 12 11 11 12 13 14 14 13 14 14 14 14 13 11 10 14 14 13 13 14 14 14 15 15 16 15 17 14 13 16 18 15 13 11 10 9 9
10 10 10 8 9 10 10 14 11 10 12 12 13 14 13 14 14 14 15 15 14 15 14 14 13 14 14 15 15 16 16 14 14 17 17 14 13 18 17 15 13 11 9 8 8
11 10 10 9 10 9 15 11 10 13 13 13 13 15 13 14 15 15 15 15 15 15 14 13 13 14 14 15 15 16 15 15 13 15 13 16 15 18 17 16 13 11 9 7 7
11 12 11 10 10 10 13 11 12 13 14 14 15 15 15 15 15 16 15 15 14 14 15 15 14 15 14 14 14 15 15 14 13 14 15 18 18 18 15 11 13 11 8 7 8
11 16 11 12 10 15 12 13 13 13 14 15 15 15 15 15 16 15 15 15 15 15 15 15 15 15 14 15 17 13 14 14 16 16 15 17 19 16 13 13 12 11 9 7 8
13 14 13 12 15 15 13 14 12 14 14 14 15 16 16 15 16 16 16 16 16 15 16 16 16 15 17 17 16 16 17 17 16 17 16 16 16 16 15 14 12 11 9 8 8
16 15 13 11 14 14 13 13 14 14 14 15 15 15 15 16 16 16 16 16 15 15 16 16 15 15 16 16 15 14 16 16 17 16 14 15 18 17 15 14 13 12 11 9 9
16 13 16 16 15 17 15 14 14 13 14 14 15 15 15 16 16 16 16 15 15 14 12 14 15 15 16 17 17 16 16 16 16 14 15 17 18 19 17 15 15 13 12 12 12
14 13 12 15 15 15 15 15 15 15 14 14 15 15 16 16 16 16 16 16 14 13 14 14 14 14 15 15 15 15 15 16 15 15 14 16 17 19 19 19 17 16 14 14 13
16 15 13 14 13 15 13 15 15 14 15 15 14 15 15 16 16 16 16 16 16 14 14 14 13 14 11 15 16 15 15 15 15 15 15 16 16 18 19 19 18 18 16 15 14
10 11 14 11 15 15 17 16 15 14 14 14 15 15 15 16 15 15 16 16 16 15 14 14 13 12 13 16 15 15 17 16 15 16 16 15 17 18 18 17 16 17 16 15 15

GFSSW_925_temp_114.txt.gz
Temp
9 9 9 9 10 10 10 10 10 10 11 11 12 11 12 13 14 14 15 13 14 15 16 18 19 20 20 19 20 20 19 21 22 22 20 21 21 21 21 20 21 22 21 22 23
9 10 10 10 9 9 9 9 10 10 10 11 12 11 13 14 15 14 13 13 13 15 16 19 19 20 19 19 19 19 19 19 20 19 20 20 19 19 19 20 21 21 23 23 22
9 9 9 9 9 9 10 10 10 10 10 11 11 11 11 12 16 14 13 13 14 15 17 19 20 21 19 19 19 20 19 20 19 18 18 19 19 20 19 18 21 19 19 20 20
8 8 9 8 9 9 9 10 10 11 10 11 11 10 11 12 14 13 12 13 14 15 17 19 19 19 18 18 19 18 19 19 18 16 17 18 18 18 18 18 20 20 19 19 18
8 8 8 8 9 9 9 9 9 10 10 10 11 10 11 12 12 14 14 14 14 16 17 19 18 19 18 18 18 19 18 18 17 17 17 17 16 16 17 18 19 19 19 18 18
8 8 7 7 8 9 8 8 9 9 10 10 10 10 10 10 11 14 14 15 15 16 17 18 19 19 18 18 18 18 18 18 17 17 17 16 16 17 19 19 19 19 19 19 18
7 7 8 8 7 8 8 8 9 9 9 10 10 12 9 9 10 13 14 14 15 16 16 16 17 18 18 17 17 17 17 16 16 17 17 15 16 16 17 20 19 18 19 19 19
7 7 7 7 8 7 8 8 9 10 9 9 10 11 8 10 12 14 15 14 14 14 14 15 17 16 17 16 17 17 18 17 16 17 15 16 16 19 20 19 18 18 19 19 19
7 7 8 8 8 8 8 8 9 9 9 10 11 10 8 11 13 14 15 15 14 14 15 15 16 16 16 17 16 18 17 19 16 17 16 15 16 18 19 19 18 18 18 18 18
7 7 8 8 8 8 8 9 8 9 10 11 10 10 9 11 12 14 14 14 15 15 15 16 15 14 15 12 13 16 19 19 19 16 16 15 15 17 18 19 17 17 18 17 16
8 8 9 8 8 8 9 9 8 9 9 9 9 10 10 11 12 14 14 15 16 16 15 15 12 12 13 14 15 16 16 17 18 15 15 14 16 17 18 18 17 18 16 14 13
8 8 7 8 8 9 9 9 7 8 7 9 9 9 9 12 14 14 15 16 16 14 15 14 11 14 14 14 14 15 15 15 16 16 15 15 15 17 18 18 18 17 14 12 11
8 8 8 9 9 9 8 7 7 8 7 8 9 10 11 14 13 13 15 15 15 16 15 14 13 14 15 14 13 15 13 13 13 15 15 15 15 16 17 17 17 17 12 11 10
8 9 9 10 9 8 8 8 8 8 9 8 10 12 14 14 13 14 14 14 15 14 14 13 13 14 14 12 13 14 14 14 14 12 11 14 11 18 15 16 17 14 11 10 9
9 9 9 9 10 10 9 8 8 9 11 11 12 13 15 14 13 13 14 16 14 14 14 12 13 14 14 11 14 14 14 13 14 13 11 15 11 17 17 17 14 13 11 10 9
9 9 10 10 10 9 8 8 9 11 9 12 14 14 14 14 14 14 14 14 14 14 14 13 13 13 14 14 14 14 13 14 14 13 12 12 12 14 17 16 14 12 10 9 9
10 10 10 10 11 9 9 10 10 10 11 12 13 15 15 14 14 15 14 14 12 11 9 13 14 13 13 13 14 13 11 11 11 14 11 13 9 11 16 14 13 11 10 9 8
11 11 11 10 10 10 10 11 10 10 12 13 14 15 14 15 14 15 15 12 14 16 11 11 10 14 13 14 14 16 15 9 11 11 11 12 9 12 15 14 12 12 10 9 8
11 11 11 10 10 9 10 10 10 12 14 14 14 14 14 14 14 15 15 15 15 15 14 10 11 14 14 15 15 15 14 15 11 12 10 11 13 15 15 15 13 12 11 8 8
12 12 12 12 10 10 11 11 12 15 15 15 15 15 15 15 15 15 16 15 15 15 15 15 12 15 14 14 14 13 15 12 12 9 11 12 15 12 14 13 13 12 10 8 8
12 14 12 12 10 13 10 12 13 14 14 15 16 16 15 15 16 16 15 15 15 15 15 15 14 14 14 13 14 12 12 13 14 13 10 12 11 15 13 11 12 11 9 8 8
13 13 14 13 13 14 11 14 13 14 14 15 15 16 16 16 16 16 16 16 16 16 15 14 14 12 14 16 15 15 15 14 11 14 13 13 12 15 14 13 12 11 9 8 9
15 14 15 14 13 12 14 13 14 14 15 15 16 16 16 16 16 16 16 15 15 15 14 15 13 10 15 14 15 13 14 14 14 13 11 11 12 15 14 13 12 11 9 9 8
14 11 15 14 15 15 15 15 14 14 15 15 15 16 16 16 16 16 16 14 15 14 13 13 13 12 11 15 14 14 14 15 13 10 12 13 14 15 14 13 13 11 10 9 9
13 12 12 13 14 15 15 16 15 15 14 15 15 15 16 16 16 15 16 14 14 13 13 13 11 12 12 14 13 13 13 14 13 13 12 14 13 15 15 15 15 13 12 11 10
12 13 12 14 14 15 13 15 16 15 15 15 14 16 16 15 16 16 16 16 15 12 13 13 10 12 9 13 13 12 13 13 14 14 14 14 14 16 15 15 15 14 14 12 12
12 12 12 12 15 15 15 16 15 15 15 15 15 14 14 14 14 14 14 13 14 14 12 13 10 10 10 12 12 11 14 14 14 14 14 13 14 15 14 15 15 14 13 13 12

GFSSW_925_temp_117.txt.gz
Temp
9 9 9 10 9 10 10 10 10 10 11 12 12 12 13 13 14 13 13 13 14 15 16 17 18 19 20 18 19 18 16 17 17 19 18 19 19 19 19 19 19 21 21 20 20
8 8 8 9 10 9 9 9 10 10 11 12 12 12 12 13 13 13 13 13 14 15 16 17 18 19 16 18 17 15 14 18 17 17 18 18 18 18 18 16 19 20 19 20 20
9 9 9 9 9 9 9 10 10 10 11 12 12 11 11 12 13 12 13 13 14 16 16 17 19 19 18 18 17 18 16 17 15 16 17 18 18 17 17 18 18 19 18 17 19
8 9 8 9 8 9 9 9 10 10 10 11 11 12 12 13 12 13 13 14 15 16 17 18 18 18 16 16 17 16 16 16 16 15 16 16 16 16 16 16 17 17 18 18 17
8 8 8 8 8 8 9 9 9 10 10 10 11 11 12 11 11 12 14 14 15 16 17 17 17 18 16 16 17 16 16 16 15 16 16 16 15 15 15 15 15 18 19 17 16
8 8 8 8 8 9 8 8 9 10 10 11 11 11 11 9 11 12 14 14 15 16 16 16 17 17 16 16 16 16 16 15 15 16 16 15 15 15 17 16 18 18 17 16 17
8 7 7 7 8 8 8 8 9 10 9 9 11 12 9 10 12 13 14 14 15 16 15 15 16 16 17 15 16 15 16 16 15 16 15 14 15 14 15 17 18 17 17 17 18
7 8 7 7 7 8 8 8 9 9 9 10 11 11 8 11 13 14 14 14 15 16 15 16 16 15 15 15 16 16 15 14 15 16 15 15 16 18 17 16 17 16 16 18 14
8 8 8 8 8 8 9 9 9 9 9 10 10 10 8 12 13 14 14 14 14 15 15 16 16 14 15 13 11 14 14 16 15 16 15 15 14 16 15 16 15 16 17 14 13
8 9 8 9 9 8 9 8 8 10 10 11 11 10 9 11 11 14 14 15 15 14 14 14 11 10 9 9 10 14 15 17 16 15 15 14 13 14 15 15 15 16 12 12 12
8 9 8 8 8 9 10 9 8 8 9 9 10 10 10 11 12 14 14 14 15 14 12 13 8 7 11 13 14 15 15 14 15 15 14 13 12 14 15 14 16 13 11 10 10
8 8 8 9 9 10 9 7 7 8 8 9 10 9 11 12 13 13 14 14 14 12 14 9 8 12 13 13 13 13 14 12 13 15 14 13 13 15 15 15 14 12 10 9 9
8 9 9 9 10 10 8 7 8 8 9 9 9 10 11 13 12 12 13 14 13 12 12 10 12 14 14 12 11 12 12 12 12 12 13 13 12 15 16 16 15 11 10 9 9
9 9 9 10 10 8 8 8 8 8 8 9 11 13 13 13 12 14 14 13 13 12 11 11 13 13 13 11 11 13 13 13 13 9 9 12 10 12 14 14 14 10 8 8 8
10 9 10 10 10 9 10 9 8 8 9 10 12 14 13 13 13 13 14 14 13 13 12 11 12 13 13 11 13 13 13 12 13 11 9 11 8 11 13 14 13 11 10 9 8
10 10 10 10 10 9 9 8 8 9 8 11 13 13 13 14 13 14 14 13 13 12 11 12 12 12 13 14 13 13 12 12 14 13 10 9 10 11 13 15 13 11 9 9 8
10 11 11 10 9 9 9 8 7 7 11 12 12 14 14 13 13 14 13 12 9 8 6 10 12 12 13 12 13 12 10 6 11 10 10 11 7 11 14 13 12 11 9 8 7
11 11 11 11 10 10 10 7 7 9 10 12 13 14 13 13 14 14 13 9 14 13 7 6 9 12 12 12 13 12 12 7 10 8 9 8 8 11 14 12 11 10 8 8 7
12 12 11 11 10 10 7 6 6 9 12 12 13 13 13 13 14 14 14 13 13 13 10 7 9 13 12 14 14 14 11 12 8 8 6 7 10 13 12 11 10 10 9 8 8
11 11 12 11 11 10 7 9 10 13 14 14 13 14 13 13 13 13 13 14 13 14 13 13 9 13 13 13 13 13 13 10 8 8 10 8 11 12 12 11 12 10 8 7 7
11 9 12 11 10 7 6 9 12 13 12 13 14 14 13 14 14 14 14 14 14 13 14 14 11 12 13 11 11 11 11 12 11 10 9 10 9 12 12 12 11 10 8 7 7
11 9 13 11 9 7 6 13 13 13 13 13 14 14 14 14 15 15 14 14 14 14 13 13 12 9 11 13 12 11 11 11 9 12 10 10 9 12 13 12 11 10 9 7 7
9 10 13 13 8 5 12 12 13 13 13 14 15 15 15 15 14 15 14 14 14 14 13 13 11 7 11 12 13 13 12 12 12 11 9 9 12 13 12 12 11 10 8 7 7
9 8 9 8 9 11 13 13 13 13 14 14 14 15 14 14 15 14 14 13 13 13 13 12 10 10 10 13 12 12 12 12 12 8 11 12 14 14 12 11 11 10 9 8 8
8 9 9 8 11 13 14 14 14 13 13 14 14 14 14 14 14 13 14 13 13 12 13 11 9 10 10 11 11 12 12 12 11 12 11 14 12 14 13 12 12 11 11 9 8
8 9 8 10 12 14 12 14 14 14 14 14 13 14 15 13 14 13 13 14 13 10 11 10 8 10 6 10 10 10 11 11 11 12 12 13 13 15 15 11 11 11 11 9 10
10 10 8 10 11 11 12 14 14 14 14 13 13 13 13 13 11 11 11 11 12 10 9 10 8 8 8 9 9 9 11 11 11 11 12 11 13 13 13 13 13 12 12 11 10